     2              OBSERVATION DATA    GPS                 RINEX VERSION / TYPE
teqc 2000Feb29 20030805 03:11:18UTC                         PGM / RUN BY / DATE
                                                            COMMENT
L2: 1 -> 1; 150 -> 5; 250 -> 9                              COMMENT
L2: 1 -> 1; 150 -> 5; 250 -> 9                              COMMENT
L2: 1 -> 1; 150 -> 5; 250 -> 9                              COMMENT
L2: 1 -> 1; 150 -> 5; 250 -> 9                              COMMENT
L2: 1 -> 1; 150 -> 5; 250 -> 9                              COMMENT
Original Marker Name: PK04                                  COMMENT
Campaign Name: USC/SCEC 2003                                COMMENT
4-Character Station Name: PK04                              COMMENT
6-Character Antenna Code: DMRCHT                            COMMENT
Vertical Measurement Point: BCR                             COMMENT
Vertical Offset to Rinex Ref. Point: 0.0348                 COMMENT
Radial Measurement Point: ECF                               COMMENT
Radial Offset to Rinex Ref. Point: 0.1897                   COMMENT
Antenna Height from Field Measurement: 0.5600 m             COMMENT
Additional Antenna Identification Info.:                    COMMENT
Turborogue and Ashtech Choke Ring                           COMMENT
Original XYZ: -2288975.6296 -4701821.6940 3640010.2106      COMMENT
New XYZ position is based on association with SCEC monument COMMENT
E1F2V8P3+0011. Position of that monument is believed to be  COMMENT
valid to within 1 m horizontally; vertical accuracy         COMMENT
should be no worse than 3-times this value.                 COMMENT
                                                            COMMENT
Revised Rinex header created by UCSD GPS archive for        COMMENT
GSAC on 09-Nov-2004 (2004:314) 22:56:00 GMT                 COMMENT
For assistance contact dagnew@ucsd.edu                      COMMENT
or anderson@python.ucsd.edu                                 COMMENT
                                                            COMMENT
PK04 99                                                     MARKER NAME
KEA UNIV SOUTHERN CALIFORNIA                                OBSERVER / AGENCY
278 ASHTECH Z-XII3 CD00                                     REC # / TYPE / VERS
374 DORNE-MARGOL. TYPE T                                    ANT # / TYPE
 -2288970.0000 -4701808.0000  3639997.0000                  APPROX POSITION XYZ
        0.4921        0.0000        0.0000                  ANTENNA: DELTA H/E/N
     1     1     0                                          WAVELENGTH FACT L1/2
     7    C1    L1    L2    P1    P2    S1    S2            # / TYPES OF OBSERV
     0                                                      INTERVAL
  2003     1    13     0     0   30.000000                  TIME OF FIRST OBS
  2003     1    13    23    59   30.000000                  TIME OF LAST OBS
                                                            END OF HEADER
 03  1 13  0  0 30.0000000  0  7G 9G 5G30G24G 6G10G 4
  24926978.995     -537871.71048   -405325.78144  24926980.241    24926993.228
       193.000         119.000
  20444833.223   -25855007.14849 -20129533.27448  20444832.697    20444840.354
       246.000         217.000
  20842812.067   -24058977.71749 -18727869.60447  20842812.371    20842819.460
       242.000         206.000
  21616615.765   -15110495.99749 -11752482.00447  21616615.379    21616624.230
       239.000         200.000
  23087902.114   -12920112.26549 -10052102.41346  23087902.088    23087911.151
       222.000         171.000
  21284749.536   -19386634.65049 -15090477.01847  21284748.905    21284757.631
       237.000         199.000
  23938371.391    -4991868.10249  -3879181.36045  23938372.100    23938381.862
       217.000         154.000
 03  1 13  0  1  0.0000000  0  7G 9G 5G30G24G 6G10G 4
  24944301.303     -446842.90948   -334394.41544  24944301.439    24944317.236
       192.000         119.000
  20450975.207   -25822730.59949 -20104382.72048  20450974.485    20450982.326
       246.000         217.000
  20833578.044   -24107502.74449 -18765681.26647  20833578.404    20833585.314
       242.000         207.000
  21629321.427   -15043727.23949 -11700454.41547  21629321.213    21629330.067
       238.000         200.000
  23074633.941   -12989836.39549 -10106432.75746  23074632.854    23074643.056
       221.000         171.000
  21274239.926   -19441862.98949 -15133512.02447  21274239.231    21274247.569
       237.000         199.000
  23956910.204    -4894446.11349  -3803268.16245  23956909.916    23956920.723
       213.000         154.000
 03  1 13  0  1 30.0000000  0  7G 9G 5G30G24G 6G10G 4
  24961602.691     -355924.15148   -263548.81844  24961605.310    24961616.229
       193.000         119.000
  20457218.260   -25789922.86649 -20078818.26048  20457217.843    20457225.457
       246.000         217.000
  20824438.076   -24155533.47749 -18803107.76947  20824438.361    20824445.328
       242.000         207.000
  21642067.068   -14976748.18949 -11648262.96247  21642066.739    21642075.732
       238.000         199.000
  23061372.567   -13059524.75849 -10160735.24846  23061372.344    23061381.364
       222.000         171.000
  21263830.817   -19496563.05749 -15176135.39047  21263830.137    21263838.799
       237.000         199.000
  23975451.305    -4797011.41749  -3727345.10145  23975452.530    23975462.657
       217.000         154.000
 03  1 13  0  2  0.0000000  0  7G 9G 5G30G24G 6G10G 4
  24978882.574     -265118.21548   -192791.14044  24978882.739    24978898.314
       190.000         118.000
  20463562.254   -25756584.93149 -20052840.65148  20463561.751    20463569.436
       246.000         217.000
  20815392.481   -24203068.21549 -18840147.77947  20815392.693    20815399.784
       241.000         207.000
  21654852.278   -14909561.37749 -11595909.61847  21654852.498    21654860.777
       238.000         199.000
  23048118.060   -13129177.07249 -10215009.65346  23048118.460    23048127.339
       222.000         171.000
  21253522.734   -19550732.35549 -15218345.16947  21253521.773    21253530.601
       237.000         199.000
  23993994.599    -4699565.89649  -3651413.56645  23993995.203    23994006.678
       215.000         154.000
 03  1 13  0  2 30.0000000  0  7G 9G 5G30G24G 6G10G 4
  24996140.522     -174427.43648   -122123.18744  24996140.862    24996154.306
       188.000         116.000
  20470007.073   -25722717.14049 -20026450.16648  20470006.569    20470014.168
       246.000         217.000
  20806441.644   -24250104.73849 -18876799.57147  20806441.790    20806448.984
       241.000         206.000
  21667676.762   -14842168.53149 -11543395.72547  21667677.019    21667685.300
       239.000         199.000
  23034870.505   -13198792.87249 -10269255.61546  23034870.091    23034879.855
       222.000         172.000
  21243315.956   -19604369.01849 -15260139.90947  21243315.369    21243324.300
       237.000         199.000
  24012539.651    -4602110.95449  -3575474.69345  24012540.634    24012551.352
       219.000         154.000
 03  1 13  0  3  0.0000000  0  7G 9G 5G30G24G 6G10G 4
  25013376.270      -83853.79748    -51546.50744  25013375.600    25013389.451
       188.000         112.000
  20476552.687   -25688319.80049 -19999647.04748  20476552.298    20476559.686
       246.000         216.000
  20797586.133   -24296640.57949 -18913061.22447  20797586.311    20797593.363
       242.000         206.000
  21680540.162   -14774571.24049 -11490722.52647  21680540.214    21680548.687
       239.000         199.000
  23021630.075   -13268371.13949 -10323472.32846  23021629.967    23021639.033
       221.000         172.000
  21233211.096   -19657470.15649 -15301517.35347  21233210.444    21233218.827
       238.000         200.000
  24031086.269    -4504647.84849  -3499529.46345  24031086.185    24031096.876
       213.000         154.000
 03  1 13  0  3 30.0000000  0  7G 9G 5G30G24G 6G10G 4
  25030589.044        6599.16848     18936.17344  25030589.444    25030605.825
       187.000         113.000
  20483198.728   -25653394.66749 -19972432.65848  20483198.367    20483205.795
       247.000         216.000
  20788825.996   -24342675.06949 -18948932.20847  20788826.195    20788833.311
       242.000         206.000
  21693441.792   -14706772.67649 -11437892.48147  21693441.813    21693450.534
       239.000         199.000
  23008396.648   -13337912.48449 -10377660.27946  23008396.229    23008405.140
       222.000         172.000
  21223208.383   -19710034.56449 -15342476.56347  21223207.659    21223216.188
       237.000         200.000
  24049633.836    -4407179.32249  -3423580.03445  24049633.955    24049643.495
       216.000         153.000
 03  1 13  0  4  0.0000000  0  7G 9G 5G30G24G 6G10G 4
  25047778.504       96929.58948     89323.30744  25047777.714    25047792.952
       188.000         113.000
  20489945.190   -25617941.73849 -19944807.00248  20489944.836    20489952.357
       246.000         216.000
  20780161.766   -24388205.45149 -18984410.38347  20780162.133    20780169.134
       241.000         206.000
  21706381.458   -14638774.27549 -11384906.72147  21706381.515    21706390.200
       238.000         199.000
  22995170.540   -13407415.78149 -10431818.58946  22995170.195    22995179.830
       223.000         173.000
  21213308.325   -19762059.41449 -15383015.33947  21213307.463    21213316.323
       237.000         201.000
  24068182.409    -4309706.24349  -3347627.02345  24068182.354    24068191.725
       214.000         153.000
 03  1 13  0  4 30.0000000  0  7G 9G 5G30G24G 6G10G 4
  25064944.044      187134.70348    159612.80444  25064947.248    25064962.081
       186.000         111.000
  20496791.879   -25581962.10049 -19916770.92848  20496791.407    20496799.009
       247.000         217.000
  20771593.817   -24433230.11349 -19019494.48847  20771594.065    20771601.047
       242.000         207.000
  21719358.836   -14570578.00849 -11331766.78247  21719358.571    21719367.421
       239.000         199.000
  22981951.726   -13476880.71449 -10485947.00146  22981951.506    22981960.260
       223.000         173.000
  21203511.324   -19813542.72749 -15423132.13947  21203510.605    21203519.295
       237.000         201.000
  24086731.474    -4212230.52749  -3271671.98345  24086730.513    24086742.604
       210.000         153.000
 03  1 13  0  5  0.0000000  0  6G 5G30G24G 6G10G 4
  20503739.589   -25545451.73749 -19888321.29648  20503739.157    20503746.776
       246.000         217.000
  20763123.334   -24477742.40749 -19054179.34647  20763123.609    20763130.667
       242.000         207.000
  21732374.317   -14502181.54949 -11278470.84647  21732374.090    21732382.799
       238.000         199.000
  22968741.250   -13546301.96449 -10540041.38646  22968741.481    22968750.307
       223.000         174.000
  21193818.649   -19864477.65549 -15462821.62247  21193817.895    21193826.653
       238.000         201.000
  24105281.612    -4114749.07649  -3195712.45945  24105280.861    24105293.294
       212.000         152.000
 03  1 13  0  5 30.0000000  0  6G 5G30G24G 6G10G 4
  20510787.550   -25508414.49549 -19859461.11448  20510787.158    20510794.710
       247.000         217.000
  20754750.172   -24521743.65149 -19088465.98247  20754750.525    20754757.373
       242.000         207.000
  21745426.808   -14433590.10849 -11225022.97447  21745426.724    21745435.178
       238.000         198.000
  22955538.588   -13615682.36349 -10594103.94846  22955538.921    22955547.630
       225.000         175.000
  21184230.205   -19914865.06149 -15502084.46347  21184229.393    21184237.995
       238.000         201.000
  24123831.931    -4017266.82649  -3119752.29545  24123831.959    24123844.500
       216.000         151.000
 03  1 13  0  6  0.0000000  0  6G 5G30G24G 6G10G 4
  20517934.792   -25470855.61449 -19830194.45748  20517934.390    20517942.068
       247.000         217.000
  20746473.827   -24565236.13649 -19122356.18247  20746474.245    20746481.031
       242.000         207.000
  21758515.238   -14364809.61949 -11171427.79747  21758515.363    21758523.802
       238.000         198.000
  22942342.962   -13685025.63349 -10648137.58146  22942343.136    22942351.886
       225.000         175.000
  21174745.547   -19964707.09449 -15540922.34047  21174744.859    21174753.242
       237.000         201.000
  24142381.480    -3919789.37949  -3043795.90045  24142381.167    24142391.930
       216.000         150.000
 03  1 13  0  6 30.0000000  0  6G 5G30G24G 6G10G 4
  20525181.412   -25432774.39849 -19800520.78748  20525180.733    20525188.586
       246.000         216.000
  20738294.866   -24608216.63649 -19155847.43347  20738295.067    20738302.168
       242.000         208.000
  21771639.546   -14295840.92149 -11117685.96547  21771639.408    21771648.117
       238.000         198.000
  22929154.777   -13754329.78349 -10702140.72846  22929154.217    22929163.233
       225.000         175.000
  21165365.259   -20014000.28649 -15579332.55347  21165364.533    21165373.282
       238.000         201.000
  24160930.043    -3822316.98949  -2967843.44945  24160929.297    24160940.301
       210.000         150.000
 03  1 13  0  7  0.0000000  0  6G 5G30G24G 6G10G 4
  20532527.335   -25394171.29449 -19770440.45148  20532526.907    20532534.546
       246.000         216.000
  20730213.828   -24650682.71549 -19188937.83647  20730213.922    20730221.132
       243.000         208.000
  21784799.392   -14226685.58449 -11063798.70347  21784799.127    21784807.531
       238.000         197.000
  22915974.271   -13823593.48149 -10756112.35746  22915974.381    22915982.788
       224.000         175.000
  21156089.979   -20062741.94049 -15617312.99747  21156089.224    21156097.948
       238.000         201.000
  24179477.375    -3724850.49349  -2891895.56845  24179476.017    24179488.833
       212.000         150.000
 03  1 13  0  7 30.0000000  0  7G 5G30G17G24G 6G10G 4
  20539972.261   -25355047.97449 -19739954.75048  20539971.833    20539979.602
       246.000         216.000
  20722230.867   -24692633.20249 -19221626.47947  20722231.228    20722238.188
       243.000         208.000
  25046650.462    -1018719.27349   -776917.97445  25046649.206    25046662.373
       205.000         141.000
  21797994.256   -14157345.83749 -11009767.73947  21797993.983    21798002.860
       237.000         197.000
  22902801.354   -13892817.07649 -10810052.73246  22902800.871    22902809.434
       224.000         175.000
  21146919.964   -20110930.69049 -15654862.61547  21146919.143    21146927.724
       239.000         201.000
  24198023.027    -3627392.21949  -2815954.09245  24198021.808    24198036.867
       209.000         148.000
 03  1 13  0  8  0.0000000  0  7G 5G30G17G24G 6G10G 4
  20547515.345   -25315408.65449 -19709066.97248  20547514.851    20547522.764
       246.000         216.000
  20714345.796   -24734069.58549 -19253914.52547  20714346.117    20714353.226
       242.000         208.000
  25029790.526    -1107314.75049   -845953.06245  25029789.267    25029803.112
       207.000         142.000
  21811223.192   -14087827.14849 -10955597.35247  21811223.044    21811231.696
       237.000         197.000
  22889635.534   -13962003.40149 -10863964.06846  22889634.826    22889644.265
       224.000         175.000
  21137854.898   -20158567.58949 -15691982.20847  21137854.168    21137862.715
       239.000         202.000
  24216566.254    -3529947.19149  -2740022.91745  24216567.029    24216576.966
       213.000         147.000
 03  1 13  0  8 30.0000000  0  7G 5G30G17G24G 6G10G 4
  20555157.428   -25275249.10749 -19677773.82148  20555156.951    20555164.721
       246.000         216.000
  20706559.755   -24774985.32249 -19285796.86847  20706560.087    20706567.058
       242.000         208.000
  25012955.500    -1195780.63549   -914887.18045  25012954.422    25012968.336
       207.000         144.000
  21824486.744   -14018127.02249 -10901285.58147  21824486.762    21824495.219
       237.000         196.000
  22876477.855   -14031146.89949 -10917842.02046  22876477.534    22876487.196
       225.000         175.000
  21128896.200   -20205645.62249 -15728666.32647  21128895.470    21128903.895
       239.000         202.000
  24235107.598    -3432511.76549  -2664099.25745  24235106.855    24235118.795
       207.000         145.000
 03  1 13  0  9  0.0000000  0  7G 5G30G17G24G 6G10G 4
  20562898.597   -25234568.90549 -19646074.97148  20562898.012    20562905.934
       246.000         216.000
  20698873.431   -24815376.99749 -19317270.85847  20698873.528    20698880.625
       242.000         208.000
  24996145.994    -1284113.97549   -983718.02945  24996144.459    24996158.847
       208.000         145.000
  21837784.751   -13948245.72949 -10846832.64847  21837784.716    21837792.918
       237.000         196.000
  22863328.641   -14100245.79049 -10971685.22646  22863327.768    22863337.406
       225.000         175.000
  21120044.430   -20252161.59449 -15764912.48047  21120043.528    21120052.034
       239.000         202.000
  24253647.129    -3335086.21849  -2588183.29545  24253647.129    24253659.078
       210.000         145.000
 03  1 13  0  9 30.0000000  0  7G 5G30G17G24G 6G10G 4
  20570738.624   -25193369.26149 -19613971.35848  20570738.064    20570745.923
       246.000         216.000
  20691287.070   -24855243.27949 -19348335.45247  20691287.130    20691294.333
       242.000         208.000
  24979361.689    -1372314.63649  -1052445.50245  24979361.328    24979375.032
       208.000         146.000
  21851116.757   -13878185.46649 -10792240.25647  21851116.637    21851125.080
       237.000         196.000
  22850188.042   -14169299.60149 -11025493.30146  22850187.175    22850196.869
       224.000         176.000
  21111299.967   -20298113.82449 -15800719.35347  21111299.092    21111307.673
       239.000         202.000
  24272184.626    -3237672.23349  -2512276.33345  24272184.436    24272195.022
       210.000         145.000
 03  1 13  0 10  0.0000000  0  7G 5G30G17G24G 6G10G 4
  20578677.442   -25151650.60949 -19581463.32748  20578677.138    20578684.552
       246.000         215.000
  20683801.117   -24894581.79949 -19378988.80647  20683801.312    20683808.277
       242.000         208.000
  24962602.985    -1460380.60849  -1121068.02745  24962601.820    24962615.074
       209.000         147.000
  21864482.521   -13807947.69149 -10737509.54947  21864482.194    21864490.972
       236.000         196.000
  22837056.282   -14238307.35649 -11079265.48646  22837056.295    22837064.904
       225.000         176.000
  21102663.239   -20343499.80549 -15836084.99647  21102662.641    21102671.089
       239.000         202.000
  24290719.583    -3140270.66849  -2436379.05345  24290720.094    24290729.188
       212.000         144.000
 03  1 13  0 10 30.0000000  0  7G 5G30G17G24G 6G10G 4
  20586714.571   -25109415.25949 -19548552.66548  20586714.094    20586721.781
       246.000         215.000
  20676415.701   -24933392.06549 -19409230.53247  20676416.015    20676422.972
       242.000         208.000
  24945869.896    -1548312.54249  -1189586.10945  24945868.635    24945883.169
       209.000         147.000
  21877881.496   -13737535.53249 -10682642.95247  21877881.328    21877889.821
       237.000         195.000
  22823933.183   -14307269.64049 -11133002.25246  22823932.880    22823942.079
       224.000         177.000
  21094134.449   -20388318.65049 -15871008.71847  21094133.815    21094142.113
       240.000         202.000
  24309251.702    -3042884.43949  -2360493.68745  24309250.476    24309262.461
       208.000         143.000
 03  1 13  0 11  0.0000000  0  7G 5G30G17G24G 6G10G 4
  20594849.757   -25066664.57749 -19515240.45048  20594849.352    20594856.825
       246.000         215.000
  20669131.124   -24971672.59449 -19439059.47847  20669131.478    20669138.571
       242.000         209.000
  24929162.397    -1636110.04249  -1257999.46545  24929160.811    24929175.017
       210.000         148.000
  21891313.316   -13666950.92849 -10627641.98047  21891313.229    21891322.171
       237.000         195.000
  22810818.781   -14376186.02849 -11186703.23646  22810817.979    22810828.334
       224.000         177.000
  21085713.896   -20432568.88049 -15905489.36147  21085713.095    21085721.459
       240.000         202.000
  24327780.328    -2945515.10849  -2284621.53945  24327780.528    24327789.878
       212.000         143.000
 03  1 13  0 11 30.0000000  0  7G 5G30G17G24G 6G10G 4
  20603082.896   -25023399.10749 -19481527.10448  20603082.523    20603090.128
       246.000         215.000
  20661947.744   -25009421.31749 -19468474.03147  20661948.121    20661955.053
       243.000         209.000
  24912480.730    -1723771.53149  -1326306.83945  24912479.699    24912493.665
       209.000         149.000
  21904777.555   -13596195.77349 -10572508.11147  21904777.418    21904786.255
       237.000         195.000
  22797713.291   -14445055.51449 -11240367.67546  22797712.822    22797722.007
       226.000         177.000
  21077402.016   -20476248.02849 -15939525.01147  21077401.379    21077409.719
       240.000         203.000
  24346305.701    -2848163.67149  -2208763.28945  24346305.873    24346315.020
       207.000         143.000
 03  1 13  0 12  0.0000000  0  7G 5G30G17G24G 6G10G 4
  20611413.645   -24979620.76149 -19447414.11748  20611413.365    20611420.949
       246.000         215.000
  20654865.727   -25046637.41449 -19497473.55147  20654866.184    20654873.010
       243.000         209.000
  24895824.908    -1811297.08549  -1394508.29745  24895823.650    24895837.648
       208.000         149.000
  21918273.764   -13525272.92949 -10517243.57847  21918273.745    21918282.666
       237.000         195.000
  22784616.671   -14513878.50149 -11293995.89246  22784616.478    22784624.753
       226.000         178.000
  21069198.925   -20519355.31449 -15973115.05247  21069198.218    21069206.398
       239.000         203.000
  24364827.134    -2750832.78749  -2132921.03045  24364826.212    24364839.263
       208.000         143.000
 03  1 13  0 12 30.0000000  0  7G 5G30G17G24G 6G10G 4
  20619841.928   -24935329.90749 -19412901.76748  20619841.611    20619849.228
       246.000         215.000
  20647885.585   -25083318.46449 -19526056.15447  20647886.026    20647892.665
       243.000         209.000
  24879195.349    -1898684.96349  -1462602.48145  24879195.212    24879207.820
       208.000         149.000
  21931801.651   -13454183.51049 -10461849.24747  21931801.820    21931810.473
       237.000         195.000
  22771529.135   -14582653.58349 -11347586.76446  22771528.799    22771537.303
       225.000         178.000
  21061105.124   -20561888.03249 -16006257.37247  21061104.241    21061112.773
       239.000         202.000
  24383344.476    -2653522.97649  -2057095.23045  24383344.902    24383355.397
       210.000         142.000
 03  1 13  0 13  0.0000000  0  7G 5G30G17G24G 6G10G 4
  20628367.396   -24890528.18149 -19377991.33848  20628366.929    20628374.599
       245.000         215.000
  20641007.427   -25119463.47949 -19554221.06347  20641007.888    20641014.569
       243.000         209.000
  24862592.000    -1985935.08749  -1530589.33445  24862590.787    24862603.699
       208.000         149.000
  21945360.795   -13382930.23749 -10406327.23047  21945361.013    21945369.437
       237.000         195.000
  22758450.666   -14651380.62949 -11401140.22146  22758450.563    22758458.698
       225.000         178.000
  21053120.911   -20603844.91449 -16038950.98947  21053120.228    21053128.677
       239.000         202.000
  24401857.539    -2556236.32849  -1981287.45645  24401856.786    24401867.361
       208.000         143.000
 03  1 13  0 13 30.0000000  0  7G 5G30G17G24G 6G10G 4
  20636989.854   -24845216.84149 -19342683.81048  20636989.410    20636996.936
       245.000         214.000
  20634231.536   -25155070.94649 -19581967.10647  20634231.799    20634238.685
       243.000         209.000
  24846015.060    -2073046.47549  -1598468.08645  24846014.242    24846027.565
       207.000         149.000
  21958950.798   -13311514.66349 -10350678.75047  21958950.785    21958959.512
       237.000         195.000
  22745381.496   -14720059.08549 -11454655.79146  22745381.110    22745390.409
       226.000         178.000
  21045246.662   -20645224.16749 -16071194.51447  21045245.909    21045254.295
       240.000         203.000
  24420365.804    -2458974.31849  -1905498.87945  24420367.321    24420377.645
       209.000         145.000
 03  1 13  0 14  0.0000000  0  7G 5G30G17G24G 6G10G 4
  20645709.116   -24799396.81049 -19306979.89848  20645708.693    20645716.524
       245.000         214.000
  20627558.238   -25190139.04149 -19609292.85947  20627558.538    20627565.261
       243.000         209.000
  24829464.588    -2160018.79149  -1666238.46845  24829463.810    24829476.146
       208.000         149.000
  21972571.273   -13239938.81549 -10294905.37447  21972571.225    21972579.787
       237.000         195.000
  22732321.713   -14788688.23449 -11508132.96146  22732321.012    22732329.620
       225.000         178.000
  21037482.667   -20686024.10249 -16102986.61747  21037482.034    21037490.412
       240.000         203.000
  24438869.295    -2361738.16149  -1829730.42845  24438870.542    24438880.081
       207.000         144.000
 03  1 13  0 14 30.0000000  0  7G 5G30G17G24G 6G10G 4
  20654524.857   -24753069.56049 -19270880.75648  20654524.330    20654532.087
       245.000         214.000
  20620987.846   -25224666.32749 -19636197.20547  20620987.897    20620995.037
       243.000         209.000
  24812940.885    -2246850.40649  -1733899.22345  24812939.310    24812952.860
       206.000         149.000
  21986221.708   -13168205.17249 -10239009.04247  21986221.496    21986230.181
       237.000         194.000
  22719271.434   -14857267.72649 -11561571.43146  22719271.196    22719279.868
       227.000         179.000
  21029829.262   -20726242.95049 -16134325.92947  21029828.573    21029837.041
       240.000         203.000
  24457367.566    -2264529.45349  -1753983.42445  24457367.437    24457376.022
       211.000         142.000
 03  1 13  0 15  0.0000000  0  7G 5G30G17G24G 6G10G 4
  20663436.917   -24706236.42349 -19234387.41548  20663436.561    20663444.246
       245.000         214.000
  20614520.630   -25258651.47749 -19662679.10247  20614520.804    20614527.598
       243.000         209.000
  24796443.941    -2333541.18149  -1801450.24345  24796442.720    24796455.921
       207.000         147.000
  21999901.887   -13096315.38349 -10182991.03847  21999901.655    21999910.506
       236.000         194.000
  22706230.687   -14925797.16049 -11614970.90446  22706229.684    22706238.869
       226.000         179.000
  21022286.697   -20765879.37149 -16165211.40347  21022286.094    21022293.957
       240.000         203.000
  24475860.192    -2167349.88149  -1678259.09745  24475861.394    24475870.752
       213.000         143.000
 03  1 13  0 15 30.0000000  0  8G 5G30G17G23G24G 6G10G 4
  20672445.116   -24658898.12249 -19197500.43948  20672444.844    20672452.400
       246.000         215.000
  20608156.993   -25292092.31949 -19688736.86547  20608157.320    20608163.985
       243.000         209.000
  24779974.163    -2420089.67649  -1868890.39045  24779972.902    24779985.761
       204.000         146.000
                   -836802.529 9    450638.829 1
       204.000
  22013611.467   -13024270.92749 -10126852.50947  22013611.644    22013619.997
       236.000         194.000
  22693199.614   -14994275.13849 -11668330.27246  22693199.415    22693208.452
       225.000         179.000
  21014855.367   -20804931.16249 -16195641.31447  21014854.629    21014862.646
       240.000         203.000
  24494347.236    -2070200.14849  -1602557.95745  24494346.267    24494359.959
       209.000         142.000
 03  1 13  0 16  0.0000000  0  8G 5G30G17G23G24G 6G10G 4
  20681549.315   -24611055.41849 -19160220.41748  20681548.972    20681556.637
       245.000         215.000
  20601897.269   -25324987.11249 -19714369.13847  20601897.533    20601904.385
       243.000         209.000
  24763531.632    -2506494.59049  -1936218.65245  24763530.694    24763543.076
       204.000         144.000
                   -943134.05849   -715455.36243
       205.000          74.000
  22027350.201   -12952073.43549 -10070594.73647  22027350.173    22027358.761
       235.000         193.000
  22680178.589   -15062700.67349 -11721648.79046  22680178.439    22680186.853
       226.000         180.000
  21007535.636   -20843396.13849 -16225613.97347  21007534.477    21007543.062
       240.000         203.000
  24512828.335    -1973081.37749  -1526880.98345  24512827.633    24512835.996
       206.000         141.000
 03  1 13  0 16 30.0000000  0  8G 5G30G17G23G24G 6G10G 4
  20690749.057   -24562710.33749 -19122548.93948  20690748.643    20690756.556
       245.000         214.000
  20595741.634   -25357335.18649 -19739575.39247  20595742.104    20595748.688
       243.000         210.000
  24747116.468    -2592755.82249  -2003434.96545  24747115.948    24747128.406
       202.000         143.000
                  -1049435.52849   -798287.69744                  24224483.777
       207.000         103.000
  22041117.574   -12879725.49349 -10014219.73147  22041117.842    22041126.232
       235.000         193.000
  22667167.584   -15131073.89749 -11774926.53346  22667167.237    22667175.536
       227.000         180.000
  21000327.711   -20881273.59749 -16255128.82247  21000326.896    21000335.112
       240.000         203.000
  24531303.087    -1875995.78349  -1451229.88945  24531303.392    24531313.030
       207.000         142.000
 03  1 13  0 17  0.0000000  0  8G 5G30G17G23G24G 6G10G 4
  20700044.161   -24513864.13749 -19084486.97348  20700043.618    20700051.395
       244.000         214.000
  20589690.370   -25389134.83049 -19764354.29847  20589690.644    20589697.348
       243.000         210.000
  24730728.753    -2678872.98449  -2070539.00345  24730728.303    24730740.172
       201.000         141.000
  24204251.576    -1155704.20249   -881093.96245  24204250.776    24204266.530
       208.000         138.000
  22054913.186   -12807229.01949  -9957728.98047  22054913.181    22054921.924
       235.000         192.000
  22654166.579   -15199394.14149 -11828163.00246  22654166.587    22654175.195
       226.000         179.000
  20993231.924   -20918561.87749 -16284184.57047  20993231.109    20993239.490
       240.000         203.000
  24549771.296    -1778944.50749  -1375605.49345  24549772.496    24549782.197
       208.000         142.000
 03  1 13  0 17 30.0000000  0  8G 5G30G17G23G24G 6G10G 4
  20709434.239   -24464518.90649 -19046036.15648  20709433.777    20709441.653
       244.000         213.000
  20583743.550   -25420385.44149 -19788705.38747  20583743.811    20583750.558
       243.000         210.000
  24714368.482    -2764845.77749  -2137530.55445  24714367.369    24714379.622
       199.000         139.000
  24184036.172    -1261938.01349   -963873.19645  24184035.501    24184049.460
       208.000         144.000
  22068736.588   -12734586.39849  -9901124.35647  22068736.791    22068744.910
       234.000         192.000
  22641175.570   -15267661.50149 -11881358.25446  22641175.770    22641184.362
       227.000         180.000
  20986248.489   -20955259.95449 -16312780.42447  20986247.923    20986255.863
       240.000         204.000
  24568232.601    -1681929.82449  -1300009.65945  24568233.746    24568239.971
       210.000         142.000
 03  1 13  0 18  0.0000000  0  8G 5G30G17G23G24G 6G10G 4
  20718919.052   -24414675.80849 -19007197.39448  20718918.881    20718926.492
       244.000         213.000
  20577901.458   -25451085.59349 -19812627.54947  20577901.785    20577908.449
       243.000         210.000
  24698035.861    -2850673.35149  -2204408.94145  24698034.736    24698048.426
       197.000         137.000
  24163827.301    -1368134.26349  -1046623.13045  24163827.001    24163840.488
       208.000         146.000
  22082587.427   -12661799.84049  -9844407.56347  22082587.293    22082595.761
       235.000         191.000
  22628194.899   -15335875.23549 -11934511.73246  22628194.517    22628203.032
       227.000         180.000
  20979377.630   -20991366.34749 -16340915.22147  20979376.980    20979385.300
       240.000         204.000
  24586686.729    -1584953.01049  -1224443.29945  24586687.680    24586699.555
       210.000         143.000
 03  1 13  0 18 30.0000000  0  8G 5G30G17G23G24G 6G10G 4
  20728498.532   -24364335.35549 -18967971.07948  20728498.059    20728505.923
       244.000         213.000
  20572164.557   -25481232.88249 -19836118.90647  20572164.777    20572171.721
       243.000         209.000
  24681731.150    -2936353.90649  -2271172.76745  24681731.363    24681742.802
       197.000         136.000
  24143626.448    -1474289.33149  -1129340.97845  24143625.426    24143639.607
       209.000         148.000
  22096465.480   -12588870.05649  -9787579.17247  22096465.645    22096474.093
       234.000         191.000
  22615224.694   -15404033.76349 -11987622.18146  22615224.326    22615233.414
       228.000         180.000
  20972619.798   -21026878.71049 -16368587.14047  20972618.848    20972627.151
       240.000         204.000
  24605133.567    -1488014.53349  -1148906.76245  24605133.041    24605145.462
       208.000         141.000
 03  1 13  0 19  0.0000000  0  8G 5G30G17G23G24G 6G10G 4
  20738172.447   -24313498.66549 -18928358.08948  20738172.092    20738180.058
       245.000         214.000
  20566533.213   -25510825.58049 -19859178.11847  20566533.415    20566540.345
       243.000         210.000
  24665454.634    -3021886.50449  -2337821.27045  24665453.292    24665466.486
       198.000         135.000
  24123433.993    -1580400.36349  -1212024.50145  24123432.875    24123446.567
       209.000         150.000
  22110370.529   -12515798.66749  -9730640.44247  22110370.859    22110379.169
       234.000         191.000
  22602265.205   -15472136.11949 -12040688.86346  22602264.718    22602273.354
       228.000         181.000
  20965975.381   -21061795.21249 -16395794.75447  20965974.518    20965982.853
       241.000         204.000
  24623572.950    -1391115.33749  -1073400.88445  24623571.356    24623583.252
       202.000         140.000
 03  1 13  0 19 30.0000000  0  8G 5G30G17G23G24G 6G10G 4
  20747940.633   -24262166.60049 -18888359.09448  20747940.440    20747948.101
       245.000         214.000
  20561007.756   -25539861.82049 -19881803.72247  20561008.180    20561014.840
       243.000         210.000
  24649206.515    -3107269.88749  -2404353.51045  24649203.881    24649218.491
       198.000         135.000
  24103250.623    -1686464.00449  -1294671.08545  24103249.737    24103263.339
       212.000         151.000
  22124302.216   -12442587.16649  -9673592.53347  22124301.885    22124310.998
       234.000         190.000
  22589316.622   -15540180.95849 -12093710.73746  22589316.322    22589324.798
       228.000         181.000
  20959444.788   -21096113.63649 -16422536.33747  20959444.049    20959452.114
       240.000         204.000
  24642004.594    -1294256.17949   -997926.18445  24642002.986    24642012.742
       201.000         140.000
 03  1 13  0 20  0.0000000  0  8G 5G30G17G23G24G 6G10G 4
  20757802.686   -24210341.07149 -18847975.57748  20757802.502    20757810.086
       245.000         214.000
  20555588.406   -25568340.64149 -19903994.97747  20555588.832    20555595.692
       244.000         210.000
  24632986.787    -3192503.85249  -2470769.32645  24632986.728    24632998.583
       199.000         136.000
  24083076.610    -1792478.12849  -1377279.09445  24083075.684    24083088.565
       212.000         153.000
  22138260.146   -12369237.75149  -9616437.15647  22138259.832    22138269.047
       233.000         190.000
  22576379.099   -15608168.17249 -12146687.70546  22576379.108    22576386.820
       229.000         182.000
  20953028.102   -21129833.33849 -16448811.38247  20953027.441    20953035.393
       240.000         204.000
  24660428.234    -1197438.75149   -922484.03645  24660427.601    24660436.011
       200.000         139.000
 03  1 13  0 20 30.0000000  0  8G 5G30G17G23G24G 6G10G 4
  20767758.458   -24158023.32149 -18807208.51148  20767758.040    20767765.849
       244.000         213.000
  20550275.322   -25596260.72149 -19925750.84947  20550275.520    20550282.602
       243.000         210.000
  24616795.773    -3277587.29749  -2537067.84145  24616795.027    24616807.325
       201.000         136.000
  24062912.463    -1898439.87849  -1459846.28445  24062911.193    24062924.624
       213.000         153.000
  22152243.952   -12295752.23349  -9559175.72847  22152243.711    22152252.729
       233.000         189.000
  22563452.622   -15676096.99049 -12199619.18046  22563452.567    22563460.790
       229.000         182.000
  20946725.697   -21162952.42049 -16474618.41247  20946724.904    20946732.959
       241.000         204.000
  24678843.576    -1100664.53349   -847075.55645  24678842.683    24678854.178
       208.000         140.000
 03  1 13  0 21  0.0000000  0  8G 5G30G17G23G24G 6G10G 4
  20777807.535   -24105214.89949 -18766059.11148  20777807.263    20777814.949
       244.000         213.000
  20545068.837   -25623620.84049 -19947070.38747  20545069.145    20545076.067
       243.000         210.000
  24600633.599    -3362519.48349  -2603248.49045  24600632.377    24600644.816
       204.000         137.000
  24042758.763    -2004346.73349  -1542370.71045  24042757.465    24042770.821
       213.000         154.000
  22166253.345   -12222132.25949  -9501809.53347  22166253.042    22166262.323
       233.000         189.000
  22550537.316   -15743966.86149 -12252504.71046  22550536.608    22550545.423
       230.000         182.000
  20940537.795   -21195469.82449 -16499956.60447  20940537.008    20940545.189
       241.000         204.000
  24697250.664    -1003934.90049   -771701.73845  24697250.899    24697264.048
       207.000         139.000
 03  1 13  0 21 30.0000000  0  8G 5G30G17G23G24G 6G10G 4
  20787949.714   -24051917.43849 -18724528.64048  20787949.392    20787957.037
       244.000         213.000
  20539969.093   -25650419.92449 -19967952.76247  20539969.465    20539976.274
       243.000         210.000
  24584500.139    -3447300.61949  -2669311.43045  24584499.015    24584510.832
       206.000         138.000
  24022616.086    -2110196.15149  -1624850.38645  24022614.740    24022628.617
       212.000         155.000
  22180287.867   -12148380.07249  -9444340.32047  22180287.796    22180296.190
       233.000         189.000
  22537633.461   -15811777.05649 -12305343.74646  22537633.511    22537641.625
       229.000         183.000
  20934464.633   -21227384.18749 -16524824.89547  20934463.962    20934471.928
       241.000         204.000
  24715649.081     -907251.25849   -696363.78745  24715649.432    24715661.481
       203.000         139.000
 03  1 13  0 22  0.0000000  0  8G 5G30G17G23G24G 6G10G 4
  20798184.656   -23998132.57549 -18682618.36948  20798184.247    20798192.219
       244.000         213.000
  20534976.380   -25676656.71249 -19988396.98047  20534976.781    20534983.387
       243.000         210.000
  24568395.638    -3531929.04849  -2735255.40145  24568394.524    24568407.002
       206.000         139.000
  24002484.792    -2215985.39149  -1707283.18645  24002483.496    24002496.390
       212.000         155.000
  22194347.226   -12074497.56049  -9386769.54747  22194347.103    22194356.191
       233.000         189.000
  22524741.045   -15879526.88349 -12358135.73546  22524740.667    22524749.175
       230.000         184.000
  20928506.446   -21258694.47449 -16549222.47347  20928505.767    20928513.733
       241.000         205.000
  24734038.276     -810614.77549   -621062.59645  24734037.502    24734048.572
       202.000         136.000
 03  1 13  0 22 30.0000000  0  8G 5G30G17G23G24G 6G10G 4
  20808512.076   -23943861.55249 -18640329.27448  20808511.797    20808519.676
       244.000         213.000
  20530090.929   -25702329.86749 -20008402.00547  20530091.304    20530098.121
       243.000         210.000
  24552320.352    -3616404.60249  -2801080.24345  24552319.353    24552332.279
       207.000         140.000
  23982365.419    -2321711.83849  -1789667.06645  23982364.275    23982377.165
       214.000         155.000
  22208431.069   -12000486.52049  -9329098.62647  22208431.533    22208439.929
       232.000         188.000
  22511860.191   -15947215.61349 -12410880.11246  22511859.844    22511868.879
       229.000         184.000
  20922663.434   -21289399.45249 -16573148.38247  20922662.752    20922670.788
       241.000         205.000
  24752418.358     -714026.83449   -545799.23445  24752417.478    24752427.377
       203.000         136.000
 03  1 13  0 23  0.0000000  0  8G 5G30G17G23G24G 6G10G 4
  20818931.813   -23889105.61349 -18597662.32348  20818931.534    20818939.123
       245.000         213.000
  20525313.013   -25727438.06549 -20027966.80347  20525313.421    20525319.979
       244.000         211.000
  24536274.241    -3700726.35949  -2866785.25345  24536273.351    24536285.590
       207.000         142.000
  23962258.602    -2427372.73149  -1871999.88845  23962257.195    23962270.116
       212.000         156.000
  22222539.071   -11926348.55949  -9271328.80147  22222539.226    22222547.709
       232.000         188.000
  22498991.123   -16014842.38549 -12463576.21846  22498990.983    22498999.363
       230.000         184.000
  20916935.948   -21319497.46149 -16596601.32947  20916935.247    20916943.393
       240.000         205.000
  24770788.932     -617488.52749   -470574.55745  24770787.920    24770800.284
       207.000         137.000
 03  1 13  0 23 30.0000000  0  8G 5G30G17G23G24G 6G10G 4
  20829443.546   -23833866.19849 -18554618.64047  20829443.097    20829451.027
       245.000         212.000
  20520642.824   -25751980.08849 -20047090.43147  20520643.164    20520649.805
       244.000         211.000
  24520257.482    -3784893.66949  -2932369.90745  24520256.370    24520268.459
       209.000         142.000
  23942164.723    -2532965.28449  -1954279.47045  23942163.545    23942176.683
       214.000         156.000
  22236670.928   -11852085.21649  -9213461.27447  22236670.753    22236679.426
       232.000         188.000
  22486134.001   -16082406.57649 -12516223.55246  22486134.143    22486141.718
       230.000         184.000
  20911324.210   -21348987.19449 -16619580.29447  20911323.462    20911331.740
       241.000         205.000
  24789149.829     -521001.08849   -395389.46545  24789148.620    24789160.635
       205.000         137.000
 03  1 13  0 24  0.0000000  0  8G 5G30G17G23G24G 6G10G 4
  20840046.998   -23778144.68649 -18511199.29347  20840046.606    20840054.345
       245.000         212.000
  20516080.667   -25775954.28249 -20065771.59147  20516080.863    20516087.635
       244.000         211.000
  24504270.395    -3868905.24949  -2997833.23045  24504269.157    24504281.350
       212.000         144.000
  23922084.416    -2638486.29149  -2036503.32045  23922083.206    23922095.988
       212.000         155.000
  22250826.360   -11777698.01549  -9155497.24247  22250826.204    22250835.179
       232.000         188.000
  22473289.099   -16149906.89049 -12568821.11746  22473288.786    22473297.386
       229.000         184.000
  20905828.578   -21377867.02749 -16642084.01647  20905827.877    20905836.055
       241.000         206.000
  24807500.851     -424565.06549   -320244.47645  24807499.366    24807511.042
       205.000         135.000
 03  1 13  0 24 30.0000000  0  7G 5G30G17G23G24G 6G10
  20850741.830   -23721942.94749 -18467405.74647  20850741.762    20850749.246
       245.000         212.000
  20511626.719   -25799359.86049 -20084009.67547  20511627.146    20511633.707
       243.000         211.000
  24488313.149    -3952760.54049  -3063174.76845  24488312.194    24488324.577
       210.000         145.000
  23902018.290    -2743933.59649  -2118669.75545  23902017.348    23902029.906
       210.000         155.000
  22265004.866   -11703189.40949  -9097438.61046  22265004.738    22265013.509
       232.000         187.000
  22460456.361   -16217342.97849 -12621368.63646  22460455.810    22460464.443
       230.000         185.000
  20900449.106   -21406136.17949 -16664111.88147  20900448.251    20900456.317
       241.000         206.000
 03  1 13  0 25  0.0000000  0  7G 5G30G17G23G24G 6G10
  20861527.886   -23665262.00149 -18423238.78247  20861527.605    20861535.166
       245.000         212.000
  20507281.252   -25822195.28449 -20101803.47947  20507281.504    20507288.250
       243.000         211.000
  24472385.616    -4036458.98149  -3128394.09145  24472384.821    24472396.813
       210.000         146.000
  23881966.837    -2849303.89049  -2200776.19545  23881965.789    23881978.084
       213.000         155.000
  22279206.291   -11628560.43049  -9039286.17146  22279206.536    22279215.157
       232.000         187.000
  22447636.107   -16284713.45349 -12673865.02646  22447635.905    22447644.195
       230.000         185.000
  20895186.118   -21433793.05749 -16685662.64647  20895185.454    20895193.366
       240.000         205.000
 03  1 13  0 25 30.0000000  0  7G 5G30G17G23G24G 6G10
  20872404.664   -23608104.25649 -18378700.28947  20872404.255    20872412.012
       245.000         212.000
  20503044.343   -25844460.25749 -20119152.77847  20503044.658    20503051.210
       243.000         210.000
  24456488.050    -4120000.31849  -3193490.98645  24456486.707    24456498.461
       212.000         147.000
  23861930.293    -2954595.26849  -2282821.15045  23861929.100    23861941.481
       210.000         155.000
  22293430.111   -11553813.80449  -8981042.06446  22293429.710    22293438.809
       231.000         187.000
  22434828.353   -16352018.36149 -12726310.32646  22434827.842    22434836.795
       231.000         185.000
  20890039.776   -21460837.11749 -16706735.89247  20890039.097    20890047.038
       240.000         205.000
 03  1 13  0 26  0.0000000  0  7G 5G30G17G23G24G 6G10
  20883371.845   -23550471.32849 -18333791.52947  20883371.563    20883379.337
       244.000         212.000
  20498916.222   -25866153.48849 -20136056.56947  20498916.695    20498923.256
       243.000         210.000
  24440620.508    -4203383.82949  -3258464.90545  24440619.411    24440631.348
       213.000         147.000
  23841909.268    -3059804.87949  -2364802.39945  23841908.001    23841920.234
       210.000         154.000
  22307676.010   -11478951.13949  -8922707.53646  22307676.177    22307684.872
       232.000         187.000
  22422033.310   -16419256.71549 -12778703.77346  22422032.880    22422041.393
       231.000         186.000
  20885010.191   -21487267.36649 -16727330.84747  20885009.449    20885017.710
       241.000         205.000
 03  1 13  0 26 30.0000000  0  7G 5G30G17G23G24G 6G10
  20894429.219   -23492364.57749 -18288513.55647  20894428.808    20894436.757
       244.000         212.000
  20494897.148   -25887273.75449 -20152513.88747  20494897.288    20494904.305
       243.000         210.000
  24424783.125    -4286608.75449  -3323315.25345  24424781.975    24424794.051
       212.000         148.000
  23821904.497    -3164929.87749  -2446717.71945  23821903.359    23821916.309
       211.000         153.000
  22321943.685   -11403974.03049  -8864283.82746  22321943.840    22321952.093
       233.000         186.000
  22409251.022   -16486427.63549 -12831044.66946  22409251.018    22409259.287
       230.000         186.000
  20880097.723   -21513082.23549 -16747446.27947  20880096.900    20880105.107
       241.000         206.000
 03  1 13  0 27  0.0000000  0  7G 5G30G17G23G24G 6G10
  20905576.392   -23433785.79449 -18242867.77047  20905575.961    20905583.833
       244.000         212.000
  20490987.264   -25907820.09049 -20168523.98947  20490987.455    20490994.304
       243.000         210.000
  24408976.009    -4369674.67149  -3388041.68645  24408974.908    24408986.561
       212.000         148.000
  23801916.287    -3269967.63449  -2528565.06245  23801914.907    23801927.294
       211.000         153.000
  22336232.820   -11328884.40549  -8805772.44346  22336233.118    22336241.735
       233.000         186.000
  22396481.715   -16553530.42449 -12883332.48246  22396481.449    22396489.570
       231.000         186.000
  20875302.460   -21538281.05849 -16767081.67747  20875301.689    20875309.856
       241.000         206.000
 03  1 13  0 27 30.0000000  0  7G 5G30G17G23G24G 6G10
  20916813.123   -23374736.37249 -18196855.25347  20916812.752    20916820.613
       245.000         212.000
  20487186.871   -25927791.05949 -20184085.75647  20487187.076    20487193.855
       244.000         211.000
  24393199.287    -4452580.43949  -3452643.34745  24393198.060    24393210.198
       211.000         149.000
  23781945.169    -3374915.09849  -2610342.05345  23781944.143    23781956.222
       210.000         151.000
  22350543.132   -11253683.58149  -8747174.41746  22350543.141    22350551.474
       233.000         186.000
  22383725.616   -16620563.91649 -12935566.29646  22383725.369    22383733.202
       231.000         186.000
  20870624.798   -21562862.29549 -16786235.84547  20870624.118    20870632.204
       241.000         206.000
 03  1 13  0 28  0.0000000  0  7G 5G30G17G23G24G 6G10
  20928139.123   -23315217.85449 -18150477.20747  20928138.761    20928146.849
       244.000         211.000
  20483496.151   -25947185.85149 -20199198.55547  20483496.660    20483503.239
       244.000         211.000
  24377453.253    -4535325.42949  -3517119.72445  24377452.661    24377463.303
       212.000         149.000
  23761991.783    -3479769.52749  -2692046.54245  23761990.256    23762002.576
       207.000         150.000
  22364874.166   -11178373.39549  -8688491.16646  22364874.000    22364882.997
       232.000         186.000
  22370982.859   -16687527.26449 -12987745.46646  22370982.571    22370990.684
       231.000         186.000
  20866064.795   -21586825.17549 -16804908.17747  20866064.154    20866071.954
       241.000         206.000
 03  1 13  0 28 30.0000000  0  7G 5G30G17G23G24G 6G10
  20939554.108   -23255231.81949 -18103734.85947  20939553.719    20939561.401
       244.000         211.000
  20479915.355   -25966003.16049 -20213861.36347  20479915.639    20479922.366
       244.000         211.000
  24361737.937    -4617909.09349  -3581470.40045  24361737.420    24361747.613
       212.000         149.000
  23742056.709    -3584527.99049  -2773676.24545  23742055.557    23742066.978
       207.000         148.000
  22379225.714   -11102955.35849  -8629723.87746  22379225.395    22379234.561
       232.000         185.000
  22358253.654   -16754419.37049 -13039869.12046  22358253.953    22358261.286
       232.000         187.000
  20861622.758   -21610168.25149 -16823097.54447  20861621.830    20861630.094
       241.000         206.000
 03  1 13  0 29  0.0000000  0  7G 5G30G17G23G24G 6G10
  20951057.601   -23194780.65749 -18056630.06947  20951057.265    20951064.940
       244.000         210.000
  20476444.491   -25984242.58549 -20228073.86947  20476444.792    20476451.330
       244.000         212.000
  24346053.451    -4700330.73249  -3645694.82945  24346052.489    24346063.655
       210.000         150.000
  23722140.229    -3689188.39649  -2855229.53345  23722139.355    23722150.977
       207.000         148.000
  22393597.367   -11027431.64149  -8570874.23246  22393597.235    22393605.942
       232.000         185.000
  22345538.110   -16821239.89649 -13091936.99846  22345538.226    22345545.932
       232.000         187.000
  20857298.712   -21632891.14049 -16840803.65047  20857297.833    20857305.959
       241.000         206.000
 03  1 13  0 29 30.0000000  0  7G 5G30G17G23G24G 6G10
  20962649.346   -23133865.55049 -18009163.76847  20962649.040    20962656.742
       244.000         210.000
  20473083.883   -26001902.67449 -20241834.95147  20473084.029    20473090.827
       244.000         211.000
  24330399.963    -4782589.67649  -3709792.50645  24330398.795    24330410.232
       210.000         150.000
  23702243.120    -3793747.69349  -2936704.04945  23702241.829    23702253.935
       208.000         148.000
  22407988.839   -10951803.67649  -8511943.36346  22407989.282    22407997.491
       232.000         185.000
  22332836.393   -16887987.66349 -13143948.18247  22332835.869    22332844.139
       231.000         188.000
  20853092.893   -21654992.58049 -16858025.51447  20853092.135    20853100.110
       241.000         206.000
 03  1 13  0 30  0.0000000  0  7G 5G30G17G23G24G 6G10
  20974329.107   -23072488.16049 -17961337.24547  20974328.654    20974336.790
       244.000         210.000
  20469833.657   -26018982.47649 -20255143.86147  20469833.949    20469840.615
       243.000         211.000
  24314777.514    -4864685.20149  -3773762.85145  24314776.520    24314787.854
       210.000         150.000
  23682365.752    -3898202.99749  -3018097.51045  23682365.080    23682376.765
       209.000         149.000
  22422399.979   -10876072.81249  -8452932.30946  22422400.335    22422409.283
       231.000         184.000
  22320148.657   -16954661.74649 -13195901.95147  22320148.473    22320156.202
       232.000         188.000
  20849005.506   -21676471.69949 -16874762.45047  20849004.674    20849012.948
       241.000         206.000
 03  1 13  0 30 30.0000000  0  7G 5G30G17G23G24G 6G10
  20986096.397   -23010650.62649 -17913152.17447  20986096.048    20986104.070
       244.000         211.000
  20466693.969   -26035481.52549 -20268000.24047  20466694.252    20466700.601
       244.000         211.000
  24299186.156    -4946617.18349  -3837605.77645  24299185.064    24299197.221
       209.000         150.000
  23662508.524    -4002551.85649  -3099408.04345  23662507.577    23662519.311
       210.000         150.000
  22436830.340   -10800241.10149  -8393842.67846  22436830.366    22436839.497
       232.000         184.000
  22307475.031   -17021261.66949 -13247797.93047  22307474.777    22307482.985
       231.000         188.000
  20845036.636   -21697327.99049 -16891014.07047  20845035.932    20845043.873
       241.000         206.000
 03  1 13  0 31  0.0000000  0  7G 5G30G17G23G24G 6G10
  20997950.943   -22948354.60749 -17864609.84147  20997950.621    20997958.515
       244.000         211.000
  20463664.940   -26051398.81649 -20280403.30447  20463665.269    20463671.955
       243.000         211.000
  24283626.169    -5028384.64449  -3901320.51445  24283624.906    24283636.404
       208.000         150.000
  23642672.161    -4106791.45949  -3180633.44545  23642671.119    23642682.972
       213.000         151.000
  22451279.537   -10724310.29149  -8334675.82446  22451279.343    22451288.620
       232.000         184.000
  22294815.744   -17087786.32349 -13299635.25547  22294815.410    22294823.630
       231.000         188.000
  20841186.491   -21717560.40049 -16906779.54647  20841185.787    20841193.626
       241.000         207.000
 03  1 13  0 31 30.0000000  0  7G 5G30G17G23G24G 6G10
  21009892.369   -22885602.03249 -17815711.75247  21009891.865    21009899.988
       244.000         210.000
  20460746.792   -26066733.54049 -20292352.41847  20460747.269    20460753.785
       244.000         211.000
  24268097.547    -5109987.47649  -3964906.98645  24268096.496    24268107.641
       209.000         150.000
  23622857.188    -4210919.15949  -3261771.65745  23622855.947    23622867.768
       211.000         151.000
  22465747.261   -10648282.05549  -8275433.05746  22465747.177    22465756.161
       231.000         184.000
  22282170.890   -17154234.92749 -13351413.31847  22282170.464    22282178.975
       229.000         188.000
  20837455.251   -21737168.11449 -16922058.24847  20837454.540    20837462.423
       241.000         206.000
 03  1 13  0 32  0.0000000  0  7G 5G30G17G23G24G 6G10
  21021920.411   -22822394.37449 -17766459.05047  21021920.108    21021927.779
       244.000         210.000
  20457939.719   -26081484.66549 -20303846.77847  20457940.073    20457946.767
       244.000         211.000
  24252600.450    -5191424.45549  -4028364.22745  24252599.805    24252611.734
       209.000         150.000
  23603063.933    -4314931.93249  -3342820.33645  23603062.900    23603075.270
       214.000         152.000
  22480233.226   -10572157.80549  -8216115.46046  22480233.208    22480241.636
       231.000         184.000
  22269540.704   -17220606.36149 -13403131.24647  22269540.748    22269548.658
       231.000         188.000
  20833843.020   -21756150.34049 -16936849.55247  20833842.221    20833850.263
       241.000         206.000
 03  1 13  0 32 30.0000000  0  7G 5G30G17G23G24G 6G10
  21034034.678   -22758733.44549 -17716853.15047  21034034.211    21034042.286
       243.000         209.000
  20455243.847   -26095651.35649 -20314885.73947  20455244.069    20455250.968
       243.000         211.000
  24237134.994    -5272695.40949  -4091692.11745  24237135.340    24237145.523
       211.000         150.000
  23583293.178    -4418826.99749  -3423777.28945  23583292.247    23583304.096
       215.000         153.000
  22494737.126   -10495939.13149  -8156724.30446  22494737.257    22494746.214
       231.000         184.000
  22256925.442   -17286899.72749 -13454788.34747  22256925.211    22256933.524
       231.000         188.000
  20830349.969   -21774506.07049 -16951152.68747  20830349.219    20830357.276
       241.000         206.000
 03  1 13  0 33  0.0000000  0  7G 5G30G17G23G24G 6G10
  21046234.897   -22694620.89749 -17666895.34147  21046234.415    21046242.429
       243.000         209.000
  20452659.381   -26109232.70149 -20325468.58147  20452659.738    20452666.398
       244.000         211.000
  24221701.404    -5353798.81449  -4154889.45245  24221699.986    24221711.655
       208.000         150.000
  23563545.311    -4522601.88949  -3504640.60345  23563544.588    23563555.759
       213.000         154.000
  22509258.752   -10419627.81249  -8097260.95846  22509258.664    22509267.663
       230.000         183.000
  22244325.237   -17353113.99049 -13506383.81247  22244325.384    22244333.055
       231.000         188.000
  20826976.300   -21792234.70349 -16964967.16747  20826975.565    20826983.621
       241.000         207.000
 03  1 13  0 33 30.0000000  0  7G 5G30G17G23G24G 6G10
  21058520.639   -22630058.79049 -17616587.23047  21058520.360    21058528.269
       243.000         209.000
  20450186.467   -26122228.06249 -20335594.81847  20450186.960    20450193.478
       244.000         211.000
  24206299.551    -5434735.33749  -4217956.77645  24206299.318    24206309.629
       208.000         149.000
  23543820.770    -4626253.95749  -3585408.21745  23543819.803    23543830.920
       214.000         156.000
  22523797.619   -10343225.49849  -8037726.69846  22523797.190    22523806.044
       230.000         183.000
  22231740.219   -17419248.54149 -13557917.15847  22231739.947    22231747.912
       232.000         189.000
  20823722.061   -21809335.72149 -16978292.60347  20823721.288    20823729.455
       241.000         207.000
 03  1 13  0 34  0.0000000  0  7G 5G30G17G23G24G 6G10
  21070891.608   -22565048.93649 -17565930.21947  21070891.176    21070899.221
       243.000         208.000
  20447825.170   -26134636.88949 -20345264.00847  20447825.735    20447832.019
       244.000         212.000
  24190929.703    -5515504.00849  -4280893.29845  24190928.988    24190939.904
       210.000         149.000
  23524120.298    -4729780.28549  -3666077.85145  23524120.021    23524130.991
       214.000         157.000
  22538353.470   -10266733.81849  -7978122.81546  22538353.373    22538361.936
       231.000         183.000
  22219170.637   -17485302.16849 -13609387.44847  22219170.249    22219178.619
       231.000         189.000
  20820587.464   -21825808.11049 -16991128.19247  20820586.928    20820594.573
       242.000         207.000
 03  1 13  0 34 30.0000000  0  7G 5G30G17G23G24G 6G10
  21083347.440   -22499593.13249 -17514925.71647  21083347.222    21083354.985
       242.000         208.000
  20445575.688   -26146458.04049 -20354475.27147  20445576.002    20445582.622
       245.000         212.000
  24175591.988    -5596103.72349  -4343698.19545  24175590.977    24175602.078
       212.000         149.000
  23504444.151    -4833178.02349  -3746647.28145  23504442.543    23504454.291
       215.000         158.000
  22552926.080   -10190154.05449  -7918450.28546  22552925.654    22552933.863
       230.000         183.000
  22206616.603   -17551273.71649 -13660793.77447  22206616.110    22206624.326
       231.000         189.000
  20817572.594   -21841651.16849 -17003473.39547  20817572.005    20817579.879
       242.000         207.000
 03  1 13  0 35  0.0000000  0  7G 5G30G17G23G24G 6G10
  21095887.872   -22433692.82449 -17463574.85047  21095887.571    21095895.460
       242.000         208.000
  20443438.246   -26157690.45849 -20363227.78347  20443438.692    20443445.140
       245.000         212.000
  24160286.493    -5676533.91249  -4406370.98545  24160286.362    24160296.789
       211.000         149.000
  23484793.070    -4936443.97249  -3827114.02445  23484792.077    23484803.595
       216.000         159.000
  22567515.311   -10113487.23349  -7858709.91346  22567515.204    22567524.213
       230.000         182.000
  22194078.418   -17617161.99249 -13712135.20847  22194077.860    22194086.039
       232.000         189.000
  20814677.684   -21856863.90549 -17015327.43747  20814676.789    20814684.725
       241.000         207.000
 03  1 13  0 35 30.0000000  0  7G 5G30G17G23G24G 6G10
  21108512.307   -22367351.14249 -17411880.05147  21108512.041    21108519.892
       242.000         208.000
  20441412.686   -26168334.72949 -20371521.99547  20441413.084    20441419.558
       245.000         212.000
  24145013.269    -5756795.05149  -4468912.04745  24145012.476    24145024.459
       211.000         149.000
  23465167.481    -5039576.63249  -3907476.90645  23465166.163    23465177.737
       215.000         159.000
  22582120.555   -10036736.42949  -7798904.11346  22582120.134    22582129.403
       229.000         182.000
  22181556.052   -17682967.31749 -13763412.00247  22181555.529    22181564.144
       232.000         189.000
  20811902.588   -21871446.89949 -17026690.77347  20811901.730    20811909.814
       241.000         207.000
 03  1 13  0 36  0.0000000  0  7G 5G30G17G23G24G 6G10
  21121220.523   -22300569.26549 -17359842.24947  21121220.184    21121228.294
       242.000         208.000
  20439499.337   -26178389.38749 -20379356.76947  20439499.599    20439506.324
       244.000         212.000
  24129772.487    -5836885.57249  -4531320.17845  24129772.706    24129783.276
       213.000         150.000
  23445567.805    -5142572.50149  -3987733.20445  23445567.022    23445577.988
       215.000         159.000
  22596741.566    -9959902.38849  -7739033.44446  22596741.072    22596750.022
       229.000         182.000
  22169049.835   -17748687.87849 -13814622.75247  22169049.446    22169057.669
       232.000         190.000
  20809247.550   -21885398.91649 -17037562.43547  20809246.828    20809254.836
       241.000         207.000
 03  1 13  0 36 30.0000000  0  7G 5G30G17G23G24G 6G10
  21134012.106   -22233349.01249 -17307462.85647  21134011.638    21134019.464
       241.000         207.000
  20437698.266   -26187853.77649 -20386731.59547  20437698.446    20437705.253
       244.000         212.000
  24114564.235    -5916805.36549  -4593595.26045  24114563.545    24114574.891
       213.000         150.000
  23425994.834    -5245428.60149  -4067880.58345  23425994.202    23426005.000
       215.000         160.000
  22611378.160    -9882986.62549  -7679099.09946  22611378.169    22611386.950
       229.000         181.000
  22156559.829   -17814322.58049 -13865766.59347  22156559.433    22156567.266
       232.000         190.000
  20806712.750   -21898719.26249 -17047941.89247  20806711.963    20806720.014
       242.000         207.000
 03  1 13  0 37  0.0000000  0  7G 5G30G17G23G24G 6G10
  21146886.641   -22165692.94249 -17254743.86347  21146886.255    21146894.190
       242.000         207.000
  20436009.551   -26196727.68749 -20393646.31147  20436009.835    20436016.495
       244.000         211.000
  24099388.455    -5996554.06649  -4655737.02345  24099387.931    24099398.405
       212.000         150.000
  23406448.723    -5348142.84749  -4147917.43145  23406447.913    23406458.899
       214.000         160.000
  22626029.862    -9805991.17149  -7619102.65746  22626029.985    22626038.827
       229.000         181.000
  22144086.276   -17879870.99749 -13916843.19147  22144085.758    22144093.993
       232.000         190.000
  20804298.141   -21911408.03749 -17057829.21147  20804297.495    20804305.491
       242.000         208.000
 03  1 13  0 37 30.0000000  0  7G 5G30G17G23G24G 6G10
  21159843.904   -22097602.27149 -17201686.22447  21159843.375    21159851.385
       242.000         208.000
  20434433.385   -26205010.16449 -20400100.16947  20434433.706    20434440.334
       244.000         212.000
  24084245.526    -6076130.51249  -4717744.56045  24084245.264    24084254.882
       212.000         150.000
  23386930.251    -5450711.83749  -4227841.08845  23386929.745    23386940.699
       213.000         160.000
  22640696.644    -9728916.98449  -7559044.86646  22640696.282    22640705.289
       228.000         181.000
  22131629.530   -17945331.45749 -13967851.26247  22131629.802    22131637.081
       233.000         191.000
  20802003.992   -21923463.91449 -17067223.37047  20802003.183    20802011.177
       242.000         208.000
 03  1 13  0 38  0.0000000  0  7G 5G30G17G23G24G 6G10
  21172883.371   -22029079.63649 -17148291.98647  21172883.058    21172891.030
       242.000         208.000
  20432969.836   -26212701.18749 -20406093.15047  20432970.239    20432976.861
       244.000         212.000
  24069135.274    -6155534.94449  -4779618.04645  24069135.035    24069145.472
       210.000         150.000
  23367439.999    -5553133.53749  -4307649.97045  23367438.619    23367449.863
       212.000         159.000
  22655377.903    -9651766.52549  -7498927.63246  22655377.928    22655387.276
       228.000         181.000
  22119189.646   -18010703.61149 -14018790.53147  22119189.284    22119197.178
       233.000         191.000
  20799830.172   -21934887.14549 -17076124.55547  20799829.418    20799837.355
       242.000         208.000
 03  1 13  0 38 30.0000000  0  7G 5G30G17G23G24G 6G10
  21186004.734   -21960126.50949 -17094562.30147  21186004.314    21186012.437
       241.000         208.000
  20431619.039   -26219799.56249 -20411624.33347  20431619.464    20431625.920
       244.000         212.000
  24054057.898    -6234766.53249  -4841356.84045  24054057.003    24054068.044
       212.000         151.000
  23347978.131    -5655404.72149  -4387341.57645  23347977.232    23347988.243
       213.000         158.000
  22670073.484    -9574540.55149  -7438751.56846  22670073.335    22670082.772
       229.000         180.000
  22106766.758   -18075985.83849 -14069659.71347  22106766.484    22106774.612
       232.000         191.000
  20797776.923   -21945676.88549 -17084532.10847  20797776.049    20797784.075
       242.000         207.000
 03  1 13  0 39  0.0000000  0  7G 5G30G17G23G24G 6G10
  21199207.695   -21890744.55649 -17040498.46847  21199207.174    21199215.458
       241.000         207.000
  20430381.132   -26226304.60349 -20416693.17647  20430381.411    20430388.195
       244.000         212.000
  24039013.547    -6313824.49949  -4902960.33145  24039012.308    24039023.434
       212.000         151.000
  23328545.615    -5757522.43949  -4466913.60445  23328544.834    23328555.322
       214.000         158.000
  22684783.241    -9497240.62049  -7378517.86746  22684782.592    22684792.091
       228.000         180.000
  22094361.227   -18141176.82449 -14120457.80447  22094361.492    22094368.733
       233.000         191.000
  20795844.361   -21955832.35449 -17092445.42947  20795843.617    20795851.519
       241.000         207.000
 03  1 13  0 39 30.0000000  0  7G 5G30G17G23G24G 6G10
  21212491.849   -21820935.87349 -16986102.11947  21212491.518    21212499.418
       241.000         207.000
  20429256.241   -26232216.03949 -20421299.46947  20429256.620    20429263.054
       245.000         212.000
  24024002.312    -6392708.73049  -4964428.43045  24024001.760    24024012.472
       209.000         152.000
  23309142.733    -5859484.04949  -4546363.98845  23309141.727    23309152.576
       216.000         159.000
  22699506.753    -9419868.13049  -7318227.63246  22699506.988    22699515.213
       229.000         180.000
  22081973.191   -18206276.01149 -14171184.37047  22081972.688    22081980.603
       232.000         192.000
  20794032.504   -21965353.59549 -17099864.54147  20794031.911    20794039.549
       242.000         208.000
 03  1 13  0 40  0.0000000  0  7G 5G30G17G23G24G 6G10
  21225856.752   -21750702.73749 -16931375.02447  21225856.595    21225864.178
       241.000         206.000
  20428244.346   -26237533.51949 -20425442.94047  20428244.850    20428251.233
       245.000         212.000
  24009024.331    -6471418.15349  -5025760.29545  24009023.289    24009034.827
       211.000         153.000
  23289770.146    -5961287.01049  -4625690.76445  23289769.168    23289780.393
       216.000         160.000
  22714243.846    -9342424.47249  -7257881.93946  22714243.946    22714252.645
       228.000         180.000
  22069602.811   -18271282.32249 -14221838.56947  22069602.322    22069610.357
       232.000         192.000
  20792341.396   -21974240.38249 -17106789.27947  20792340.752    20792348.681
       242.000         208.000
 03  1 13  0 40 30.0000000  0  7G 5G30G17G23G24G 6G10
  21239302.043   -21680047.43849 -16876318.97247  21239301.627    21239309.630
       241.000         206.000
  20427345.573   -26242256.82849 -20429123.41847  20427346.222    20427352.244
       245.000         212.000
  23994079.610    -6549952.68349  -5086955.87845  23994079.444    23994089.312
       211.000         155.000
  23270428.260    -6062928.82049  -4704891.97146  23270427.278    23270437.651
       217.000         163.000
  22728994.068    -9264911.52949  -7197482.25346  22728993.675    22729002.925
       228.000         180.000
  22057250.281   -18336194.83749 -14272419.68847  22057250.034    22057258.094
       232.000         192.000
  20790771.055   -21982492.54149 -17113219.49847  20790770.289    20790778.230
       242.000         208.000
 03  1 13  0 41  0.0000000  0  7G 5G30G17G23G24G 6G10
  21252827.292   -21608971.81749 -16820935.39847  21252826.854    21252834.797
       241.000         206.000
  20426559.910   -26246385.49349 -20432340.53847  20426560.287    20426566.692
       245.000         212.000
  23979168.279    -6628312.02249  -5148014.93845  23979167.198    23979178.464
       211.000         156.000
  23251117.448    -6164406.65549  -4783965.41746  23251116.747    23251127.271
       218.000         164.000
  22743757.205    -9187330.74049  -7137029.70546  22743757.225    22743765.701
       227.000         180.000
  22044915.800   -18401012.44349 -14322926.85247  22044915.732    22044923.676
       232.000         192.000
  20789321.567   -21990109.58949 -17119154.82847  20789320.853    20789328.767
       242.000         208.000
 03  1 13  0 41 30.0000000  0  7G 5G30G17G23G24G 6G10
  21266432.110   -21537477.94949 -16765225.91847  21266431.766    21266439.673
       240.000         205.000
  20425887.481   -26249918.87949 -20435093.80347  20425887.852    20425894.085
       244.000         212.000
  23964290.296    -6706495.62149  -5208937.04445  23964289.458    23964300.405
       215.000         157.000
  23231838.601    -6265717.63649  -4862908.85246  23231837.963    23231848.178
       220.000         165.000
  22758532.931    -9109683.60549  -7076525.45246  22758532.886    22758541.870
       228.000         180.000
  22032599.635   -18465733.94449 -14373359.12847  22032599.539    22032607.516
       233.000         192.000
  20787992.953   -21997091.19749 -17124595.00747  20787992.172    20788000.145
       242.000         208.000
 03  1 13  0 42  0.0000000  0  7G 5G30G17G23G24G 6G10
  21280116.194   -21465567.66849 -16709191.96447  21280115.972    21280123.781
       240.000         205.000
  20425328.436   -26252856.58849 -20437382.91247  20425328.739    20425335.044
       244.000         212.000
  23949445.990    -6784502.19549  -5269721.20845  23949444.964    23949455.777
       213.000         159.000
  23212591.867    -6366858.91549  -4941720.05046  23212590.898    23212601.736
       218.000         165.000
  22773321.091    -9031971.22949  -7015970.37446  22773320.838    22773330.059
       228.000         179.000
  22020302.014   -18530358.00749 -14423715.48447  22020301.782    22020309.602
       234.000         192.000
  20786785.312   -22003437.15249 -17129539.87447  20786784.399    20786792.356
       242.000         208.000
 03  1 13  0 42 30.0000000  0  7G 5G30G17G23G24G 6G10
  21293879.003   -21393243.64349 -16652835.60947  21293878.665    21293886.691
       240.000         205.000
  20424882.657   -26255198.97849 -20439208.13347  20424882.978    20424889.372
       244.000         211.000
  23934635.333    -6862332.29749  -5330367.85145  23934634.857    23934645.119
       217.000         161.000
  23193377.851    -6467828.36149  -5020397.35846  23193377.109    23193387.366
       217.000         164.000
  22788121.301    -8954195.84349  -6955366.19146  22788121.502    22788130.182
       228.000         179.000
  22008023.038   -18594884.42549 -14473995.75647  22008022.523    22008030.435
       233.000         193.000
  20785698.558   -22009147.93949 -17133989.80447  20785697.771    20785705.744
       242.000         208.000
 03  1 13  0 43  0.0000000  0  7G 5G30G17G23G24G 6G10
  21307720.224   -21320507.60349 -16596158.20847  21307719.992    21307727.826
       240.000         205.000
  20424550.328   -26256945.30649 -20440568.88847  20424550.808    20424557.169
       244.000         212.000
  23919858.297    -6939985.61249  -5390876.74845  23919857.098    23919868.561
       216.000         162.000
  23174197.059    -6568622.98949  -5098938.45746  23174196.657    23174206.412
       218.000         163.000
  22802933.291    -8876358.49049  -6894713.71646  22802933.258    22802942.407
       228.000         178.000
  21995762.926   -18659311.59049 -14524198.68447  21995762.690    21995770.519
       234.000         194.000
  20784732.787   -22014222.85649 -17137944.24847  20784732.049    20784740.013
       242.000         208.000
 03  1 13  0 43 30.0000000  0  7G 5G30G17G23G24G 6G10
  21321639.492   -21247361.51549 -16539161.28347  21321638.996    21321647.291
       240.000         205.000
  20424331.509   -26258095.10549 -20441464.81247  20424331.959    20424338.311
       244.000         212.000
  23905115.014    -7017461.24249  -5451247.18046  23905114.204    23905124.849
       217.000         163.000
  23155050.293    -6669239.58349  -5177340.83146  23155048.973    23155059.972
       218.000         163.000
  22817756.909    -8798460.13349  -6834013.70446  22817756.526    22817765.252
       227.000         178.000
  21983521.941   -18723638.09149 -14574323.16947  21983521.685    21983529.663
       235.000         194.000
  20783888.147   -22018661.23449 -17141402.69047  20783887.474    20783895.109
       241.000         208.000
 03  1 13  0 44  0.0000000  0  7G 5G30G17G23G24G 6G10
  21335636.315   -21173807.86849 -16481846.78347  21335635.977    21335644.167
       241.000         206.000
  20424226.248   -26258648.20549 -20441895.78447  20424226.672    20424233.224
       244.000         212.000
  23890405.619    -7094758.78349  -5511478.84546  23890404.887    23890416.117
       219.000         163.000
  23135937.745    -6769675.87749  -5255602.72546  23135936.904    23135946.789
       218.000         163.000
  22832591.680    -8720502.60749  -6773267.59946  22832592.085    22832600.360
       228.000         177.000
  21971300.313   -18787863.20049 -14624368.66147  21971300.345    21971308.008
       235.000         195.000
  20783164.593   -22022463.46849 -17144365.43747  20783163.865    20783171.715
       242.000         208.000
 03  1 13  0 44 30.0000000  0  7G 5G30G17G23G24G 6G10
  21349710.410   -21099848.30149 -16424215.98247  21349710.063    21349718.187
       240.000         205.000
  20424234.589   -26258604.22849 -20441861.49647  20424234.826    20424241.479
       244.000         212.000
  23875730.234    -7171877.75849  -5571571.37546  23875729.357    23875739.726
       219.000         164.000
  23116860.106    -6869928.85649  -5333721.77746  23116858.772    23116869.180
       217.000         164.000
  22847437.524    -8642487.30849  -6712476.46746  22847437.958    22847446.249
       227.000         177.000
  21959098.282   -18851985.46949 -14674334.00547  21959097.863    21959106.110
       235.000         195.000
  20782562.133   -22025629.43249 -17146832.39147  20782561.432    20782569.070
       242.000         208.000
 03  1 13  0 45  0.0000000  0  7G 5G30G17G23G24G 6G10
  21363861.234   -21025485.36149 -16366270.86147  21363861.017    21363868.917
       240.000         205.000
  20424356.558   -26257963.20649 -20441361.98347  20424356.872    20424363.436
       244.000         212.000
  23861088.946    -7248817.86749  -5631524.54046  23861088.302    23861098.320
       219.000         163.000
  23097817.789    -6969996.09449  -5411696.09746  23097817.214    23097827.249
       218.000         165.000
  22862294.024    -8564415.77249  -6651641.51846  22862294.203    22862302.602
       228.000         177.000
  21946915.913   -18916004.03449 -14724218.54547  21946915.616    21946923.465
       235.000         195.000
  20782080.699   -22028159.05949 -17148803.49447  20782080.115    20782087.973
       241.000         208.000
 03  1 13  0 45 30.0000000  0  7G 5G30G17G23G24G 6G10
  21378088.457   -20950720.87649 -16308012.85447  21378088.267    21378096.262
       240.000         204.000
  20424592.258   -26256724.56849 -20440396.79047  20424592.509    20424599.110
       245.000         212.000
  23846481.756    -7325578.44649  -5691337.81445  23846480.945    23846491.727
       220.000         162.000
  23078811.493    -7069874.54149  -5489523.30546  23078810.402    23078820.994
       218.000         166.000
  22877161.086    -8486289.05949  -6590763.57546  22877160.551    22877170.178
       227.000         177.000
  21934753.525   -18979917.48549 -14774021.17947  21934753.456    21934761.041
       235.000         195.000
  20781720.430   -22030052.07549 -17150278.53947  20781719.825    20781727.421
       242.000         208.000
 03  1 13  0 46  0.0000000  0  7G 5G30G17G23G24G 6G10
  21392391.659   -20875557.25049 -16249443.82547  21392391.396    21392399.501
       240.000         204.000
  20424941.662   -26254888.46149 -20438966.03947  20424941.947    20424948.526
       244.000         212.000
  23831908.779    -7402159.29149  -5751011.04445  23831907.854    23831918.615
       219.000         161.000
  23059841.457    -7169561.84949  -5567201.57846  23059841.334    23059851.216
       218.000         167.000
  22892038.351    -8408108.51849  -6529843.67946  22892038.172    22892046.911
       226.000         176.000
  21922611.354   -19043725.00749 -14823741.26647  21922611.142    21922618.901
       234.000         195.000
  20781481.289   -22031308.75549 -17151257.73847  20781480.620    20781488.141
       242.000         208.000
 03  1 13  0 46 30.0000000  0  7G 5G30G17G23G24G 6G10
  21406770.300   -20799997.17949 -16190565.87847  21406769.922    21406777.862
       239.000         204.000
  20425404.711   -26252454.90949 -20437069.74547  20425404.976    20425411.336
       244.000         212.000
  23817370.219    -7478559.61549  -5810543.62045  23817369.298    23817380.037
       218.000         159.000
  23040908.336    -7269055.42449  -5644728.87046  23040907.042    23040918.086
       217.000         167.000
  22906925.487    -8329876.10249  -6468883.37246  22906925.236    22906934.540
       227.000         176.000
  21910489.409   -19107425.59349 -14873378.02847  21910488.944    21910496.986
       234.000         195.000
  20781363.130   -22031929.53249 -17151741.42947  20781362.262    20781370.228
       242.000         208.000
 03  1 13  0 47  0.0000000  0  7G 5G30G17G23G24G 6G10
  21421224.004   -20724042.45049 -16131380.40747  21421223.695    21421231.792
       239.000         203.000
  20425981.528   -26249423.60149 -20434707.67247  20425981.927    20425988.165
       244.000         212.000
  23802865.941    -7554779.34649  -5869935.48245  23802865.069    23802875.163
       217.000         158.000
  23022012.616    -7368352.33049  -5722102.92746  23022012.083    23022022.045
       218.000         167.000
  22921822.295    -8251592.95349  -6407883.53646  22921821.533    22921831.618
       226.000         176.000
  21898388.163   -19171017.82549 -14922930.36247  21898388.001    21898395.555
       235.000         195.000
  20781365.983   -22031914.23649 -17151729.48047  20781365.260    20781372.975
       242.000         207.000
 03  1 13  0 47 30.0000000  0  7G 5G30G17G23G24G 6G10
  21435752.429   -20647695.05749 -16071888.96547  21435752.297    21435760.315
       240.000         203.000
  20426672.090   -26245794.35949 -20431879.67547  20426672.439    20426678.848
       244.000         211.000
  23788396.123    -7630818.00049  -5929186.25845  23788394.837    23788405.197
       218.000         157.000
  23003154.826    -7467449.88349  -5799321.65346  23003153.668    23003164.969
       218.000         167.000
  22936728.422    -8173260.44549  -6346845.22846  22936728.653    22936737.121
       226.000         175.000
  21886307.777   -19234500.37749 -14972397.22647  21886307.595    21886315.270
       234.000         196.000
  20781489.896   -22031262.69049 -17151221.74947  20781489.134    20781496.743
       241.000         207.000
 03  1 13  0 48  0.0000000  0  7G 5G30G17G23G24G 6G10
  21450355.173   -20570957.38949 -16012093.41247  21450354.619    21450362.918
       239.000         203.000
  20427476.448   -26241567.28149 -20428585.83447  20427476.842    20427483.306
       244.000         212.000
  23773960.780    -7706675.44049  -5988295.83145  23773959.590    23773970.300
       216.000         156.000
  22984335.459    -7566345.43049  -5876382.96546  22984334.676    22984344.819
       217.000         167.000
  22951643.769    -8094879.75249  -6285769.36746  22951643.148    22951653.299
       226.000         175.000
  21874248.388   -19297872.30049 -15021777.88747  21874248.173    21874255.846
       235.000         196.000
  20781734.866   -22029975.21349 -17150218.48347  20781734.125    20781741.787
       241.000         207.000
 03  1 13  0 48 30.0000000  0  7G 5G30G17G23G24G 6G10
  21465031.701   -20493831.51349 -15951995.36247  21465031.348    21465039.103
       239.000         202.000
  20428394.656   -26236742.13849 -20424825.96547  20428395.016    20428401.598
       244.000         212.000
  23759559.989    -7782351.35849  -6047263.95545  23759558.700    23759569.389
       216.000         155.000
  22965555.185    -7665036.13849  -5953284.66246  22965554.777    22965564.188
       219.000         167.000
  22966567.957    -8016452.24849  -6224657.03346  22966568.286    22966577.021
       227.000         175.000
  21862210.386   -19361132.23949 -15071071.29247  21862210.337    21862218.060
       236.000         196.000
  20782100.819   -22028051.91249 -17148719.76847  20782100.081    20782107.956
       241.000         207.000
 03  1 13  0 49  0.0000000  0  7G 5G30G17G23G24G 6G10
  21479781.786   -20416319.38049 -15891596.33647  21479781.407    21479789.751
       238.000         202.000
  20429426.692   -26231318.67449 -20420599.87647  20429427.292    20429433.586
       245.000         212.000
  23745193.880    -7857844.96749  -6106090.02745  23745192.795    23745202.574
       214.000         155.000
  22946814.314    -7763519.02949  -6030024.42646  22946813.492    22946824.242
       219.000         168.000
  22981500.961    -7937978.75949  -6163508.86846  22981501.068    22981510.066
       225.000         174.000
  21850194.000   -19424278.74349 -15120276.30647  21850193.906    21850201.444
       235.000         196.000
  20782587.859   -22025492.55749 -17146725.42947  20782587.274    20782595.041
       242.000         207.000
 03  1 13  0 49 30.0000000  0  7G 5G30G17G23G24G 6G10
  21494604.787   -20338423.95649 -15830898.63747  21494604.465    21494612.514
       238.000         202.000
  20430572.480   -26225297.66149 -20415908.16147  20430572.859    20430579.399
       244.000         212.000
  23730862.460    -7933156.52949  -6164774.25145  23730861.247    23730872.026
       212.000         154.000
  22928113.509    -7861792.02649  -6106600.63746  22928113.098    22928122.600
       218.000         168.000
  22996442.289    -7859461.39149  -6102326.49646  22996442.364    22996451.452
       225.000         174.000
  21838199.199   -19487311.27249 -15169392.51147  21838199.059    21838206.971
       235.000         196.000
  20783195.749   -22022297.99649 -17144236.12247  20783195.223    20783202.727
       242.000         208.000
 03  1 13  0 50  0.0000000  0  7G 5G30G17G23G24G 6G10
  21509500.473   -20260146.88549 -15769903.55047  21509500.103    21509508.299
       238.000         201.000
  20431832.049   -26218678.46649 -20410750.33647  20431832.317    20431838.796
       244.000         212.000
  23716565.862    -8008284.87049  -6223315.69845  23716564.864    23716574.924
       211.000         153.000
  22909453.134    -7959851.95649  -6183010.82446  22909452.426    22909462.756
       220.000         168.000
  23011391.902    -7780900.91849  -6041110.54846  23011391.635    23011401.138
       225.000         174.000
  21826226.482   -19550228.13749 -15218418.58447  21826226.488    21826233.645
       236.000         197.000
  20783924.587   -22018467.96249 -17141251.64647  20783923.959    20783931.575
       242.000         208.000
 03  1 13  0 50 30.0000000  0  7G 5G30G17G23G24G 6G10
  21524468.164   -20181491.17549 -15708613.42147  21524467.661    21524476.013
       238.000         201.000
  20433205.290   -26211461.97249 -20405127.08147  20433205.696    20433212.002
       244.000         212.000
  23702304.066    -8083230.18649  -6281714.53545  23702303.587    23702313.444
       211.000         153.000
  22890833.769    -8057696.78549  -6259253.40346  22890833.426    22890843.343
       220.000         169.000
  23026349.302    -7702299.44149  -5979862.64646  23026348.641    23026358.851
       225.000         174.000
  21814275.899   -19613028.86749 -15267354.17447  21814275.531    21814283.473
       236.000         197.000
  20784774.114   -22014003.47549 -17137772.79047  20784773.391    20784781.092
       242.000         207.000
 03  1 13  0 51  0.0000000  0  7G 5G30G17G23G24G 6G10
  21539507.515   -20102458.91049 -15647029.87347  21539506.870    21539515.262
       237.000         201.000
  20434692.196   -26203648.03149 -20399038.28747  20434692.367    20434698.976
       244.000         212.000
  23688077.277    -8157992.16949  -6339970.51745  23688076.426    23688086.773
       210.000         154.000
  22872255.870    -8155323.65449  -6335326.15446  22872254.867    22872265.157
       219.000         169.000
  23041314.387    -7623657.84249  -5918583.47046  23041314.250    23041323.784
       226.000         174.000
  21802347.668   -19675711.91449 -15316198.05447  21802347.359    21802355.110
       235.000         197.000
  20785744.332   -22008904.53749 -17133799.55347  20785743.459    20785751.426
       241.000         207.000
 03  1 13  0 51 30.0000000  0  7G 5G30G17G23G24G 6G10
  21554618.037   -20023052.62149 -15585154.88547  21554617.879    21554625.965
       238.000         201.000
  20436292.796   -26195236.76349 -20392484.04147  20436293.199    20436299.376
       244.000         212.000
  23673885.342    -8232570.78949  -6398083.62545  23673884.071    23673894.474
       212.000         156.000
  22853719.897    -8252729.99249  -6411227.06446  22853719.509    22853729.769
       219.000         168.000
  23056286.785    -7544977.59449  -5857274.18546  23056286.455    23056295.283
       226.000         174.000
  21790442.038   -19738276.11649 -15364949.34247  21790441.971    21790449.431
       236.000         197.000
  20786835.208   -22003171.67749 -17129332.35247  20786834.734    20786842.055
       241.000         207.000
 03  1 13  0 52  0.0000000  0  7G 5G30G17G23G24G 6G10
  21569799.430   -19943274.11449 -15522989.85347  21569799.339    21569807.141
       238.000         201.000
  20438007.087   -26186228.05149 -20385464.25847  20438007.532    20438013.879
       244.000         212.000
  23659728.499    -8306965.22949  -6456053.21345  23659727.571    23659738.553
       213.000         158.000
  22835226.523    -8349912.84949  -6486953.83946  22835225.792    22835235.789
       220.000         169.000
  23071266.253    -7466259.57449  -5795935.46446  23071266.754    23071275.202
       225.000         173.000
  21778559.343   -19800719.91749 -15413606.80947  21778559.397    21778567.035
       236.000         198.000
  20788046.782   -21996804.71649 -17124371.05247  20788046.105    20788053.790
       242.000         207.000
 03  1 13  0 52 30.0000000  0  7G 5G30G17G23G24G 6G10
  21585051.218   -19863125.62849 -15460536.51747  21585051.010    21585058.907
       238.000         201.000
  20439835.047   -26176622.06949 -20377979.06347  20439835.276    20439841.767
       244.000         212.000
  23645606.676    -8381175.43549  -6513879.25445  23645606.237    23645615.876
       216.000         161.000
  22816776.205    -8446869.56349  -6562504.41346  22816775.515    22816785.292
       220.000         170.000
  23086252.614    -7387505.20949  -5734568.40746  23086252.720    23086261.742
       225.000         173.000
  21766699.756   -19863042.15249 -15462169.54747  21766699.488    21766706.894
       235.000         198.000
  20789378.896   -21989804.24549 -17118916.10147  20789378.083    20789385.733
       241.000         207.000
 03  1 13  0 53  0.0000000  0  7G 5G30G17G23G24G 6G10
  21600372.935   -19782609.61949 -15397796.80547  21600372.683    21600380.692
       237.000         200.000
  20441776.614   -26166418.95249 -20370028.57447  20441776.852    20441783.403
       244.000         212.000
  23631520.099    -8455200.90449  -6571561.34146  23631519.529    23631529.446
       218.000         163.000
  22798369.439    -8543597.44549  -6637876.68046  22798369.187    22798378.595
       221.000         172.000
  23101245.755    -7308715.65049  -5673173.94746  23101245.371    23101255.418
       223.000         173.000
  21754863.574   -19925241.49249 -15510636.52147  21754863.441    21754870.976
       236.000         198.000
  20790831.493   -21982170.51149 -17112967.70447  20790830.907    20790838.488
       241.000         207.000
 03  1 13  0 53 30.0000000  0  7G 5G30G17G23G24G 6G10
  21615764.103   -19701728.48749 -15334772.58247  21615763.668    21615771.947
       236.000         199.000
  20443831.713   -26155619.07749 -20361613.08047  20443831.930    20443838.612
       244.000         212.000
  23617468.697    -8529041.16449  -6629099.10946  23617468.497    23617478.271
       218.000         166.000
  22780006.657    -8640094.00149  -6713068.69546  22780005.640    22780015.515
       221.000         173.000
  23116245.312    -7229892.27749  -5611753.13246  23116245.486    23116254.787
       224.000         172.000
  21743051.015   -19987316.83049 -15559006.87347  21743050.869    21743058.584
       236.000         198.000
  20792404.464   -21973904.48049 -17106526.60847  20792403.828    20792411.367
       242.000         207.000
 03  1 13  0 54  0.0000000  0  7G 5G30G17G23G24G 6G10
  21631224.283   -19620484.73149 -15271465.80147  21631223.815    21631232.258
       236.000         198.000
  20446000.363   -26144222.63249 -20352732.73147  20446000.538    20446007.186
       243.000         212.000
  23603452.530    -8602696.29649  -6686492.63346  23603452.000    23603461.788
       220.000         168.000
  22761688.416    -8736356.50349  -6788078.33346  22761687.602    22761697.625
       222.000         173.000
  23131251.137    -7151036.32449  -5550306.91946  23131250.878    23131260.465
       224.000         172.000
  21731262.306   -20049266.85549 -15607279.57147  21731261.890    21731269.718
       236.000         199.000
  20794097.750   -21965006.31349 -17099592.94347  20794097.026    20794104.866
       242.000         208.000
 03  1 13  0 54 30.0000000  0  7G 5G30G17G23G24G 6G10
  21646753.025   -19538880.65249 -15207878.24847  21646752.555    21646760.965
       236.000         198.000
  20448282.463   -26132229.97449 -20343387.79647  20448282.948    20448289.278
       244.000         212.000
  23589471.723    -8676165.69149  -6743741.39646  23589471.029    23589480.886
       221.000         169.000
  22743415.205    -8832382.44949  -6862903.64046  22743414.472    22743424.016
       222.000         173.000
  23146262.915    -7072149.08649  -5488836.34146  23146263.555    23146272.843
       225.000         172.000
  21719497.646   -20111090.34649 -15655453.67047  21719497.555    21719505.192
       236.000         199.000
  20795911.209   -21955476.48049 -17092167.06747  20795910.771    20795918.174
       242.000         208.000
 03  1 13  0 55  0.0000000  0  7G 5G30G17G23G24G 6G10
  21662349.897   -19456918.76849 -15144011.89047  21662349.527    21662357.769
       236.000         198.000
  20450677.907   -26119641.70649 -20333578.75447  20450678.230    20450684.837
       243.000         212.000
  23575526.309    -8749449.24449  -6800845.37146  23575525.703    23575535.261
       220.000         169.000
  22725187.561    -8928169.32249  -6937542.66746  22725186.821    22725196.793
       223.000         174.000
  23161280.316    -6993232.05149  -5427342.55646  23161279.710    23161289.810
       223.000         171.000
  21707757.280   -20172786.18649 -15703528.30047  21707757.172    21707764.938
       237.000         199.000
  20797844.738   -21945315.76849 -17084249.59847  20797844.162    20797851.673
       242.000         208.000
 03  1 13  0 55 30.0000000  0  7G 5G30G17G23G24G 6G10
  21678014.454   -19374601.07049 -15079868.26847  21678014.103    21678022.317
       236.000         197.000
  20453186.731   -26106457.74649 -20323305.53547  20453187.163    20453193.569
       244.000         212.000
  23561616.327    -8822546.53249  -6857804.19146  23561615.723    23561625.249
       221.000         169.000
  22707005.818    -9023714.38949  -7011993.25746  22707005.217    22707014.518
       222.000         174.000
  23176303.205    -6914286.00349  -5365826.14346  23176303.269    23176311.991
       223.000         171.000
  21696041.490   -20234352.82149 -15751502.25447  21696041.463    21696048.827
       237.000         200.000
  20799898.200   -21934524.47149 -17075840.76647  20799897.441    20799904.849
       242.000         208.000
 03  1 13  0 56  0.0000000  0  7G 5G30G17G23G24G 6G10
  21693746.342   -19291929.76949 -15015449.11547  21693746.252    21693754.183
       237.000         198.000
  20455808.876   -26092678.26249 -20312568.27547  20455809.358    20455815.615
       244.000         212.000
  23547741.883    -8895456.78649  -6914617.27346  23547741.088    23547751.885
       220.000         169.000
  22688870.693    -9119014.57349  -7086253.03946  22688869.932    22688879.946
       222.000         175.000
  23191331.380    -6835312.27049  -5304288.18246  23191331.685    23191340.264
       223.000         170.000
  21684350.594   -20295788.78349 -15799374.38147  21684350.427    21684357.743
       237.000         200.000
  20802071.562   -21923102.96949 -17066940.86447  20802070.786    20802078.520
       242.000         207.000
 03  1 13  0 56 30.0000000  0  7G 5G30G17G23G24G 6G10
  21709544.935   -19208907.76649 -14950756.68447  21709544.835    21709552.693
       237.000         198.000
  20458544.174   -26078304.21849 -20301367.71947  20458544.424    20458550.989
       244.000         212.000
  23533902.907    -8968180.74149  -6971285.18746  23533902.368    23533912.680
       219.000         168.000
  22670782.581    -9214067.78249  -7160320.36446  22670782.434    22670791.376
       222.000         176.000
  23206364.638    -6756312.37349  -5242729.82146  23206365.348    23206373.369
       223.000         170.000
  21672684.724   -20357093.28049 -15847144.06847  21672684.633    21672692.120
       237.000         200.000
  20804364.693   -21911052.28649 -17057550.68847  20804363.929    20804371.658
       242.000         207.000
 03  1 13  0 57  0.0000000  0  7G 5G30G17G23G24G 6G10
  21725409.983   -19125536.87249 -14885792.38747  21725409.582    21725417.811
       236.000         197.000
  20461392.643   -26063335.41049 -20289703.71047  20461393.022    20461399.546
       243.000         212.000
  23520099.474    -9040717.73249  -7027807.40646  23520099.084    23520108.495
       219.000         167.000
  22652742.006    -9308870.86149  -7234192.77246  22652741.613    22652751.288
       223.000         176.000
  23221402.777    -6677286.56049  -5181151.26146  23221402.158    23221411.778
       222.000         169.000
  21661044.231   -20418264.40249 -15894809.82247  21661043.961    21661051.570
       238.000         200.000
  20806777.556   -21898372.48249 -17047670.29147  20806776.838    20806784.520
       242.000         208.000
 03  1 13  0 57 30.0000000  0  7G 5G30G17G23G24G 6G10
  21741340.776   -19041820.09849 -14820558.57647  21741340.553    21741348.580
       236.000         196.000
  20464354.142   -26047772.60549 -20277576.85047  20464354.642    20464361.061
       244.000         212.000
  23506331.725    -9113067.11149  -7084183.43946  23506330.966    23506340.625
       220.000         166.000
  22634749.462    -9403421.64749  -7307868.58246  22634749.509    22634758.639
       223.000         176.000
  23236445.449    -6598236.66649  -5119553.94746  23236445.144    23236453.644
       222.000         168.000
  21649429.328   -20479301.08549 -15942370.82447  21649428.892    21649436.483
       238.000         200.000
  20809309.933   -21885064.72749 -17037300.58147  20809309.215    20809316.892
       242.000         208.000
 03  1 13  0 58  0.0000000  0  7G 5G30G17G23G24G 6G10
  21757336.932   -18957759.87149 -14755057.14347  21757336.579    21757344.841
       235.000         196.000
  20467428.634   -26031616.12949 -20264987.38847  20467429.104    20467435.668
       243.000         212.000
  23492599.712    -9185229.05849  -7140413.40346  23492598.612    23492608.151
       219.000         165.000
  22616805.486    -9497717.39849  -7381345.66946  22616804.892    22616814.398
       223.000         176.000
  23251492.471    -6519163.68749  -5057938.63046  23251492.417    23251501.631
       221.000         168.000
  21637840.198   -20540201.90949 -15989825.96147  21637839.845    21637847.516
       237.000         200.000
  20811961.682   -21871129.63849 -17026442.03847  20811960.879    20811968.552
       242.000         208.000
 03  1 13  0 58 30.0000000  0  7G 5G30G17G23G24G 6G10
  21773398.101   -18873358.20249 -14689289.64547  21773397.780    21773406.337
       235.000         196.000
  20470616.005   -26014866.24549 -20251935.53247  20470616.407    20470622.893
       243.000         212.000
  23478903.401    -9257203.09649  -7196496.95546  23478902.684    23478912.384
       219.000         165.000
  22598910.559    -9591755.25749  -7454621.78846  22598910.280    22598919.215
       223.000         176.000
  23266543.773    -6440068.82049  -4996306.27446  23266543.347    23266552.471
       221.000         168.000
  21626277.273   -20600965.36749 -16037174.05647  21626276.970    21626284.430
       238.000         201.000
  20814732.719   -21856567.66249 -17015095.01247  20814731.981    20814739.499
       242.000         208.000
 03  1 13  0 59  0.0000000  0  7G 5G30G17G23G24G 6G10
  21789523.615   -18788618.26249 -14623258.56447  21789523.407    21789531.685
       235.000         196.000
  20473916.071   -25997524.14249 -20238422.20847  20473916.582    20473922.898
       244.000         212.000
  23465242.777    -9328989.47049  -7252434.27346  23465241.741    23465251.810
       219.000         165.000
  22581065.106    -9685533.39149  -7527695.53546  22581064.085    22581074.201
       225.000         177.000
  23281598.855    -6360953.64449  -4934658.08146  23281599.794    23281608.017
       222.000         167.000
  21614740.582   -20661590.92149 -16084414.69247  21614740.596    21614747.767
       238.000         201.000
  20817622.726   -21841380.26149 -17003260.63947  20817621.980    20817629.604
       242.000         208.000
 03  1 13  0 59 30.0000000  0  7G 5G30G17G23G24G 6G10
  21805713.142   -18703541.74449 -14556965.21647  21805712.889    21805721.276
       235.000         196.000
  20477328.896   -25979589.64249 -20224447.27447  20477329.540    20477335.672
       244.000         212.000
  23451618.060    -9400587.24749  -7308224.63046  23451617.193    23451627.237
       219.000         165.000
  22563269.755    -9779048.43149  -7600564.25946  22563268.704    22563278.103
       225.000         178.000
  23296657.732    -6281818.62349  -4872994.43346  23296657.919    23296666.766
       221.000         167.000
  21603230.549   -20722076.43749 -16131546.21847  21603230.245    21603237.717
       237.000         201.000
  20820631.770   -21825567.47349 -16990938.95247  20820631.147    20820638.588
       242.000         207.000
 03  1 13  1  0  0.0000000  0  7G 5G30G17G23G24G 6G10
  21821966.161   -18618131.62549 -14490411.92847  21821965.987    21821974.510
       235.000         196.000
  20480854.267   -25961063.78349 -20210011.53847  20480854.859    20480861.043
       245.000         212.000
  23438029.212    -9471996.74949  -7363868.28346  23438028.830    23438038.859
       219.000         166.000
  22545524.838    -9872298.31949  -7673226.37446  22545524.858    22545534.077
       226.000         178.000
  23311720.097    -6202665.01249  -4811316.28346  23311719.732    23311728.830
       219.000         167.000
  21591747.288   -20782421.05349 -16178567.94947  21591747.234    21591754.275
       238.000         201.000
  20823759.596   -21809130.49949 -16978130.88947  20823759.092    20823766.466
       242.000         207.000
 03  1 13  1  0 30.0000000  0  7G 5G30G17G23G24G 6G10
  21838282.264   -18532390.06449 -14423600.36647  21838281.952    21838290.117
       234.000         195.000
  20484492.178   -25941946.77949 -20195115.16747  20484492.541    20484498.963
       244.000         212.000
  23424476.246    -9543217.61449  -7419364.93546  23424475.423    23424484.863
       218.000         166.000
  22527830.920    -9965280.24249  -7745679.68246  22527830.328    22527839.616
       225.000         179.000
  23326785.794    -6123494.11249  -4749624.68346  23326785.442    23326794.816
       222.000         167.000
  21580291.212   -20842623.22549 -16225478.68347  21580291.205    21580298.339
       238.000         201.000
  20827006.109   -21792069.97649 -16964836.94547  20827005.364    20827012.990
       242.000         207.000
 03  1 13  1  1  0.0000000  0  7G 5G30G17G23G24G 6G10
  21854660.938   -18446319.61149 -14356532.52347  21854660.783    21854669.043
       234.000         195.000
  20488242.343   -25922239.51749 -20179758.85947  20488242.795    20488249.085
       244.000         212.000
  23410959.204    -9614249.61349  -7474714.42246  23410958.201    23410968.671
       218.000         167.000
  22510188.366   -10057991.73349  -7817922.26546  22510187.661    22510196.783
       226.000         178.000
  23341854.628    -6044306.94949  -4687920.39146  23341855.410    23341864.837
       220.000         167.000
  21568862.451   -20902681.57349 -16272277.35447  21568862.217    21568869.725
       238.000         202.000
  20830371.082   -21774386.80349 -16951057.81747  20830370.415    20830377.892
       242.000         207.000
 03  1 13  1  1 30.0000000  0  7G 5G30G17G23G24G 6G10
  21871101.746   -18359922.81449 -14289210.38347  21871101.342    21871109.731
       235.000         195.000
  20492104.679   -25901942.65149 -20163943.11947  20492105.021    20492111.633
       244.000         212.000
  23397478.148    -9685092.63149  -7529916.64946  23397478.003    23397486.455
       218.000         167.000
  22492597.813   -10150430.14149  -7889952.07546  22492597.099    22492606.889
       226.000         178.000
  23356926.298    -5965105.03149  -4626204.60146  23356925.677    23356935.613
       221.000         167.000
  21557461.292   -20962594.89749 -16318963.01247  21557461.260    21557468.451
       238.000         202.000
  20833854.346   -21756081.87649 -16936794.20547  20833853.673    20833861.269
       242.000         207.000
 03  1 13  1  2  0.0000000  0  7G 5G30G17G23G24G 6G10
  21887604.104   -18273202.38749 -14221636.06747  21887603.777    21887612.049
       235.000         194.000
  20496079.059   -25881057.02849 -20147668.61047  20496079.429    20496085.831
       243.000         211.000
  23384033.038    -9755746.54749  -7584971.53746  23384031.982    23384042.236
       219.000         166.000
  22475059.698   -10242593.09049  -7961767.23746  22475058.671    22475068.360
       227.000         179.000
  23372000.551    -5885889.32549  -4564478.08146  23372000.021    23372009.270
       219.000         167.000
  21546087.973   -21022361.99449 -16365534.73747  21546088.004    21546095.105
       239.000         202.000
  20837455.692   -21737156.51149 -16922047.13647  20837454.780    20837462.462
       241.000         207.000
 03  1 13  1  2 30.0000000  0  7G 5G30G17G23G24G 6G10
  21904167.719   -18186160.30749 -14153811.10547  21904167.340    21904175.644
       235.000         194.000
  20500165.459   -25859582.90349 -20130935.52547  20500166.110    20500172.354
       244.000         212.000
  23370624.003    -9826211.01449  -7639878.79046  23370623.134    23370632.873
       216.000         166.000
  22457574.464   -10334477.82449  -8033365.60546  22457573.995    22457582.833
       227.000         180.000
  23387077.302    -5806660.55649  -4502741.38346  23387077.333    23387086.058
       223.000         167.000
  21534742.826   -21081981.04849 -16411991.10047  21534742.568    21534750.033
       239.000         202.000
  20841175.021   -21717611.21849 -16906817.00847  20841174.245    20841181.883
       242.000         207.000
 03  1 13  1  3  0.0000000  0  7G 5G30G17G23G24G 6G10
  21920792.016   -18098799.18449 -14085737.53147  21920792.001    21920799.715
       235.000         193.000
  20504363.682   -25837521.16549 -20113744.55547  20504364.194    20504370.611
       244.000         212.000
  23357251.018    -9896485.64649  -7694638.14246  23357250.112    23357259.394
       216.000         165.000
  22440142.691   -10426081.84849  -8104745.24546  22440142.323    22440151.483
       228.000         181.000
  23402156.282    -5727419.87549  -4440995.39046  23402155.755    23402165.977
       221.000         167.000
  21523426.056   -21141450.78249 -16458331.10547  21523425.822    21523433.211
       239.000         203.000
  20845012.126   -21697446.99449 -16891104.59547  20845011.379    20845018.914
       242.000         207.000
 03  1 13  1  3 30.0000000  0  7G 5G30G17G23G24G 6G10
  21937476.558   -18011121.36649 -14017417.19147  21937476.321    21937484.276
       233.000         192.000
  20508673.634   -25814872.21149 -20096096.02047  20508674.160    20508680.559
       244.000         212.000
  23343914.234    -9966570.46549  -7749249.57246  23343913.665    23343923.027
       216.000         165.000
  22422764.879   -10517402.34149  -8175903.96346  22422764.433    22422773.443
       227.000         181.000
  23417237.452    -5648168.30949  -4379240.91846  23417237.414    23417245.812
       222.000         167.000
  21512137.969   -21200769.62149 -16504553.53947  21512137.917    21512145.249
       239.000         203.000
  20848966.853   -21676664.60949 -16874910.50547  20848966.241    20848973.509
       242.000         207.000
 03  1 13  1  4  0.0000000  0  7G 5G30G17G23G24G 6G10
  21954220.744   -17923130.12649 -13948852.62747  21954220.629    21954228.659
       233.000         191.000
  20513095.054   -25791637.50749 -20077991.05547  20513095.410    20513101.962
       243.000         212.000
  23330613.494   -10036465.71549  -7803713.29146  23330613.372    23330622.258
       219.000         165.000
  22405441.357   -10608437.46949  -8246840.32046  22405440.626    22405449.770
       228.000         182.000
  23432320.376    -5568907.29449  -4317479.08246  23432321.142    23432328.565
       222.000         166.000
  21500878.862   -21259936.61049 -16550657.64147  21500878.492    21500885.952
       239.000         203.000
  20853038.952   -21655265.52049 -16858235.86047  20853038.202    20853045.685
       242.000         207.000
 03  1 13  1  4 30.0000000  0  7G 5G30G17G23G24G 6G10
  21971024.147   -17834827.69549 -13880045.57647  21971023.727    21971032.534
       232.000         191.000
  20517627.815   -25767817.54649 -20059430.04647  20517628.301    20517634.717
       243.000         212.000
  23317349.046   -10106170.52049  -7858028.61646  23317348.336    23317357.894
       219.000         166.000
  22388172.680   -10699184.34549  -8317552.06346  22388171.981    22388181.279
       227.000         183.000
  23447404.895    -5489637.56649  -4255710.44446  23447405.049    23447413.909
       220.000         166.000
  21489648.909   -21318949.96549 -16596642.03447  21489648.566    21489655.975
       239.000         203.000
  20857228.193   -21633250.71649 -16841081.44347  20857227.502    20857234.877
       242.000         207.000
 03  1 13  1  5  0.0000000  0  7G 5G30G17G23G24G 6G10
  21987886.331   -17746216.44149 -13810997.88247  21987885.883    21987894.291
       232.000         191.000
  20522271.894   -25743412.70649 -20040413.28147  20522272.297    20522278.750
       244.000         211.000
  23304120.745   -10175685.12749  -7912195.73346  23304120.173    23304128.874
       220.000         167.000
  22370959.411   -10789640.43649  -8388037.22046  22370959.067    22370967.935
       227.000         183.000
  23462490.846    -5410360.26449  -4193935.90246  23462489.856    23462500.138
       219.000         165.000
  21478448.443   -21377808.28949 -16642505.62347  21478448.320    21478455.597
       239.000         203.000
  20861534.503   -21610620.90049 -16823447.79747  20861533.661    20861541.162
       241.000         207.000
 03  1 13  1  5 30.0000000  0  7G 5G30G17G23G24G 6G10
  22004806.768   -17657298.97849 -13741711.58847  22004806.619    22004814.460
       233.000         191.000
  20527026.990   -25718424.36649 -20020941.84847  20527027.245    20527033.653
       243.000         211.000
  23290928.797   -10245008.92449  -7966214.17146  23290928.046    23290936.937
       222.000         169.000
  22353801.946   -10879803.24449  -8458293.85646  22353801.255    22353810.544
       227.000         183.000
  23477578.027    -5331076.27749  -4132156.16346  23477577.301    23477587.052
       219.000         165.000
  21467277.801   -21436510.20649 -16688247.33947  21467277.753    21467284.967
       239.000         203.000
  20865957.545   -21587377.46349 -16805336.00347  20865956.949    20865964.251
       241.000         207.000
 03  1 13  1  6  0.0000000  0  7G 5G30G17G23G24G 6G10
  22021785.038   -17568077.74249 -13672188.57947  22021784.736    22021793.342
       233.000         192.000
  20531893.015   -25692853.13549 -20001016.20947  20531893.386    20531899.894
       243.000         211.000
  23277773.083   -10314142.44849  -8020084.34846  23277772.613    23277781.511
       221.000         171.000
  22336700.659   -10969670.35649  -8528320.08046  22336699.685    22336709.161
       226.000         182.000
  23492666.279    -5251786.75649  -4070372.09546  23492665.496    23492674.777
       217.000         164.000
  21456137.226   -21495054.19849 -16733865.99547  21456136.925    21456144.379
       239.000         203.000
  20870497.106   -21563521.55349 -16786746.95347  20870496.136    20870503.852
       241.000         207.000
 03  1 13  1  6 30.0000000  0  7G 5G30G17G23G24G 6G10
  22038820.627   -17478555.43449 -13602430.97747  22038820.352    22038828.877
       233.000         192.000
  20536869.775   -25666700.10149 -19980637.22147  20536870.271    20536876.747
       243.000         211.000
  23264653.608   -10383085.34449  -8073805.98346  23264652.466    23264662.426
       221.000         172.000
  22319656.149   -11059239.28949  -8598113.95746  22319655.644    22319664.862
       227.000         181.000
  23507755.468    -5172492.43749  -4008584.29246  23507754.860    23507764.060
       218.000         163.000
  21445026.924   -21553438.73849 -16779360.39247  21445026.647    21445033.987
       239.000         203.000
  20875153.103   -21539054.13849 -16767681.41147  20875152.363    20875159.941
       241.000         207.000
 03  1 13  1  7  0.0000000  0  7G 5G30G17G23G24G 6G10
  22055912.939   -17388734.69649 -13532440.83347  22055912.869    22055921.086
       233.000         192.000
  20541957.073   -25639965.98849 -19959805.44347  20541957.449    20541963.883
       243.000         211.000
  23251570.426   -10451837.52049  -8127379.01146  23251569.463    23251579.703
       222.000         172.000
  22302668.946   -11148507.53149  -8667673.53546  22302668.714    22302677.593
       229.000         182.000
  23522845.362    -5093194.53149  -3946793.69245  23522845.513    23522854.118
       219.000         162.000
  21433947.292   -21611662.52049 -16824729.53347  21433947.247    21433954.275
       240.000         204.000
  20879925.154   -21513976.67049 -16748140.50147  20879924.309    20879932.053
       241.000         207.000
 03  1 13  1  7 30.0000000  0  7G 5G30G17G23G24G 6G10
  22073061.665   -17298618.01549 -13462220.07847  22073060.998    22073070.493
       233.000         192.000
  20547154.778   -25612651.90549 -19938521.74147  20547155.101    20547161.649
       243.000         211.000
  23238523.567   -10520398.92649  -8180803.37746  23238522.885    23238532.404
       220.000         172.000
  22285739.384   -11237472.72549  -8736996.95846  22285738.744    22285748.133
       229.000         183.000
  23537935.621    -5013894.06149  -3885001.09645  23537935.776    23537944.472
       218.000         162.000
  21422898.482   -21669724.25249 -16869972.39847  21422898.516    21422905.472
       239.000         204.000
  20884813.064   -21488290.32849 -16728125.13947  20884812.545    20884819.969
       241.000         207.000
 03  1 13  1  8  0.0000000  0  7G 5G30G17G23G24G 6G10
  22090266.244   -17208207.42849 -13391770.31347  22090265.907    22090274.568
       231.000         191.000
  20552462.727   -25584758.33949 -19916786.49747  20552463.076    20552469.850
       243.000         211.000
  23225513.036   -10588769.00449  -8234078.65646  23225512.522    23225522.190
       219.000         170.000
  22268868.027   -11326132.00449  -8806082.00446  22268867.264    22268876.490
       231.000         185.000
  23553026.359    -4934591.74849  -3823207.05145  23553026.009    23553034.322
       218.000         161.000
  21411880.905   -21727621.96049 -16915087.44847  21411880.663    21411888.028
       239.000         204.000
  20889816.698   -21461995.89249 -16707635.94147  20889816.141    20889823.585
       241.000         207.000
 03  1 13  1  8 30.0000000  0  7G 5G30G17G23G24G 6G10
  22107526.165   -17117505.95549 -13321093.88147  22107525.648    22107534.271
       231.000         190.000
  20557880.693   -25556286.74549 -19894600.84247  20557881.165    20557887.846
       243.000         211.000
  23212538.905   -10656947.91449  -8287204.98146  23212538.644    23212548.190
       218.000         169.000
  22252055.270   -11414483.38749  -8874927.14146  22252054.393    22252063.739
       230.000         185.000
  23568117.171    -4855289.15149  -3761412.81145  23568117.412    23568124.844
       219.000         161.000
  21400894.681   -21785354.82049 -16960074.04747  21400894.349    21400901.797
       239.000         204.000
  20894935.758   -21435095.07649 -16686674.24147  20894935.037    20894942.386
       242.000         207.000
 03  1 13  1  9  0.0000000  0  7G 5G30G17G23G24G 6G10
  22124840.990   -17026515.91449 -13250192.59247  22124840.971    22124849.113
       231.000         189.000
  20563408.547   -25527237.79849 -19871965.30147  20563408.828    20563415.506
       243.000         211.000
  23199601.270   -10724934.96549  -8340181.80346  23199601.250    23199609.930
       219.000         169.000
  22235301.585   -11502524.15749  -8943530.23346  22235300.642    22235309.444
       231.000         185.000
  23583207.967    -4775986.86649  -3699618.79745  23583208.065    23583216.078
       219.000         161.000
  21389940.160   -21842920.83249 -17004930.63247  21389940.083    21389947.105
       240.000         204.000
  20900170.045   -21407588.72949 -16665240.69647  20900169.324    20900176.890
       241.000         207.000
 03  1 13  1  9 30.0000000  0  7G 5G30G17G23G24G 6G10
  22142210.234   -16935240.28749 -13179068.75847  22142209.837    22142218.234
       231.000         188.000
  20569045.917   -25497612.98949 -19848881.03647  20569046.156    20569052.951
       243.000         211.000
  23186700.026   -10792731.02749  -8393009.81246  23186699.112    23186708.392
       220.000         169.000
  22218607.399   -11590252.17549  -9011889.62546  22218606.639    22218615.828
       230.000         185.000
  23598298.451    -4696685.83949  -3637825.76945  23598297.489    23598307.524
       218.000         161.000
  21379017.676   -21900318.84549 -17049656.30547  21379017.564    21379024.809
       241.000         205.000
  20905519.242   -21379478.45449 -16643336.56147  20905518.491    20905525.832
       241.000         206.000
 03  1 13  1 10  0.0000000  0  7G 5G30G17G23G24G 6G10
  22159633.261   -16843681.63549 -13107724.38746  22159633.115    22159641.597
       230.000         187.000
  20574792.740   -25467413.20949 -19825348.74547  20574793.237    20574799.704
       243.000         210.000
  23173835.230   -10860335.69749  -8445688.68746  23173834.448    23173843.955
       220.000         170.000
  22201973.238   -11677664.83649  -9080003.28546  22201972.684    22201981.637
       229.000         185.000
  23613388.524    -4617386.99949  -3576034.44445  23613388.351    23613397.810
       217.000         161.000
  21368127.444   -21957547.26149 -17094249.83047  21368127.393    21368134.386
       240.000         205.000
  20910983.033   -21350765.75949 -16620963.00547  20910982.238    20910989.757
       242.000         206.000
 03  1 13  1 10 30.0000000  0  8G 5G30G17G23G24G 6G10G29
  22177109.291   -16751844.73449 -13036163.20146  22177108.977    22177117.696
       231.000         187.000
  20580648.359   -25436641.83649 -19801371.05247  20580648.963    20580655.199
       243.000         210.000
  23161006.425   -10927751.02449  -8498220.01946  23161006.029    23161015.519
       221.000         172.000
  22185399.025   -11764762.04449  -9147871.12346  22185398.268    22185407.246
       228.000         185.000
  23628477.509    -4538093.50749  -3514247.28045  23628477.625    23628486.258
       217.000         161.000
  21357269.309   -22014606.93749 -17138711.86147  21357269.120    21357276.240
       240.000         205.000
  20916560.850   -21321454.05249 -16598122.68947  20916560.207    20916567.511
       242.000         206.000
  24663150.589    -4328412.38749  -3198869.13644  24663151.426    24663159.054
       195.000         128.000
 03  1 13  1 11  0.0000000  0  8G 5G30G17G23G24G 6G10G29
  22194637.699   -16659732.50649 -12964387.47746  22194637.242    22194645.606
       233.000         187.000
  20586612.531   -25405300.00949 -19776948.85147  20586612.825    20586619.372
       243.000         211.000
  23148213.653   -10994977.10449  -8550603.87746  23148213.225    23148222.691
       221.000         173.000
  22168885.312   -11851541.42349  -9215491.29746  22168884.651    22168893.602
       228.000         184.000
  23643565.231    -4458806.43749  -3452465.13545  23643565.250    23643574.424
       217.000         161.000
  21346443.558   -22071496.40749 -17183041.26147  21346443.405    21346450.552
       240.000         205.000
  20922252.350   -21291544.88649 -16574816.82147  20922251.587    20922259.262
       241.000         206.000
  24649005.455    -4402745.86549  -3256791.20245  24649003.470    24649016.847
       197.000         132.000
 03  1 13  1 11 30.0000000  0  8G 5G30G17G23G24G 6G10G29
  22212218.880   -16567342.75949 -12892395.50747  22212218.571    22212226.997
       231.000         188.000
  20592685.908   -25373384.10649 -19752079.31947  20592686.410    20592692.840
       243.000         210.000
  23135457.791   -11062009.25349  -8602836.63046  23135457.416    23135466.252
       222.000         174.000
  22152433.523   -11937995.82249  -9282858.24446  22152433.030    22152441.535
       228.000         185.000
  23658652.641    -4379521.98149  -3390685.01845  23658652.396    23658661.709
       218.000         160.000
  21335651.404   -22128209.40649 -17227233.16147  21335651.176    21335658.361
       240.000         205.000
  20928058.174   -21261034.82849 -16551042.72447  20928057.487    20928064.867
       241.000         206.000
  24634865.854    -4477048.71249  -3314689.19945  24634865.647    24634876.400
       202.000         136.000
 03  1 13  1 12  0.0000000  0  8G 5G30G17G23G24G 6G10G29
  22229852.195   -16474679.32549 -12820190.28246  22229851.944    22229860.153
       232.000         187.000
  20598868.096   -25340896.52849 -19726764.32747  20598868.520    20598875.037
       243.000         210.000
  23122738.671   -11128848.55149  -8654919.10346  23122738.241    23122747.028
       223.000         174.000
  22136043.706   -12024124.26649  -9349971.20946  22136043.406    22136051.905
       229.000         187.000
  23673739.060    -4300242.51949  -3328908.79845  23673739.631    23673746.933
       218.000         160.000
  21324892.873   -22184745.69249 -17271287.35347  21324892.674    21324899.930
       240.000         205.000
  20933977.857   -21229926.58049 -16526802.50947  20933977.279    20933984.810
       242.000         206.000
  24620732.611    -4551319.16049  -3372562.16645  24620732.502    24620743.450
       201.000         135.000
 03  1 13  1 12 30.0000000  0  8G 5G30G17G23G24G 6G10G29
  22247536.927   -16381745.41049 -12747774.27946  22247536.731    22247545.356
       231.000         187.000
  20605158.688   -25307839.28249 -19701005.43547  20605159.125    20605165.462
       242.000         210.000
  23110056.168   -11195495.33949  -8706851.57446  23110056.091    23110065.361
       223.000         174.000
  22119716.343   -12109925.06749  -9416828.85647  22119715.869    22119724.776
       230.000         188.000
  23688824.253    -4220969.30449  -3267137.43545  23688824.888    23688832.505
       219.000         160.000
  21314168.071   -22241104.53349 -17315203.27647  21314168.019    21314175.162
       241.000         206.000
  20940010.949   -21198222.48849 -16502097.99247  20940010.422    20940017.787
       242.000         206.000
  24606605.833    -4625555.12149  -3430408.15845  24606607.090    24606615.257
       203.000         133.000
 03  1 13  1 13  0.0000000  0  8G 5G30G17G23G24G 6G10G29
  22265272.762   -16288543.33849 -12675149.31946  22265272.003    22265280.867
       231.000         187.000
  20611557.498   -25274213.20749 -19674803.29747  20611557.835    20611564.487
       242.000         210.000
  23097410.271   -11261949.59749  -8758634.03146  23097409.976    23097418.624
       223.000         174.000
  22103451.815   -12195395.49349  -9483429.08847  22103451.289    22103460.164
       232.000         190.000
  23703908.114    -4141703.40149  -3205371.77645  23703907.506    23703917.233
       217.000         160.000
  21303477.429   -22297284.13549 -17358979.53447  21303477.330    21303484.495
       240.000         206.000
  20946157.218   -21165923.61349 -16476930.01347  20946156.408    20946163.902
       242.000         206.000
  24592486.299    -4699753.33149  -3488224.73845  24592484.137    24592496.808
       195.000         136.000
 03  1 13  1 13 30.0000000  0  8G 5G30G17G23G24G 6G10G29
  22283059.032   -16195075.86249 -12602317.56746  22283058.809    22283067.479
       230.000         187.000
  20618064.317   -25240019.60749 -19648158.93247  20618064.771    20618071.322
       243.000         210.000
  23084801.034   -11328211.35049  -8810266.47746  23084800.405    23084809.612
       222.000         174.000
  22087250.622   -12280533.17849  -9549770.04547  22087249.995    22087259.071
       232.000         190.000
  23718990.216    -4062445.41649  -3143612.28245  23718990.664    23718998.796
       217.000         159.000
  21292821.147   -22353283.08849 -17402615.03047  21292821.057    21292827.857
       241.000         206.000
  20952416.368   -21133031.46149 -16451299.73847  20952415.565    20952422.845
       243.000         206.000
  24578374.200    -4773910.91249  -3546009.62745  24578374.615    24578383.996
       202.000         135.000
 03  1 13  1 14  0.0000000  0  8G 5G30G17G23G24G 6G10G29
  22300895.279   -16101345.86649 -12529281.24846  22300894.572    22300903.568
       231.000         187.000
  20624678.888   -25205259.88649 -19621073.43247  20624679.541    20624686.022
       243.000         210.000
  23072228.355   -11394280.72249  -8861749.01946  23072227.619    23072236.862
       222.000         173.000
  22071113.110   -12365336.03249  -9615850.09947  22071112.557    22071121.193
       231.000         189.000
  23734070.726    -3983196.83149  -3081860.12545  23734070.885    23734079.420
       217.000         159.000
  21282199.536   -22409099.96749 -17446108.65147  21282199.500    21282206.360
       241.000         206.000
  20958788.047   -21099547.91749 -16425208.64147  20958787.144    20958794.681
       242.000         206.000
  24564270.441    -4848025.38149  -3603760.96845  24564269.740    24564282.327
       204.000         134.000
 03  1 13  1 14 30.0000000  0  8G 5G30G17G23G24G 6G10G29
  22318780.915   -16007356.41749 -12456042.75446  22318780.610    22318789.177
       232.000         187.000
  20631400.841   -25169935.92249 -19593548.26347  20631401.188    20631407.798
       243.000         210.000
  23059692.271   -11460157.71949  -8913081.64946  23059691.558    23059700.842
       222.000         174.000
  22055039.636   -12449802.26249  -9681667.84247  22055038.824    22055047.979
       232.000         189.000
  23749149.208    -3903958.82149  -3020116.20545  23749149.036    23749158.695
       216.000         159.000
  21271612.770   -22464733.70749 -17489459.56947  21271612.689    21271619.639
       241.000         206.000
  20965271.916   -21065474.80549 -16398658.13547  20965271.235    20965278.474
       242.000         206.000
  24550175.868    -4922093.86149  -3661476.61445  24550175.447    24550185.367
       195.000         132.000
 03  1 13  1 15  0.0000000  0  8G 5G30G17G23G24G 6G10G29
  22336715.500   -15913109.72849 -12382603.80846  22336715.244    22336723.964
       231.000         187.000
  20638230.008   -25134048.41449 -19565583.97047  20638230.400    20638237.036
       243.000         210.000
  23047192.814   -11525842.62149  -8964264.60946  23047192.311    23047201.079
       222.000         175.000
  22039030.743   -12533929.12349  -9747221.13847  22039030.267    22039039.095
       231.000         188.000
  23764225.557    -3824731.42249  -2958380.54945  23764225.179    23764234.473
       218.000         159.000
  21261061.240   -22520182.29349 -17532666.21647  21261061.284    21261068.177
       241.000         206.000
  20971867.777   -21030813.19749 -16371649.06547  20971867.089    20971874.659
       243.000         206.000
  24536090.133    -4996113.38149  -3719153.91745  24536089.369    24536097.296
       195.000         133.000
 03  1 13  1 15 30.0000000  0  8G 5G30G17G23G24G 6G10G29
  22354698.484   -15818608.75549 -12308966.72846  22354698.145    22354706.706
       230.000         186.000
  20645166.041   -25097599.18549 -19537181.97347  20645166.399    20645172.986
       242.000         210.000
  23034729.880   -11591335.60149  -9015298.00546  23034729.159    23034738.275
       224.000         176.000
  22023086.807   -12617714.56049  -9812508.39547  22023086.255    22023095.282
       230.000         188.000
  23779299.856    -3745515.74149  -2896654.01345  23779299.044    23779308.530
       216.000         158.000
  21250545.114   -22575444.45849 -17575727.59647  21250544.954    21250551.815
       241.000         206.000
  20978575.278   -20995565.01049 -16344182.91447  20978574.525    20978581.925
       242.000         206.000
  24522014.273    -5070081.11149  -3776790.93145  24522015.732    24522024.328
       204.000         133.000
 03  1 13  1 16  0.0000000  0  8G 5G30G17G23G24G 6G10G29
  22372729.308   -15723856.25149 -12235133.65246  22372728.862    22372737.508
       231.000         185.000
  20652208.674   -25060589.71849 -19508343.43047  20652209.003    20652215.651
       242.000         210.000
  23022303.439   -11656636.83549  -9066182.00446  23022303.001    23022311.688
       224.000         177.000
  22007208.236   -12701156.52749  -9877528.01747  22007207.507    22007215.986
       230.000         188.000
  23794371.503    -3666313.11849  -2834937.67345  23794372.039    23794379.967
       218.000         158.000
  21240064.751   -22630518.85049 -17618642.65747  21240064.629    21240071.561
       241.000         207.000
  20985394.023   -20959732.25349 -16316261.25447  20985393.544    20985400.549
       241.000         205.000
  24507949.090    -5143994.22349  -3834385.45245  24507949.170    24507959.379
       199.000         132.000
 03  1 13  1 16 30.0000000  0  8G 5G30G17G23G24G 6G10G29
  22390807.516   -15628854.66549 -12161106.47646  22390807.067    22390815.622
       230.000         184.000
  20659357.783   -25023020.86549 -19479069.00047  20659358.124    20659364.990
       242.000         209.000
  23009913.614   -11721745.76049  -9116916.14846  23009913.388    23009921.643
       224.000         178.000
  21991395.504   -12784252.30149  -9942277.87347  21991394.924    21991403.331
       230.000         189.000
  23809440.633    -3587123.97749  -2773231.81745  23809440.238    23809450.661
       216.000         158.000
  21229620.545   -22685403.52449 -17661409.89647  21229620.490    21229627.252
       241.000         207.000
  20992323.750   -20923316.21149 -16287885.08747  20992322.887    20992330.348
       240.000         205.000
  24493894.691    -5217849.68949  -3891935.02945  24493893.460    24493905.252
       198.000         133.000
 03  1 13  1 17  0.0000000  0  8G 5G30G17G23G24G 6G10G29
  22408932.638   -15533606.65749 -12086887.28846  22408932.609    22408941.121
       230.000         183.000
  20666613.061   -24984894.06249 -19449359.80247  20666613.491    20666619.984
       242.000         209.000
  22997560.434   -11786661.74549  -9167499.94846  22997559.661    22997568.594
       224.000         178.000
  21975649.188   -12866999.44749 -10006756.07347  21975648.565    21975657.133
       232.000         191.000
  23824507.078    -3507949.06949  -2711537.05445  23824507.147    23824515.992
       215.000         158.000
  21219212.683   -22740097.05549 -17704028.18947  21219212.685    21219219.508
       241.000         207.000
  20999364.208   -20886318.20249 -16259055.43747  20999363.603    20999370.833
       240.000         205.000
  24479851.828    -5291644.25149  -3949437.11145  24479851.332    24479862.865
       205.000         136.000
 03  1 13  1 17 30.0000000  0  8G 5G30G17G23G24G 6G10G29
  22427104.083   -15438115.24049 -12012478.42446  22427103.629    22427112.285
       230.000         183.000
  20673974.192   -24946211.13049 -19419217.26047  20673974.595    20673981.059
       243.000         209.000
  22985243.799   -11851385.87949  -9217934.25946  22985243.557    22985251.593
       222.000         177.000
  21959969.516   -12949396.26749 -10070961.29947  21959969.210    21959977.564
       231.000         192.000
  23839570.616    -3428789.51049  -2649854.26345  23839570.699    23839579.790
       217.000         158.000
  21208841.453   -22794598.09949 -17746496.49047  21208841.245    21208848.164
       241.000         207.000
  21006514.990   -20848740.53149 -16229774.10947  21006514.283    21006521.379
       240.000         205.000
  24465821.165    -5365375.54749  -4006889.92845  24465821.164    24465832.542
       205.000         138.000
 03  1 13  1 18  0.0000000  0  8G 5G30G17G23G24G 6G10G29
  22445321.375   -15342382.68649 -11937881.67146  22445321.177    22445330.004
       230.000         183.000
  20681440.934   -24906973.18249 -19388642.23347  20681441.316    20681447.686
       244.000         209.000
  22972963.724   -11915917.54549  -9268218.60046  22972963.189    22972971.769
       222.000         176.000
  21944357.004   -13031440.24949 -10134891.57947  21944356.588    21944365.201
       232.000         192.000
  23854631.076    -3349645.93349  -2588183.91145  23854631.642    23854639.152
       218.000         158.000
  21198507.173   -22848904.69449 -17788813.27447  21198507.039    21198513.746
       241.000         207.000
  21013775.738   -20810584.71749 -16200042.27247  21013775.016    21013782.362
       240.000         205.000
  24451803.216    -5439040.30449  -4064290.92345  24451802.180    24451812.998
       203.000         137.000
 03  1 13  1 18 30.0000000  0  8G 5G30G17G23G24G 6G10G29
  22463584.079   -15246411.91049 -11863099.29246  22463584.234    22463592.463
       229.000         182.000
  20689012.904   -24867182.17849 -19357636.25547  20689013.384    20689019.866
       244.000         209.000
  22960720.096   -11980257.53949  -9318353.58046  22960719.095    22960728.671
       222.000         176.000
  21928812.017   -13113129.35049 -10198545.32947  21928811.240    21928819.931
       232.000         193.000
  23869688.332    -3270519.42449  -2526526.84145  23869687.279    23869697.538
       213.000         158.000
  21188210.169   -22903015.63649 -17830977.60147  21188209.947    21188217.107
       241.000         207.000
  21021146.170   -20771852.52649 -16169861.31347  21021145.624    21021152.683
       240.000         205.000
  24437798.270    -5512635.81649  -4121637.91845  24437795.576    24437807.567
       201.000         135.000
 03  1 13  1 19  0.0000000  0  8G 5G30G17G23G24G 6G10G29
  22481891.714   -15150205.08949 -11788132.97846  22481891.360    22481900.203
       226.000         181.000
  20696690.011   -24826838.69949 -19326199.78147  20696690.349    20696697.053
       243.000         209.000
  22948513.166   -12044404.84149  -9368338.41746  22948512.715    22948520.961
       223.000         177.000
  21913335.137   -13194460.66049 -10261920.28247  21913334.664    21913343.235
       232.000         193.000
  23884742.319    -3191410.00549  -2464883.11145  23884741.148    23884750.595
       215.000         158.000
  21177950.828   -22956928.77949 -17872987.80147  21177950.660    21177957.289
       241.000         207.000
  21028626.091   -20732545.21749 -16139232.21547  21028625.476    21028632.688
       241.000         205.000
  24423807.314    -5586158.56449  -4178928.22945  24423807.620    24423818.848
       199.000         138.000
 03  1 13  1 19 30.0000000  0  8G 5G30G17G23G24G 6G10G29
  22500243.515   -15053765.32749 -11712985.15546  22500243.186    22500252.243
       227.000         181.000
  20704471.812   -24785944.98149 -19294334.54947  20704472.272    20704478.796
       243.000         209.000
  22936342.911   -12108359.91249  -9418173.46946  22936342.221    22936351.367
       223.000         177.000
  21897926.611   -13275432.46649 -10325015.09147  21897926.261    21897934.656
       232.000         192.000
  23899792.782    -3112318.97049  -2403253.70445  23899792.078    23899802.263
       215.000         158.000
  21167729.322   -23010642.97549 -17914842.97747  21167729.236    21167735.938
       242.000         208.000
  21036215.038   -20692665.10149 -16108156.77647  21036214.362    21036221.540
       240.000         205.000
  24409830.470    -5659606.20349  -4236160.01845  24409830.396    24409840.000
       198.000         138.000
 03  1 13  1 20  0.0000000  0  8G 5G30G17G23G24G 6G10G29
  22518639.183   -14957095.32949 -11637657.94046  22518638.811    22518647.262
       225.000         180.000
  20712358.118   -24744502.17149 -19262041.45647  20712358.433    20712365.120
       244.000         209.000
  22924209.183   -12172122.80349  -9467858.77346  22924208.721    22924217.394
       224.000         177.000
  21882587.019   -13356042.49849 -10387828.01947  21882586.601    21882594.886
       233.000         192.000
  23914839.656    -3033247.27049  -2341639.35645  23914839.831    23914848.193
       217.000         157.000
  21157546.035   -23064156.41649 -17956541.71747  21157545.886    21157552.580
       241.000         208.000
  21043912.612   -20652213.88549 -16076636.32147  21043911.923    21043919.173
       240.000         204.000
  24395868.728    -5732975.44749  -4293330.67745  24395870.770    24395878.694
       206.000         138.000
 03  1 13  1 20 30.0000000  0  8G 5G30G17G23G24G 6G10G29
  22537078.160   -14860198.22949 -11562153.75046  22537077.666    22537086.583
       225.000         180.000
  20720348.513   -24702512.54549 -19229322.26947  20720349.071    20720355.520
       245.000         209.000
  22912111.960   -12235693.88049  -9517394.61146  22912111.225    22912119.816
       223.000         177.000
  21867316.528   -13436288.99549 -10450357.66547  21867315.952    21867324.415
       233.000         193.000
  23929882.554    -2954196.04749  -2280040.98945  23929881.887    23929891.013
       217.000         157.000
  21147401.125   -23117467.97349 -17998083.14347  21147401.029    21147407.789
       241.000         208.000
  21051718.466   -20611193.63749 -16044672.46847  21051717.829    21051725.016
       240.000         204.000
  24381922.311    -5806263.82049  -4350438.37645  24381922.506    24381932.810
       205.000         137.000
 03  1 13  1 21  0.0000000  0  8G 5G30G17G23G24G 6G10G29
  22555559.987   -14763075.90349 -11486474.05946  22555559.631    22555568.318
       226.000         180.000
  20728442.817   -24659976.79649 -19196177.53247  20728443.167    20728449.588
       245.000         209.000
  22900051.338   -12299072.38549  -9566780.38746  22900051.204    22900058.890
       224.000         176.000
  21852115.833   -13516168.95249 -10512601.69347  21852114.976    21852123.779
       232.000         193.000
  23944921.619    -2875165.00449  -2218458.33245  23944920.826    23944931.094
       217.000         156.000
  21137295.061   -23170575.43449 -18039465.53547  21137294.995    21137301.740
       242.000         208.000
  21059632.435   -20569605.33949 -16012265.98047  21059631.630    21059638.883
       240.000         204.000
  24367991.926    -5879467.69149  -4407480.15045  24367990.791    24368000.460
       205.000         138.000
 03  1 13  1 21 30.0000000  0  8G 5G30G17G23G24G 6G10G29
  22574083.960   -14665731.66549 -11410621.46446  22574083.597    22574092.413
       226.000         180.000
  20736640.646   -24616897.11149 -19162608.94847  20736641.022    20736647.538
       244.000         209.000
  22888027.307   -12362258.90649  -9616016.57846  22888027.009    22888035.679
       225.000         177.000
  21836985.091   -13595680.86149 -10574558.92647  21836984.480    21836993.252
       233.000         193.000
  23959956.640    -2796155.82849  -2156892.70445  23959956.257    23959966.804
       215.000         155.000
  21127228.093   -23223477.70649 -18080688.03847  21127227.994    21127234.813
       242.000         208.000
  21067653.998   -20527451.52149 -15979418.82647  21067653.327    21067660.651
       240.000         204.000
  24354078.248    -5952584.55649  -4464454.16145  24354076.883    24354087.305
       203.000         139.000
 03  1 13  1 22  0.0000000  0  8G 5G30G17G23G24G 6G10G29
  22592649.773   -14568167.67949 -11334597.63446  22592648.995    22592658.466
       224.000         179.000
  20744941.742   -24573274.41649 -19128617.24247  20744942.125    20744948.618
       244.000         209.000
  22876039.858   -12425253.27049  -9665103.03946  22876039.717    22876047.839
       226.000         178.000
  21821924.957   -13674821.96549 -10636227.22447  21821924.316    21821932.914
       233.000         194.000
  23974987.450    -2717168.36149  -2095344.00845  23974986.053    23974996.540
       212.000         154.000
  21117200.569   -23276172.57149 -18121748.92547  21117200.536    21117207.254
       242.000         208.000
  21075783.008   -20484733.39049 -15946131.94647  21075782.409    21075789.581
       240.000         204.000
  24340181.589    -6025611.08049  -4521357.82145  24340181.233    24340190.782
       203.000         138.000
 03  1 13  1 22 30.0000000  0  8G 5G30G17G23G24G 6G10G29
  22611256.872   -14470386.90149 -11258404.86946  22611256.423    22611265.176
       226.000         178.000
  20753345.753   -24529110.94549 -19094204.15347  20753346.028    20753352.785
       243.000         208.000
  22864088.847   -12488055.96549  -9714040.14546  22864088.101    22864097.069
       227.000         179.000
  21806935.725   -13753590.51549 -10697605.22047  21806935.233    21806943.497
       233.000         194.000
  23990013.829    -2638203.84949  -2033813.18345  23990012.610    23990022.032
       210.000         153.000
  21107212.714   -23328658.86849 -18162647.29047  21107212.681    21107219.203
       242.000         209.000
  21084018.877   -20441453.50149 -15912407.33647  21084018.218    21084025.534
       240.000         204.000
  24326302.754    -6098544.49849  -4578188.86345  24326302.761    24326311.618
       205.000         139.000
 03  1 13  1 23  0.0000000  0  8G 5G30G17G23G24G 6G10G29
  22629904.793   -14372391.87149 -11182045.15446  22629904.593    22629913.335
       228.000         179.000
  20761852.375   -24484408.18049 -19059370.83747  20761852.728    20761859.306
       243.000         208.000
  22852174.565   -12550666.17449  -9762827.26846  22852174.349    22852182.618
       226.000         179.000
  21792017.853   -13831984.01749 -10758690.96947  21792017.290    21792025.807
       233.000         195.000
  24005035.814    -2559262.74349  -1972300.62645  24005034.101    24005044.906
       211.000         153.000
  21097264.906   -23380934.65749 -18203381.62647  21097264.668    21097271.719
       242.000         209.000
  21092361.321   -20397613.49749 -15878246.27547  21092360.573    21092367.873
       239.000         204.000
  24312442.099    -6171381.74949  -4634944.97345  24312442.306    24312451.317
       205.000         136.000
 03  1 13  1 23 30.0000000  0  8G 5G30G17G23G24G 6G10G29
  22648592.924   -14274185.55849 -11105520.79746  22648592.726    22648600.910
       227.000         180.000
  20770461.296   -24439167.88949 -19024118.66647  20770461.629    20770468.200
       243.000         207.000
  22840296.667   -12613084.84549  -9811465.12646  22840295.403    22840304.732
       225.000         179.000
  21777171.672   -13910000.73249 -10819483.11247  21777171.148    21777179.604
       234.000         195.000
  24020053.108    -2480346.27949  -1910807.23545  24020051.514    24020061.436
       208.000         152.000
  21087357.412   -23432998.63549 -18243950.91147  21087357.246    21087363.922
       242.000         209.000
  21100809.957   -20353215.54649 -15843650.44347  21100809.204    21100816.529
       239.000         203.000
  24298600.392    -6244120.04749  -4691624.03345  24298599.989    24298610.380
       206.000         138.000
 03  1 13  1 24  0.0000000  0  8G 5G30G17G23G24G 6G10G29
  22667320.779   -14175770.08649 -11028833.45546  22667320.251    22667328.918
       227.000         180.000
  20779172.306   -24393391.38649 -18988448.66947  20779172.578    20779179.223
       243.000         207.000
  22828455.277   -12675311.16749  -9859953.09546  22828454.800    22828463.704
       224.000         178.000
  21762397.756   -13987638.08449 -10879979.65347  21762397.406    21762405.318
       234.000         196.000
  24035065.683    -2401454.24649  -1849332.88145  24035063.532    24035074.441
       210.000         151.000
  21077490.642   -23484848.73149 -18284353.53647  21077490.777    21077497.348
       242.000         209.000
  21109364.553   -20308260.84849 -15808620.78747  21109363.752    21109371.031
       239.000         203.000
  24284778.053    -6316756.12349  -4748223.37745  24284778.208    24284787.798
       210.000         141.000
 03  1 13  1 24 30.0000000  0  8G 5G30G17G23G24G 6G10G29
  22686087.857   -14077148.47749 -10951985.49846  22686087.169    22686096.661
       226.000         179.000
  20787984.905   -24347080.66649 -18952362.40247  20787985.397    20787992.128
       243.000         208.000
  22816650.402   -12737345.87549  -9908291.76846  22816649.512    22816658.446
       225.000         178.000
  21747696.337   -14064894.23149 -10940179.15847  21747695.943    21747704.023
       234.000         196.000
  24050073.472    -2322587.62249  -1787878.34845  24050072.431    24050082.284
       212.000         151.000
  21067664.868   -23536483.47049 -18324588.35447  21067664.749    21067671.591
       242.000         209.000
  21118024.566   -20262751.87049 -15773159.22447  21118023.886    21118031.328
       239.000         203.000
  24270975.793    -6389287.08949  -4804740.85045  24270975.463    24270985.621
       205.000         141.000
 03  1 13  1 25  0.0000000  0  8G 5G30G17G23G24G 6G10G29
  22704893.670   -13978323.45649 -10874979.03946  22704893.479    22704902.580
       226.000         178.000
  20796898.921   -24300237.45849 -18915861.20747  20796899.426    20796905.803
       244.000         208.000
  22804882.011   -12799188.83249  -9956481.01646  22804881.669    22804890.427
       225.000         178.000
  21733067.907   -14141767.05549 -11000079.97147  21733066.881    21733075.444
       234.000         196.000
  24065076.387    -2243747.30249  -1726444.30445  24065075.395    24065084.230
       210.000         150.000
  21057880.346   -23587901.26149 -18364654.11447  21057880.033    21057887.057
       242.000         209.000
  21126789.692   -20216690.72749 -15737267.39947  21126789.128    21126796.498
       239.000         203.000
  24257194.067    -6461710.05549  -4861174.17245  24257194.064    24257202.216
       208.000         141.000
 03  1 13  1 25 30.0000000  0  8G 5G30G17G23G24G 6G10G29
  22723737.631   -13879298.03349 -10797816.41946  22723736.724    22723746.009
       225.000         177.000
  20805913.882   -24252863.66049 -18878946.56247  20805914.485    20805920.841
       244.000         209.000
  22793150.101   -12860840.23749 -10004521.01346  22793149.621    22793157.363
       225.000         178.000
  21718512.734   -14218254.49849 -11059680.48647  21718512.407    21718519.991
       235.000         196.000
  24080073.964    -2164934.19849  -1665031.45645  24080073.202    24080083.485
       208.000         150.000
  21048137.386   -23639100.49349 -18404549.56947  21048137.318    21048144.106
       242.000         209.000
  21135659.509   -20170079.39049 -15700946.85147  21135658.968    21135665.904
       239.000         203.000
  24243433.358    -6534022.21049  -4917521.13345  24243434.130    24243442.625
       206.000         139.000
 03  1 13  1 26  0.0000000  0  8G 5G30G17G23G24G 6G10G29
  22742619.317   -13780074.38849 -10720499.33446  22742618.223    22742628.214
       223.000         175.000
  20815029.605   -24204960.44549 -18841619.38447  20815030.124    20815036.752
       243.000         209.000
  22781454.726   -12922299.73549 -10052411.47146  22781453.848    22781462.438
       225.000         179.000
  21704031.363   -14294354.18049 -11118978.85247  21704030.872    21704038.588
       235.000         196.000
  24095066.388    -2086148.40349  -1603639.88545  24095065.733    24095076.583
       208.000         149.000
  21038436.454   -23690079.10549 -18444273.11847  21038436.334    21038442.989
       242.000         210.000
  21144633.798   -20122919.19249 -15664198.62247  21144632.835    21144640.215
       239.000         203.000
  24229694.359    -6606219.94149  -4973778.91445  24229693.622    24229703.355
       208.000         140.000
 03  1 13  1 26 30.0000000  0  8G 5G30G17G23G24G 6G10G29
  22761538.164   -13680655.43149 -10643030.07046  22761537.196    22761546.663
       223.000         174.000
  20824245.597   -24156529.88049 -18803881.28747  20824245.865    20824252.528
       243.000         208.000
  22769795.793   -12983567.15549 -10100152.25146  22769795.279    22769804.125
       226.000         179.000
  21689624.130   -14370064.07449 -11177973.48847  21689623.596    21689631.885
       236.000         197.000
  24110053.364    -2007390.62649  -1542270.13745  24110050.979    24110062.522
       204.000         149.000
  21028777.793   -23740835.61049 -18483823.59047  21028777.590    21028784.227
       242.000         210.000
  21153712.063   -20075212.44349 -15627024.50847  21153711.390    21153718.431
       239.000         203.000
  24215977.709    -6678300.47149  -5029945.43345  24215976.738    24215985.872
       207.000         139.000
 03  1 13  1 27  0.0000000  0  8G 5G30G17G23G24G 6G10G29
  22780493.628   -13581044.12449 -10565410.92546  22780493.822    22780502.255
       223.000         174.000
  20833561.539   -24107574.15949 -18765733.97747  20833561.945    20833568.724
       243.000         207.000
  22758173.412   -13044643.03249 -10147743.76946  22758173.015    22758181.526
       227.000         181.000
  21675291.450   -14445382.63649 -11236663.19347  21675290.609    21675299.146
       236.000         198.000
  24125034.790    -1928661.85949  -1480923.03545  24125034.576    24125044.119
       211.000         148.000
  21019161.614   -23791368.79649 -18523200.05147  21019161.597    21019168.390
       242.000         210.000
  21162893.805   -20026961.77649 -15589426.55547  21162893.044    21162900.311
       239.000         202.000
  24202283.970    -6750261.25049  -5086018.58545  24202282.548    24202292.302
       209.000         139.000
 03  1 13  1 27 30.0000000  0  8G 5G30G17G23G24G 6G10G29
  22799485.183   -13481242.92949 -10487643.82046  22799485.435    22799494.001
       222.000         174.000
  20842977.119   -24058094.89449 -18727178.71247  20842977.647    20842984.134
       242.000         207.000
  22746587.419   -13105527.87949 -10195186.43246  22746587.055    22746595.554
       227.000         182.000
  21661033.646   -14520307.63349 -11295046.22847  21661033.019    21661041.261
       235.000         198.000
  24140010.754    -1849962.60049  -1419598.89745  24140010.708    24140019.686
       211.000         148.000
  21009588.304   -23841676.77449 -18562401.02747  21009588.115    21009595.091
       242.000         210.000
  21172178.745   -19978168.88349 -15551406.09747  21172178.036    21172185.231
       239.000         202.000
  24188613.616    -6822099.09449  -5141996.00045  24188612.822    24188622.712
       207.000         141.000
 03  1 13  1 28  0.0000000  0  8G 5G30G17G23G24G 6G10G29
  22818512.286   -13381254.82549 -10409731.05546  22818511.313    22818520.808
       223.000         174.000
  20852491.897   -24008094.15449 -18688217.10147  20852492.190    20852498.947
       243.000         207.000
  22735037.700   -13166221.83049 -10242480.34646  22735036.592    22735045.406
       227.000         182.000
  21646851.061   -14594837.22949 -11353121.15547  21646850.257    21646858.569
       235.000         198.000
  24154981.006    -1771293.71749  -1358298.43245  24154980.575    24154988.981
       210.000         148.000
  21000058.138   -23891757.95249 -18601425.27547  21000057.892    21000064.661
       242.000         210.000
  21181566.454   -19928836.02849 -15512964.88147  21181565.827    21181573.460
       239.000         202.000
  24174967.167    -6893811.00449  -5197875.25645  24174966.749    24174976.399
       208.000         142.000
 03  1 13  1 28 30.0000000  0  8G 5G30G17G23G24G 6G10G29
  22837574.529   -13281081.93149 -10331674.30346  22837573.917    22837583.409
       224.000         175.000
  20862105.680   -23957573.39249 -18648850.27647  20862106.144    20862112.699
       242.000         207.000
  22723524.353   -13226724.49249 -10289625.20346  22723524.172    22723532.388
       226.000         181.000
  21632744.186   -14668968.85549 -11410885.97247  21632743.463    21632751.849
       235.000         198.000
  24169945.401    -1692654.97249  -1297021.45545  24169944.745    24169954.317
       209.000         148.000
  20990571.553   -23941610.06449 -18640271.02947  20990571.380    20990578.103
       242.000         210.000
  21191056.571   -19878965.00249 -15474104.31147  21191055.877    21191063.160
       239.000         202.000
  24161345.243    -6965393.88449  -5253653.96445  24161344.689    24161353.454
       207.000         141.000
 03  1 13  1 29  0.0000000  0  8G 5G30G17G23G24G 6G10G29
  22856671.359   -13180727.36249 -10253475.99346  22856670.756    22856680.602
       222.000         176.000
  20871818.001   -23906534.86749 -18609079.99747  20871818.401    20871824.996
       242.000         207.000
  22712047.386   -13287035.70049 -10336620.87546  22712046.587    22712055.437
       225.000         180.000
  21618713.362   -14742700.78049 -11468339.33147  21618712.667    21618720.891
       235.000         198.000
  24184903.849    -1614047.68249  -1235768.97345  24184902.920    24184912.525
       208.000         147.000
  20981128.824   -23991231.80049 -18678937.27247  20981128.517    20981135.288
       242.000         210.000
  21200648.695   -19828558.10349 -15434826.18247  21200647.977    21200655.363
       239.000         202.000
  24147748.395    -7036844.83849  -5309329.88445  24147748.052    24147758.529
       207.000         143.000
 03  1 13  1 29 30.0000000  0  8G 5G30G17G23G24G 6G10G29
  22875802.309   -13080193.66049 -10175138.09546  22875802.252    22875811.763
       223.000         175.000
  20881628.529   -23854980.11949 -18568907.46947  20881628.929    20881635.496
       243.000         206.000
  22700606.811   -13347155.83049 -10383467.65946  22700606.267    22700614.763
       225.000         180.000
  21604759.076   -14816030.79549 -11525479.52147  21604758.587    21604766.794
       236.000         198.000
  24199856.246    -1535472.23149  -1174541.32845  24199854.919    24199863.086
       210.000         148.000
  20971730.290   -24040621.24249 -18717422.50947  20971730.053    20971736.816
       242.000         210.000
  21210342.407   -19777617.28549 -15395132.01347  21210341.856    21210348.955
       239.000         202.000
  24134177.407    -7108160.72749  -5364900.57745  24134176.777    24134184.880
       205.000         141.000
 03  1 13  1 30  0.0000000  0  8G 5G30G17G23G24G 6G10G29
  22894966.825   -12979483.55649 -10096662.74346  22894966.694    22894976.069
       223.000         176.000
  20891536.898   -23802911.22149 -18528334.30447  20891537.400    20891543.905
       242.000         206.000
  22689202.609   -13407085.01349 -10430165.64746  22689201.862    22689210.757
       227.000         181.000
  21590881.591   -14888957.13249 -11582305.15447  21590881.014    21590889.282
       236.000         199.000
  24214802.571    -1456929.20149  -1113338.93045  24214801.042    24214809.764
       208.000         148.000
  20962376.203   -24089776.89849 -18755725.58047  20962376.049    20962382.710
       242.000         210.000
  21220137.315   -19726144.81549 -15355023.56647  21220136.585    21220143.586
       239.000         202.000
  24120632.479    -7179338.58349  -5420363.68745  24120633.233    24120642.514
       209.000         144.000
 03  1 13  1 30 30.0000000  0  8G 5G30G17G23G24G 6G10G29
  22914164.379   -12878600.16249 -10018052.36046  22914164.084    22914173.125
       223.000         177.000
  20901542.695   -23750330.40549 -18487362.24647  20901543.183    20901549.712
       242.000         206.000
  22677834.723   -13466823.53649 -10476715.07446  22677834.152    22677842.631
       228.000         182.000
  21577081.225   -14961478.19649 -11638814.99447  21577080.788    21577088.603
       238.000         200.000
  24229742.429    -1378419.44549  -1052162.46645  24229742.968    24229751.380
       215.000         149.000
  20953066.922   -24138697.20449 -18793845.25447  20953066.744    20953073.481
       242.000         210.000
  21230032.898   -19674143.09249 -15314502.71647  21230032.225    21230039.340
       238.000         201.000
  24107114.436    -7250375.76049  -5475717.19645  24107114.152    24107124.130
       209.000         143.000
 03  1 13  1 31  0.0000000  0  9G26G 5G30G17G23G24G 6G10G29
  24322623.400    -1298658.48249   -995404.89844  24322622.959    24322630.875
       202.000         130.000
  22933394.186   -12777546.81849  -9939309.54646  22933393.882    22933403.682
       222.000         176.000
  20911645.399   -23697240.37449 -18445993.39847  20911645.679    20911652.227
       242.000         206.000
  22666502.958   -13526372.39749 -10523116.71546  22666502.657    22666510.640
       228.000         183.000
  21563358.257   -15033592.75749 -11695008.08247  21563357.698    21563365.957
       237.000         200.000
  24244675.826    -1299943.89349   -991012.66445  24244675.600    24244683.291
       211.000         149.000
  20943802.621   -24187381.14749 -18831780.75047  20943802.407    20943809.058
       243.000         210.000
  21240028.635   -19621615.01149 -15273571.71547  21240027.725    21240035.101
       238.000         201.000
  24093623.728    -7321269.88749  -5530959.25745  24093623.821    24093632.218
       208.000         145.000
 03  1 13  1 31 30.0000000  0  9G26G 5G30G17G23G24G 6G10G29
  24305208.677    -1390173.76049  -1066715.32745  24305208.015    24305218.688
       204.000         135.000
  22952655.808   -12676326.45049  -9860436.58446  22952655.577    22952664.547
       223.000         175.000
  20921844.575   -23643643.38349 -18404229.51647  20921845.188    20921851.482
       243.000         206.000
  22655207.225   -13585731.53449 -10569370.52346  22655206.597    22655214.731
       227.000         183.000
  21549712.920   -15105299.06749 -11750883.04147  21549712.405    21549720.257
       236.000         200.000
  24259602.487    -1221503.89249   -929890.56845  24259603.826    24259610.731
       212.000         150.000
  20934583.564   -24235827.23149 -18869530.90247  20934583.340    20934590.122
       243.000         210.000
  21250124.071   -19568562.93149 -15232232.40547  21250123.476    21250130.545
       239.000         201.000
  24080160.620    -7392018.28349  -5586087.73245  24080161.311    24080170.485
       208.000         144.000
 03  1 13  1 32  0.0000000  0  9G26G 5G30G17G23G24G 6G10G29
  24287793.458    -1481689.90649  -1138026.50045  24287794.989    24287806.274
       206.000         139.000
  22971949.046   -12574939.91849  -9781434.13346  22971948.841    22971958.098
       223.000         174.000
  20932140.240   -23589539.41749 -18362070.58647  20932140.721    20932147.242
       243.000         206.000
  22643947.918   -13644899.53949 -10615475.39546  22643946.722    22643955.755
       227.000         183.000
  21536146.005   -15176593.17549 -11806436.80447  21536145.477    21536153.555
       237.000         200.000
  24274522.691    -1143097.41949   -868794.57845  24274522.578    24274531.730
       211.000         150.000
  20925410.489   -24284031.93049 -18907092.96447  20925410.500    20925417.117
       244.000         210.000
  21260319.099   -19514987.45149 -15190485.24447  21260318.248    21260325.695
       238.000         201.000
  24066726.244    -7462615.86649  -5641098.73645  24066726.052    24066736.278
       207.000         146.000
 03  1 13  1 32 30.0000000  0  9G26G 5G30G17G23G24G 6G10G29
  24270378.682    -1573204.32049  -1209336.26745  24270380.435    24270388.798
       208.000         135.000
  22991273.326   -12473390.29449  -9702304.60146  22991273.343    22991282.679
       223.000         173.000
  20942531.935   -23534930.96949 -18319518.55647  20942532.546    20942538.953
       243.000         206.000
  22632724.760   -13703876.96849 -10661431.76446  22632723.991    22632732.348
       226.000         182.000
  21522657.826   -15247473.69049 -11861668.29047  21522657.214    21522665.461
       237.000         200.000
  24289436.256    -1064725.85649   -807725.81545  24289437.013    24289444.834
       216.000         150.000
  20916283.589   -24331993.88149 -18944465.87147  20916283.348    20916290.044
       244.000         210.000
  21270613.241   -19460891.03449 -15148332.17047  21270612.731    21270619.612
       238.000         201.000
  24053321.011    -7533060.14649  -5695990.23545  24053321.312    24053329.625
       210.000         146.000
 03  1 13  1 33  0.0000000  0  9G26G 5G30G17G23G24G 6G10G29
  24252964.959    -1664713.55949  -1280641.97245  24252966.990    24252973.676
       203.000         135.000
  23010628.098   -12371680.22249  -9623050.04746  23010628.124    23010637.102
       223.000         173.000
  20953019.189   -23479820.08049 -18276575.01247  20953019.736    20953026.189
       240.000         206.000
  22621537.919   -13762663.98449 -10707239.76146  22621537.775    22621545.850
       227.000         182.000
  21509248.724   -15317938.80249 -11916576.08547  21509248.187    21509255.977
       237.000         201.000
  24304343.129     -986389.72849   -746684.66745  24304343.593    24304350.136
       211.000         150.000
  20907203.190   -24379711.34149 -18981648.26147  20907202.995    20907209.770
       243.000         211.000
  21281006.109   -19406275.95749 -15105774.93747  21281005.367    21281012.580
       238.000         200.000
  24039945.549    -7603348.13649  -5750759.98045  24039944.992    24039954.865
       208.000         147.000
 03  1 13  1 33 30.0000000  0  9G26G 5G30G17G23G24G 6G10G29
  24235552.694    -1756214.54049  -1351941.26945  24235550.907    24235562.149
       208.000         136.000
  23030012.923   -12269812.55749  -9543672.68746  23030012.824    23030021.346
       222.000         172.000
  20963601.632   -23424208.95349 -18233241.67347  20963602.260    20963608.659
       240.000         205.000
  22610387.249   -13821260.85649 -10752899.59546  22610386.935    22610394.917
       227.000         183.000
  21495918.969   -15387986.81449 -11971158.87247  21495918.275    21495926.330
       237.000         201.000
  24319243.150     -908089.59349   -685671.54445  24319242.978    24319250.929
       211.000         149.000
  20898169.665   -24427182.73449 -19018638.91647  20898169.678    20898176.181
       244.000         211.000
  21291497.236   -19351144.56349 -15062815.39047  21291496.724    21291503.855
       238.000         200.000
  24026600.370    -7673477.08249  -5805405.78345  24026600.421    24026608.287
       211.000         146.000
 03  1 13  1 34  0.0000000  0  9G26G 5G30G17G23G24G 6G10G29
  24218142.694    -1847704.41549  -1423231.95145  24218142.409    24218153.563
       207.000         137.000
  23049427.155   -12167790.53849  -9464175.05346  23049426.934    23049436.464
       221.000         170.000
  20974278.771   -23368100.16349 -18189520.54147  20974279.369    20974285.775
       241.000         205.000
  22599272.783   -13879667.81449 -10798411.44246  22599272.279    22599280.424
       227.000         183.000
  21482668.875   -15457616.28249 -12025415.51247  21482668.318    21482676.349
       237.000         201.000
  24334136.062     -829826.62549   -624687.37645  24334136.428    24334145.346
       210.000         149.000
  20889183.210   -24474406.85149 -19055436.88347  20889183.099    20889189.642
       244.000         211.000
  21302086.135   -19295499.30049 -15019455.41647  21302085.513    21302092.692
       238.000         200.000
  24013285.976    -7743444.30249  -5859925.59445  24013285.978    24013295.422
       211.000         146.000
 03  1 13  1 34 30.0000000  0  9G26G 5G30G17G23G24G 6G10G29
  24200735.465    -1939179.91949  -1494511.46445  24200733.011    24200744.424
       205.000         138.000
  23068870.228   -12065616.59849  -9384559.03546  23068870.154    23068879.182
       220.000         167.000
  20985050.297   -23311495.66549 -18145413.14547  20985050.612    20985057.271
       241.000         205.000
  22588194.290   -13937885.20749 -10843775.58346  22588193.779    22588202.112
       227.000         183.000
  21469498.833   -15526825.14649 -12079344.41147  21469498.346    21469506.184
       237.000         202.000
  24349021.852     -751601.03349   -563732.34845  24349021.333    24349030.130
       210.000         148.000
  20880244.145   -24521381.84749 -19092040.73547  20880244.278    20880250.566
       244.000         211.000
  21312772.402   -19239342.56149 -14975696.89747  21312771.795    21312778.861
       238.000         200.000
  24000002.901    -7813246.79649  -5914316.99845  24000002.864    24000010.983
       210.000         146.000
 03  1 13  1 35  0.0000000  0  9G26G 5G30G17G23G24G 6G10G29
  24183331.588    -2030637.14449  -1565776.68145  24183330.449    24183340.824
       198.000         138.000
  23088341.777   -11963292.94849  -9304826.36446  23088342.363    23088351.011
       219.000         165.000
  20995915.804   -23254396.96849 -18100920.66047  20995916.200    20995922.951
       240.000         205.000
  22577151.925   -13995912.68249 -10888991.73546  22577151.973    22577159.917
       228.000         183.000
  21456409.266   -15595611.02849 -12132943.71647  21456408.597    21456416.590
       238.000         202.000
  24363900.424     -673413.04049   -502806.61245  24363899.044    24363910.323
       205.000         148.000
  20871352.965   -24568105.25749 -19128448.54247  20871353.123    20871359.559
       244.000         211.000
  21323555.723   -19182676.08449 -14931541.18047  21323555.300    21323562.259
       238.000         200.000
  23986751.825    -7882880.84549  -5968577.18245  23986751.198    23986761.421
       209.000         146.000
 03  1 13  1 35 30.0000000  0 10G26G 5G30G17G23G24G 6G10G15G29
  24165931.487    -2122074.22449  -1637026.14545  24165931.993    24165941.112
       208.000         139.000
  23107841.146   -11860823.60149  -9224980.15946  23107840.955    23107849.232
       220.000         164.000
  21006874.671   -23196807.67649 -18056045.89347  21006875.083    21006881.708
       240.000         205.000
  22566145.554   -14053751.51849 -10934060.89046  22566145.273    22566153.416
       227.000         184.000
  21443400.243   -15663973.66949 -12186213.22547  21443399.793    21443407.329
       238.000         203.000
  24378771.680     -595264.17449   -441911.38145  24378771.028    24378780.692
       207.000         148.000
  20862509.709   -24614576.90949 -19164660.17647  20862509.545    20862516.208
       244.000         211.000
  21334435.264   -19125503.78449 -14886991.31247  21334434.708    21334441.888
       238.000         200.000
  24767958.500    -2595532.27549  -1604363.92745  24767958.059    24767968.589
       212.000         142.000
  23973533.180    -7952345.05449  -6022704.99445  23973533.108    23973542.174
       209.000         147.000
 03  1 13  1 36  0.0000000  0 10G26G 5G30G17G23G24G 6G10G15G29
  24148534.749    -2213494.43649  -1708262.56745  24148535.007    24148545.014
       207.000         139.000
  23127366.410   -11758217.88949  -9145027.69946  23127366.527    23127374.749
       220.000         164.000
  21017925.227   -23138736.51049 -18010795.64147  21017925.553    21017932.227
       240.000         205.000
  22555173.685   -14111408.79449 -10978988.57346  22555173.588    22555181.650
       229.000         185.000
  21430470.854   -15731917.74049 -12239156.57547  21430470.494    21430478.204
       238.000         203.000
  24393634.172     -517161.45249   -381052.08445  24393634.168    24393641.229
       210.000         147.000
  20853713.429   -24660801.60549 -19200679.37647  20853713.215    20853719.880
       244.000         212.000
  21345409.342   -19067834.51149 -14842054.19247  21345408.881    21345415.660
       239.000         200.000
  24752050.577    -2679128.13649  -1669503.36145  24752049.573    24752060.883
       211.000         144.000
  23960346.158    -8021642.82149  -6076703.10145  23960345.388    23960355.962
       209.000         148.000
 03  1 13  1 36 30.0000000  0 10G26G 5G30G17G23G24G 6G10G15G29
  24131143.886    -2304883.40649  -1779474.63745  24131143.867    24131153.947
       204.000         137.000
  23146919.229   -11655467.67149  -9064962.62746  23146919.261    23146928.021
       221.000         165.000
  21029069.204   -23080174.48249 -17965162.89847  21029069.258    21029076.063
       239.000         204.000
  22544238.475   -14168873.40249 -11023766.12346  22544238.089    22544245.791
       228.000         185.000
  21417623.539   -15799430.53249 -12291763.86347  21417623.098    21417630.841
       239.000         203.000
  24408489.763     -439094.54149   -320220.73645  24408491.223    24408496.643
       212.000         148.000
  20844966.523   -24706766.62249 -19236496.22647  20844966.440    20844972.797
       244.000         211.000
  21356479.683   -19009659.42749 -14796722.93447  21356479.047    21356485.960
       238.000         200.000
  24736164.885    -2762607.30449  -1734551.88945  24736164.260    24736174.419
       210.000         146.000
  23947193.532    -8090760.22949  -6130560.69545  23947193.973    23947201.584
       211.000         149.000
 03  1 13  1 37  0.0000000  0 10G26G 5G30G17G23G24G 6G10G15G29
  24113759.152    -2396239.66049  -1850661.08945  24113758.782    24113767.676
       208.000         137.000
  23166498.684   -11552577.19749  -8984788.27546  23166498.677    23166507.686
       221.000         166.000
  21040305.817   -23021125.60349 -17919150.78847  21040306.169    21040312.748
       239.000         203.000
  22533339.631   -14226146.93249 -11068394.77746  22533339.044    22533346.929
       228.000         184.000
  21404858.353   -15866511.82649 -12344034.92047  21404857.575    21404865.597
       238.000         203.000
  24423338.122     -361065.66949   -259418.99445  24423340.993    24423348.501
       215.000         148.000
  20836269.085   -24752471.84449 -19272110.64047  20836268.921    20836275.325
       244.000         212.000
  21367645.482   -18950982.71549 -14751000.79247  21367644.847    21367651.746
       238.000         200.000
  24720301.115    -2845971.33249  -1799510.70045  24720299.693    24720310.689
       211.000         147.000
  23934075.302    -8159695.94049  -6184276.67645  23934074.305    23934082.948
       209.000         148.000
 03  1 13  1 37 30.0000000  0 10G26G 5G30G17G23G24G 6G10G15G29
  24096381.511    -2487560.14549  -1921819.80645  24096382.062    24096393.389
       203.000         141.000
  23186104.246   -11449549.68949  -8904507.14646  23186103.395    23186112.367
       222.000         167.000
  21051634.559   -22961592.57949 -17872761.42747  21051635.086    21051641.537
       240.000         203.000
  22522476.952   -14283230.33549 -11112875.29046  22522476.484    22522485.093
       229.000         184.000
  21392175.450   -15933160.40149 -12395968.79847  21392174.826    21392182.710
       238.000         203.000
  24438179.172     -283075.46349   -198647.35545  24438179.580    24438190.803
       213.000         146.000
  20827621.261   -24797916.16049 -19307521.76047  20827620.988    20827627.611
       244.000         212.000
  21378906.211   -18891807.10849 -14704889.90847  21378905.772    21378912.477
       238.000         199.000
  24704459.136    -2929220.37149  -1864379.90045  24704458.599    24704469.778
       211.000         149.000
  23920992.075    -8228447.62749  -6237849.26245  23920991.902    23921000.493
       210.000         148.000
 03  1 13  1 38  0.0000000  0 10G26G 5G30G17G23G24G 6G10G15G29
  24079010.894    -2578842.94649  -1992949.15445  24079009.569    24079022.279
       204.000         138.000
  23205735.028   -11346389.29149  -8824122.44946  23205735.184    23205743.919
       222.000         167.000
  21063054.801   -22901578.75249 -17825997.40547  21063055.140    21063061.674
       239.000         203.000
  22511650.195   -14340125.01249 -11157208.73446  22511649.359    22511657.245
       229.000         185.000
  21379574.936   -15999375.99849 -12447565.28647  21379574.339    21379582.373
       239.000         204.000
  24453012.556     -205125.91849   -137907.45445  24453011.422    24453021.659
       205.000         146.000
  20819023.174   -24843099.06149 -19342729.16947  20819022.910    20819029.506
       244.000         211.000
  21390261.160   -18832136.40949 -14658393.23447  21390260.441    21390267.459
       237.000         199.000
  24688638.942    -3012355.49949  -1929160.36545  24688637.922    24688649.005
       205.000         148.000
  23907944.386    -8297013.39949  -6291276.98645  23907945.204    23907952.546
       212.000         149.000
 03  1 13  1 38 30.0000000  0 10G26G 5G30G17G23G24G 6G10G15G29
  24061647.866    -2670084.71449  -2064046.38145  24061646.129    24061657.163
       205.000         136.000
  23225390.628   -11243098.54249  -8743636.18346  23225390.717    23225398.702
       222.000         168.000
  21074566.090   -22841086.55649 -17778860.63147  21074566.601    21074573.102
       239.000         202.000
  22500859.352   -14396831.19849 -11201395.29846  22500859.079    22500867.717
       229.000         186.000
  21367057.202   -16065156.82249 -12498822.99947  21367056.565    21367064.173
       239.000         204.000
  24467838.200     -127217.25249    -77199.36345  24467836.219    24467848.290
       208.000         145.000
  20810475.214   -24888018.61449 -19377731.37947  20810475.138    20810481.584
       244.000         211.000
  21401709.861   -18771973.10449 -14611512.71347  21401709.005    21401716.024
       238.000         199.000
  24672840.442    -3095376.49649  -1993851.86045  24672839.249    24672850.360
       205.000         147.000
  23894932.524    -8365390.28049  -6344557.47845  23894932.532    23894940.213
       213.000         149.000
 03  1 13  1 39  0.0000000  0 10G26G 5G30G17G23G24G 6G10G15G29
  24044293.284    -2761281.69949  -2135108.74745  24044291.953    24044302.280
       208.000         137.000
  23245070.626   -11139679.64649  -8663050.07246  23245070.712    23245080.444
       220.000         168.000
  21086168.056   -22780117.69349 -17731352.43147  21086168.449    21086175.082
       239.000         202.000
  22490104.351   -14453348.91349 -11245435.01246  22490104.085    22490111.897
       229.000         187.000
  21354622.605   -16130500.67149 -12549740.20647  21354622.283    21354629.752
       239.000         205.000
  24482655.838      -49349.64849    -16523.27045  24482656.070    24482662.878
       205.000         145.000
  20801977.824   -24932672.50849 -19412526.57747  20801977.760    20801984.206
       244.000         212.000
  21413251.906   -18711319.02649 -14564249.76847  21413251.075    21413258.257
       238.000         199.000
  24657063.860    -3178282.33549  -2058453.63345  24657062.971    24657073.576
       202.000         146.000
  23881957.356    -8433574.87349  -6397688.17945  23881956.346    23881966.319
       211.000         150.000
 03  1 13  1 39 30.0000000  0 10G26G 5G30G17G23G24G 6G10G15G29
  24026948.059    -2852431.18149  -2206134.18745  24026947.520    24026958.787
       212.000         141.000
  23264774.288   -11036136.29249  -8582366.96746  23264774.302    23264782.660
       221.000         168.000
  21097860.167   -22718675.23149 -17683475.20047  21097860.535    21097867.426
       238.000         203.000
  22479385.117   -14509678.49849 -11289328.11946  22479384.466    22479392.934
       228.000         186.000
  21342271.317   -16195406.74849 -12600316.29547  21342270.773    21342278.182
       239.000         204.000
  24497465.308       28475.70949     44119.83845  24497467.766    24497473.839
       210.000         146.000
  20793531.144   -24977059.92949 -19447114.13947  20793530.958    20793537.442
       244.000         212.000
  21424886.702   -18650177.39349 -14516606.91047  21424886.320    21424892.934
       237.000         198.000
  24641308.942    -3261073.72849  -2122966.21345  24641307.258    24641319.146
       197.000         144.000
  23869019.237    -8501564.95949  -6450667.29045  23869018.263    23869028.327
       208.000         152.000
 03  1 13  1 40  0.0000000  0 10G26G 5G30G17G23G24G 6G10G15G29
  24009612.603    -2943529.62249  -2277119.81245  24009612.351    24009622.101
       209.000         144.000
  23284501.271   -10932470.73449  -8501588.64846  23284501.035    23284509.737
       220.000         168.000
  21109642.063   -22656761.07249 -17635230.41147  21109642.409    21109649.383
       239.000         203.000
  22468701.594   -14565820.13549 -11333074.76346  22468701.302    22468708.921
       228.000         185.000
  21330003.738   -16259872.90849 -12650549.58847  21330003.296    21330010.790
       239.000         204.000
  24512266.824      106258.99249    104730.22545  24512268.969    24512277.360
       212.000         145.000
  20785135.572   -25021178.72449 -19481492.37647  20785135.450    20785141.858
       245.000         212.000
  21436613.978   -18588550.01149 -14468585.54247  21436613.421    21436620.340
       238.000         198.000
  24625576.103    -3343749.91949  -2187389.00945  24625574.839    24625585.760
       199.000         142.000
  23856118.593    -8569357.35549  -6503492.36445  23856119.122    23856126.743
       213.000         151.000
 03  1 13  1 40 30.0000000  0 10G26G 5G30G17G23G24G 6G10G15G29
  23992287.347    -3034573.86849  -2348063.15845  23992287.165    23992296.834
       202.000         143.000
  23304250.908   -10828685.90049  -8420717.41346  23304250.913    23304260.055
       218.000         169.000
  21121513.226   -22594377.61249 -17586619.93547  21121513.920    21121520.456
       240.000         204.000
  22458053.834   -14621774.08449 -11376675.17446  22458053.453    22458061.502
       228.000         185.000
  21317820.124   -16323897.83249 -12700439.06547  21317819.611    21317827.457
       239.000         205.000
  24527060.312      183999.45349    165307.22245  24527060.849    24527066.667
       211.000         142.000
  20776791.431   -25065027.36549 -19515660.10947  20776791.387    20776797.825
       244.000         212.000
  21448433.129   -18526439.79149 -14420187.94547  21448432.769    21448439.739
       237.000         198.000
  24609865.064    -3426311.30249  -2251722.31945  24609864.665    24609876.008
       198.000         141.000
  23843256.087    -8636949.00649  -6556160.98945  23843256.377    23843264.564
       214.000         152.000
 03  1 13  1 41  0.0000000  0 10G26G 5G30G17G23G24G 6G10G15G29
  23974973.126    -3125560.52049  -2418961.70145  23974971.483    23974982.180
       203.000         141.000
  23324022.645   -10724784.49549  -8339755.32846  23324021.926    23324032.117
       218.000         169.000
  21133473.292   -22531527.28749 -17537645.65847  21133473.930    21133480.348
       240.000         204.000
  22447441.760   -14677540.32149 -11420129.30546  22447441.100    22447449.600
       228.000         185.000
  21305720.814   -16387479.77349 -12749983.35947  21305720.347    21305727.959
       239.000         205.000
  24541845.589      261696.33949    225850.27045  24541844.455    24541855.872
       207.000         144.000
  20768498.988   -25108604.22549 -19549616.05947  20768498.738    20768505.502
       244.000         212.000
  21460343.715   -18463849.31049 -14371416.11747  21460343.164    21460350.339
       237.000         198.000
  24594175.811    -3508757.43249  -2315965.83945  24594174.847    24594185.236
       201.000         141.000
  23830432.538    -8704337.14749  -6608671.08545  23830431.825    23830441.466
       211.000         152.000
 03  1 13  1 41 30.0000000  0 10G26G 5G30G17G23G24G 6G10G15G29
  23957670.404    -3216486.20449  -2489812.73245  23957670.550    23957680.114
       204.000         141.000
  23343816.137   -10620769.24749  -8258704.53746  23343816.232    23343825.145
       219.000         168.000
  21145521.743   -22468212.54449 -17488309.49747  21145522.320    21145528.728
       240.000         204.000
  22436865.364   -14733119.52049 -11463437.69346  22436864.902    22436872.845
       230.000         187.000
  21293706.135   -16450617.12249 -12799181.21847  21293705.654    21293713.390
       239.000         205.000
  24556622.483      339349.67149    286359.41145  24556622.754    24556632.280
       210.000         142.000
  20760258.623   -25151907.49249 -19583358.82147  20760258.492    20760265.003
       245.000         212.000
  21472345.202   -18400780.91549 -14322271.88747  21472344.515    21472351.509
       237.000         197.000
  24578508.741    -3591088.15049  -2380119.43345  24578507.693    24578518.205
       200.000         141.000
  23817648.217    -8771518.81249  -6661020.26545  23817647.776    23817656.557
       209.000         152.000
 03  1 13  1 42  0.0000000  0 10G26G 5G30G17G23G24G 6G10G15G29
  23940380.024    -3307347.58549  -2560613.65145  23940378.641    23940389.151
       208.000         142.000
  23363630.822   -10516642.91449  -8177567.18046  23363630.505    23363639.789
       219.000         169.000
  21157658.061   -22404435.59849 -17438613.17847  21157658.458    21157664.894
       239.000         203.000
  22426324.536   -14788511.93649 -11506600.53646  22426323.989    22426331.869
       231.000         187.000
  21281776.341   -16513308.28249 -12848031.39647  21281775.953    21281783.606
       240.000         206.000
  24571391.130      416959.18449    346834.34145  24571391.070    24571399.429
       208.000         142.000
  20752070.606   -25194935.57849 -19616887.15647  20752070.560    20752076.809
       245.000         212.000
  21484437.116   -18337237.14249 -14272757.23147  21484436.344    21484443.366
       237.000         197.000
  24562863.589    -3673303.19049  -2444182.90645  24562862.694    24562873.893
       201.000         143.000
  23804903.512    -8838491.09749  -6713206.26745  23804903.268    23804912.187
       214.000         152.000
 03  1 13  1 42 30.0000000  0 10G26G 5G30G17G23G24G 6G10G15G29
  23923102.362    -3398141.67849  -2631362.12545  23923103.040    23923111.959
       204.000         145.000
  23383466.029   -10412408.37749  -8096345.51246  23383466.063    23383474.836
       218.000         167.000
  21169881.797   -22340199.32149 -17388558.94747  21169882.076    21169888.812
       239.000         202.000
  22415819.196   -14843717.94849 -11549618.12746  22415818.602    22415826.449
       230.000         187.000
  21269931.680   -16575552.24249 -12896533.11247  21269931.393    21269938.818
       239.000         206.000
  24586151.038      494523.81949    407274.33345  24586151.711    24586160.947
       210.000         142.000
  20743935.257   -25237687.01449 -19650199.91847  20743935.153    20743941.543
       245.000         212.000
  21496618.982   -18273220.97049 -14222874.47447  21496618.351    21496625.273
       237.000         197.000
  24547240.461    -3755402.52749  -2508156.22745  24547239.580    24547250.735
       205.000         145.000
  23792199.364    -8905251.41849  -6765227.12545  23792199.293    23792206.831
       214.000         151.000
 03  1 13  1 43  0.0000000  0 10G26G 5G30G17G23G24G 6G10G15G29
  23905838.168    -3488864.31949  -2702054.89745  23905838.652    23905848.798
       211.000         146.000
  23403321.322   -10308067.75749  -8015041.18546  23403321.258    23403330.203
       217.000         165.000
  21182192.650   -22275505.15049 -17338147.91747  21182192.873    21182199.527
       238.000         201.000
  22405349.374   -14898736.80849 -11592489.89446  22405348.470    22405356.689
       230.000         187.000
  21258172.546   -16637346.55249 -12944684.44947  21258172.034    21258179.536
       239.000         206.000
  24600902.592      572044.25049    467679.87845  24600902.669    24600908.845
       209.000         140.000
  20735853.076   -25280158.98649 -19683294.92048  20735853.138    20735859.305
       244.000         213.000
  21508890.380   -18208734.01649 -14172624.86747  21508889.636    21508896.707
       237.000         197.000
  24531639.609    -3837385.00949  -2572038.52145  24531638.650    24531649.645
       207.000         145.000
  23779536.366    -8971795.78449  -6817079.74045  23779535.700    23779545.533
       211.000         152.000
 03  1 13  1 43 30.0000000  0 10G26G 5G30G17G23G24G 6G10G15G29
  23888588.300    -3579512.78149  -2772689.94945  23888589.284    23888598.507
       212.000         146.000
  23423196.227   -10203624.50249  -7933656.87846  23423196.299    23423205.009
       215.000         163.000
  21194590.016   -22210356.31449 -17287382.60247  21194590.700    21194597.075
       239.000         201.000
  22394914.982   -14953569.70949 -11635216.75646  22394914.134    22394922.395
       231.000         186.000
  21246499.103   -16698690.41049 -12992484.78447  21246498.325    21246505.944
       239.000         206.000
  24615645.641      649519.21549    528050.00245  24615644.034    24615655.904
       208.000         142.000
  20727824.259   -25322350.62449 -19716171.48148  20727824.216    20727830.603
       244.000         213.000
  21521250.803   -18143779.57349 -14122010.99947  21521250.199    21521257.343
       237.000         197.000
  24516060.790    -3919251.40749  -2635830.36445  24516060.295    24516069.766
       211.000         146.000
  23766914.701    -9038122.29249  -6868762.56745  23766914.258    23766921.675
       210.000         151.000
 03  1 13  1 44  0.0000000  0 10G26G 5G30G17G23G24G 6G10G15G29
  23871353.064    -3670083.27049  -2843264.20745  23871352.896    23871362.319
       209.000         142.000
  23443090.282   -10099080.68749  -7852194.21545  23443089.987    23443099.368
       213.000         160.000
  21207073.588   -22144754.76349 -17236264.51847  21207074.118    21207080.940
       239.000         201.000
  22384516.060   -15008216.13849 -11677798.32346  22384515.592    22384523.212
       230.000         187.000
  21234911.822   -16759581.72349 -13039932.48647  21234911.527    21234918.816
       240.000         206.000
  24630379.885      726948.52149    588384.57745  24630378.983    24630388.759
       206.000         140.000
  20719849.165   -25364259.84449 -19748827.97548  20719848.987    20719855.514
       244.000         213.000
  21533699.743   -18078359.77849 -14071034.51247  21533698.960    21533706.026
       236.000         196.000
  24500504.284    -4001000.91449  -2699531.15045  24500503.854    24500513.964
       213.000         145.000
  23754335.202    -9104227.39149  -6920272.86745  23754335.116    23754343.775
       212.000         152.000
 03  1 13  1 44 30.0000000  0 10G26G 5G30G17G23G24G 6G10G15G29
  23854133.362    -3760572.60249  -2913775.22745  23854133.657    23854143.280
       214.000         146.000
  23463002.889    -9994439.30549  -7770655.53745  23463001.752    23463011.504
       213.000         158.000
  21219642.825   -22078703.14949 -17184795.73247  21219643.576    21219650.107
       239.000         201.000
  22374152.484   -15062676.73949 -11720235.07746  22374151.108    22374159.864
       230.000         187.000
  21223410.890   -16820019.36349 -13087026.67947  21223410.289    21223417.773
       240.000         206.000
  24645105.439      804331.72949    648683.16045  24645105.479    24645113.977
       202.000         140.000
  20711928.067   -25405885.14149 -19781263.22948  20711927.961    20711934.534
       245.000         213.000
  21546236.700   -18012477.46949 -14019697.62547  21546236.161    21546243.083
       237.000         196.000
  24484969.940    -4082633.91549  -2763141.16445  24484968.549    24484979.416
       211.000         143.000
  23741798.306    -9170108.61649  -6971608.74545  23741797.885    23741806.409
       213.000         152.000
 03  1 13  1 45  0.0000000  0 10G26G 5G30G17G23G24G 6G10G15G29
  23836929.937    -3850977.29649  -2984220.33145  23836928.957    23836939.179
       211.000         148.000
  23482933.539    -9889702.87249  -7689042.78645  23482933.004    23482942.808
       216.000         159.000
  21232297.265   -22012203.76349 -17132978.03347  21232297.696    21232304.200
       239.000         202.000
  22363824.275   -15116951.21849 -11762526.80046  22363823.857    22363831.450
       230.000         187.000
  21211996.549   -16880001.67649 -13133766.06847  21211995.961    21212003.487
       240.000         207.000
  24659822.129      881668.70049    708945.77845  24659822.470    24659834.007
       211.000         141.000
  20704061.408   -25447224.57549 -19813475.73148  20704061.317    20704067.810
       245.000         213.000
  21558861.250   -17946135.00649 -13968002.17647  21558860.601    21558867.790
       236.000         196.000
  24469457.845    -4164149.93049  -2826660.01545  24469456.868    24469467.964
       212.000         142.000
  23729304.617    -9235762.50449  -7022767.45545  23729304.664    23729312.587
       213.000         153.000
 03  1 13  1 45 30.0000000  0 10G26G 5G30G17G23G24G 6G10G15G29
  23819743.050    -3941293.64649  -3054596.54745  23819744.194    23819752.588
       213.000         146.000
  23502881.902    -9784873.97649  -7607357.98145  23502882.333    23502890.621
       218.000         161.000
  21245036.453   -21945258.90149 -17080813.21647  21245037.107    21245043.762
       239.000         202.000
  22353531.381   -15171040.42549 -11804674.15947  22353530.993    22353538.488
       231.000         188.000
  21200669.137   -16939527.15849 -13180149.48947  21200668.842    21200676.179
       240.000         207.000
  24674530.077      958959.11349    769172.07745  24674529.629    24674537.593
       200.000         139.000
  20696249.486   -25488276.29949 -19845464.04548  20696249.355    20696255.903
       245.000         213.000
  21571572.954   -17879334.66849 -13915949.94547  21571572.281    21571579.396
       236.000         195.000
  24453968.013    -4245548.63749  -2890087.47345  24453968.480    24453977.880
       210.000         140.000
  23716854.754    -9301186.32149  -7073746.90645  23716853.834    23716862.776
       211.000         153.000
 03  1 13  1 46  0.0000000  0 10G26G 5G30G17G23G24G 6G10G15G29
  23802573.791    -4031518.68749  -3124901.69345  23802574.930    23802582.618
       214.000         145.000
  23522847.289    -9679955.61949  -7525603.45345  23522846.862    23522855.963
       219.000         161.000
  21257859.920   -21877871.33749 -17028303.43447  21257860.459    21257866.996
       238.000         201.000
  22343273.735   -15224944.59049 -11846677.33547  22343273.174    22343281.433
       231.000         188.000
  21189428.938   -16998594.68149 -13226176.06247  21189428.724    21189435.901
       241.000         207.000
  24689229.134     1036202.79949    829361.97545  24689229.292    24689240.515
       210.000         141.000
  20688492.612   -25529038.69649 -19877226.91148  20688492.555    20688498.932
       245.000         213.000
  21584371.174   -17812079.32949 -13863543.16547  21584370.331    21584377.484
       235.000         195.000
  24438500.594    -4326829.99949  -2953423.45545  24438499.549    24438509.837
       208.000         139.000
  23704449.177    -9366377.28049  -7124544.91745  23704448.122    23704456.906
       211.000         153.000
 03  1 13  1 46 30.0000000  0 10G26G 5G30G17G23G24G 6G10G15G29
  23785422.494    -4121648.88249  -3195132.88245  23785422.904    23785432.135
       209.000         146.000
  23542829.186    -9574950.28549  -7443781.15245  23542829.498    23542838.139
       219.000         162.000
  21270767.122   -21810043.65649 -16975450.70347  21270767.604    21270774.030
       238.000         201.000
  22333051.249   -15278663.81249 -11888536.39947  22333050.641    22333058.555
       231.000         188.000
  21178276.132   -17057202.74549 -13271844.60647  21178275.725    21178283.197
       241.000         207.000
  24703919.254     1113399.14949    889515.01645  24703918.793    24703924.997
       206.000         139.000
  20680791.173   -25569509.95149 -19908762.91148  20680791.126    20680797.412
       245.000         213.000
  21597255.468   -17744371.72349 -13810783.96947  21597254.872    21597262.034
       235.000         195.000
  24423055.515    -4407993.78949  -3016667.83245  24423054.421    24423064.722
       209.000         139.000
  23692088.475    -9431332.32949  -7175159.08745  23692089.298    23692097.132
       212.000         153.000
 03  1 13  1 47  0.0000000  0 10G26G 5G30G17G23G24G 6G10G15G29
  23768289.882    -4211680.99149  -3265287.57845  23768290.515    23768297.901
       213.000         146.000
  23562827.098    -9469860.91349  -7361893.37245  23562826.794    23562836.367
       220.000         161.000
  21283757.565   -21741778.35649 -16922256.97547  21283758.241    21283764.549
       238.000         201.000
  22322863.826   -15332198.56549 -11930251.72347  22322862.854    22322871.227
       231.000         189.000
  21167211.011   -17115350.12249 -13317154.17847  21167210.535    21167217.874
       241.000         208.000
  24718600.204     1190547.73249    949630.78945  24718600.769    24718607.419
       206.000         140.000
  20673145.415   -25609688.56649 -19940070.88048  20673145.279    20673151.610
       245.000         213.000
  21610225.302   -17676214.55149 -13757674.46547  21610224.733    21610231.644
       235.000         194.000
  24407632.818    -4489040.03049  -3079820.58345  24407632.048    24407642.455
       210.000         139.000
  23679773.209    -9496048.81949  -7225587.34445  23679773.434    23679780.837
       213.000         153.000
 03  1 13  1 47 30.0000000  0 10G26G 5G30G17G23G24G 6G10G15G29
  23751176.627    -4301611.15749  -3335362.92345  23751177.072    23751184.739
       210.000         144.000
  23582840.481    -9364689.91149  -7279941.98745  23582840.399    23582849.407
       216.000         160.000
  21296830.923   -21673077.69049 -16868723.99447  21296831.440    21296837.918
       238.000         200.000
  22312711.584   -15385548.44349 -11971822.98147  22312710.952    22312719.028
       231.000         189.000
  21156233.914   -17173035.04349 -13362103.40147  21156233.604    21156240.675
       240.000         208.000
  24733272.065     1267648.45149   1009709.30845  24733271.712    24733281.392
       208.000         141.000
  20665555.765   -25649572.33449 -19971149.09848  20665555.614    20665561.994
       245.000         214.000
  21623280.290   -17607610.05949 -13704216.39847  21623279.795    21623286.396
       235.000         194.000
  24392232.552    -4569968.28049  -3142881.37745  24392230.900    24392242.187
       206.000         140.000
  23667503.971    -9560523.40449  -7275827.13745  23667504.008    23667512.110
       214.000         153.000
 03  1 13  1 48  0.0000000  0 10G26G 5G30G17G23G24G 6G10G15G29
  23734083.464    -4391436.03749  -3405356.20045  23734083.716    23734093.139
       213.000         148.000
  23602868.758    -9259440.08549  -7197929.18345  23602868.034    23602877.568
       217.000         158.000
  21309986.575   -21603944.19549 -16814853.74547  21309987.293    21309993.712
       238.000         200.000
  22302594.547   -15438713.69849 -12013250.38947  22302593.796    22302601.973
       232.000         190.000
  21145345.008   -17230256.14149 -13406691.19947  21145344.423    21145351.749
       240.000         207.000
  24747934.659     1344701.04449   1069750.33045  24747933.782    24747944.636
       205.000         140.000
  20658022.541   -25689159.58349 -20001996.26948  20658022.519    20658028.828
       245.000         214.000
  21636419.937   -17538560.68149 -13650411.66847  21636419.249    21636426.119
       235.000         194.000
  24376854.855    -4650778.29549  -3205850.03045  24376854.425    24376864.348
       207.000         141.000
  23655281.347    -9624753.23849  -7325876.20345  23655280.180    23655288.468
       211.000         152.000
 03  1 13  1 48 30.0000000  0 10G26G 5G30G17G23G24G 6G10G15G29
  23717010.856    -4481152.27549  -3475264.74845  23717010.745    23717020.391
       210.000         148.000
  23622911.726    -9154114.05049  -7115856.99945  23622911.169    23622920.331
       216.000         157.000
  21323224.164   -21534380.40049 -16760648.18947  21323224.809    21323231.082
       238.000         200.000
  22292512.537   -15491694.90649 -12054534.38647  22292512.135    22292519.788
       233.000         190.000
  21134544.624   -17287012.14749 -13450916.58447  21134544.130    21134551.470
       240.000         207.000
  24762588.008     1421705.02049   1129753.48045  24762586.918    24762595.899
       205.000         139.000
  20650546.059   -25728448.63049 -20032611.06948  20650545.965    20650552.209
       245.000         214.000
  21649643.624   -17469069.38149 -13596262.57947  21649642.674    21649649.791
       235.000         193.000
  24361499.637    -4731469.86949  -3268726.37945  24361497.916    24361507.855
       207.000         142.000
  23643105.773    -9688735.56549  -7375732.42445  23643105.788    23643113.874
       214.000         153.000
 03  1 13  1 49  0.0000000  0 10G26G 5G30G17G23G24G 6G10G15G29
  23699959.554    -4570756.62349  -3545086.15245  23699959.809    23699968.716
       214.000         150.000
  23642968.603    -9048714.71149  -7033727.69845  23642968.693    23642977.178
       217.000         157.000
  21336543.041   -21464389.16049 -16706109.56847  21336543.209    21336550.038
       238.000         199.000
  22282465.458   -15544492.51449 -12095675.32647  22282465.160    22282472.189
       233.000         190.000
  21123833.000   -17343301.82449 -13494778.59847  21123832.575    21123839.755
       241.000         208.000
  24777232.066     1498660.05249   1189718.45045  24777233.308    24777237.847
       208.000         140.000
  20643126.626   -25767437.83249 -20062992.22448  20643126.701    20643132.801
       245.000         214.000
  21662950.914   -17399138.94849 -13541771.30947  21662950.402    21662956.999
       235.000         193.000
  24346166.919    -4812042.86349  -3331510.33045  24346166.650    24346175.845
       212.000         144.000
  23630977.970    -9752467.66849  -7425393.65545  23630977.894    23630985.663
       214.000         154.000
 03  1 13  1 49 30.0000000  0 10G26G 5G30G17G23G24G 6G10G15G29
  23682930.345    -4660245.29749  -3614817.37845  23682928.870    23682939.358
       213.000         150.000
  23663039.008    -8943244.22449  -6951542.95445  23663038.809    23663047.714
       217.000         158.000
  21349942.834   -21393972.62949 -16651239.54847  21349943.302    21349949.826
       238.000         199.000
  22272453.290   -15597106.44849 -12136673.13847  22272452.452    22272460.461
       231.000         189.000
  21113210.422   -17399123.59649 -13538276.01547  21113209.939    21113217.235
       242.000         208.000
  24791866.598     1575566.22649   1249645.35645  24791868.277    24791874.462
       211.000         141.000
  20635764.646   -25806125.21549 -20093138.19648  20635764.517    20635770.721
       246.000         214.000
  21676341.253   -17328771.97949 -13486939.87747  21676340.692    21676347.845
       235.000         193.000
  24330856.852    -4892496.94849  -3394201.62145  24330855.769    24330865.605
       214.000         146.000
  23618898.355    -9815946.33449  -7474857.41445  23618898.087    23618905.994
       213.000         154.000
 03  1 13  1 50  0.0000000  0 10G26G 5G30G17G23G24G 6G10G15G29
  23665923.714    -4749614.89549  -3684455.86845  23665923.862    23665931.277
       216.000         148.000
  23683122.374    -8837705.49349  -6869305.03245  23683122.266    23683131.056
       218.000         160.000
  21363423.098   -21323133.50449 -16596040.22947  21363423.680    21363429.871
       238.000         199.000
  22262475.999   -15649537.00549 -12177528.05247  22262475.749    22262483.317
       231.000         189.000
  21102677.099   -17454476.36949 -13581407.97647  21102676.701    21102683.963
       241.000         209.000
  24806491.935     1652422.98649   1309533.79045  24806491.164    24806500.040
       208.000         139.000
  20628460.457   -25844509.08849 -20123047.66748  20628460.374    20628466.515
       245.000         214.000
  21689814.243   -17257970.97949 -13431770.24547  21689813.664    21689820.578
       235.000         193.000
  24315569.439    -4972832.37449  -3456800.45645  24315568.302    24315578.198
       213.000         147.000
  23606867.367    -9879168.71449  -7524121.46145  23606867.416    23606875.139
       215.000         154.000
 03  1 13  1 50 30.0000000  0 10G26G 5G30G17G23G24G 6G10G15G29
  23648940.454    -4838861.68049  -3753998.62545  23648940.769    23648949.217
       216.000         152.000
  23703218.237    -8732101.03849  -6787015.90245  23703217.594    23703227.044
       217.000         160.000
  21376983.267   -21251874.14449 -16540513.46447  21376983.892    21376990.293
       237.000         199.000
  22252533.657   -15701784.02449 -12218239.95447  22252533.642    22252540.964
       231.000         189.000
  21092233.273   -17509358.62249 -13624173.30047  21092232.831    21092240.144
       241.000         209.000
  24821107.932     1729230.68249   1369383.98345  24821108.834    24821115.176
       209.000         140.000
  20621214.347   -25882587.50549 -20152719.12248  20621214.270    20621220.431
       245.000         214.000
  21703369.356   -17186738.46549 -13376264.36847  21703368.900    21703375.530
       235.000         193.000
  24300304.658    -5053048.56349  -3519306.39545  24300303.440    24300314.143
       215.000         148.000
  23594885.863    -9942131.77349  -7573183.43345  23594885.251    23594892.359
       212.000         155.000
 03  1 13  1 51  0.0000000  0 10G26G 5G30G17G23G24G 6G10G15G29
  23631981.180    -4927982.95749  -3823443.58145  23631980.670    23631990.882
       214.000         151.000
  23723326.006    -8626434.25849  -6704678.20745  23723325.484    23723336.311
       214.000         158.000
  21390622.779   -21180198.02249 -16484661.95047  21390622.830    21390629.980
       237.000         199.000
  22242626.004   -15753848.89249 -12258809.91847  22242625.321    22242633.208
       232.000         190.000
  21081879.113   -17563769.82449 -13666571.56847  21081878.809    21081885.849
       241.000         209.000
  24835714.284     1805988.25249   1429195.07445  24835715.952    24835723.248
       214.000         141.000
  20614026.562   -25920359.36649 -20182151.69848  20614026.386    20614032.592
       244.000         214.000
  21717005.958   -17115077.44249 -13320424.58147  21717005.680    21717012.415
       234.000         193.000
  24285062.452    -5133146.10449  -3581719.88345  24285061.422    24285071.527
       215.000         148.000
  23582953.947   -10004833.32949  -7622041.65845  23582953.511    23582961.567
       212.000         154.000
 03  1 13  1 51 30.0000000  0 10G26G 5G30G17G23G24G 6G10G15G29
  23615046.411    -5016974.96649  -3892787.84145  23615045.304    23615053.896
       212.000         148.000
  23743445.171    -8520707.47149  -6622293.75545  23743445.125    23743454.840
       212.000         156.000
  21404341.171   -21108107.21549 -16428487.30147  21404341.723    21404348.653
       237.000         199.000
  22232753.104   -15805731.14149 -12299237.58647  22232752.885    22232760.216
       232.000         190.000
  21071614.974   -17617708.16649 -13708601.38047  21071614.605    21071621.528
       241.000         209.000
  24850311.192     1882695.58249   1488967.09345  24850310.868    24850320.108
       208.000         137.000
  20606897.472   -25957822.47549 -20211343.69748  20606897.202    20606903.629
       243.000         214.000
  21730723.670   -17042990.45949 -13264252.87847  21730723.163    21730729.987
       235.000         192.000
  24269842.963    -5213124.47349  -3644040.52845  24269841.678    24269851.793
       215.000         149.000
  23571072.605   -10067270.03149  -7670693.49545  23571072.646    23571079.334
       214.000         155.000
 03  1 13  1 52  0.0000000  0 10G26G 5G30G17G23G24G 6G10G15G29
  23598137.020    -5105833.85849  -3962028.31845  23598135.541    23598147.125
       205.000         150.000
  23763575.369    -8414923.01449  -6539864.36445  23763574.510    23763585.443
       210.000         154.000
  21418138.053   -21035604.05949 -16371991.34147  21418138.921    21418145.500
       237.000         199.000
  22222914.946   -15857430.68449 -12339522.88547  22222914.656    22222922.252
       232.000         190.000
  21061441.016   -17671172.25149 -13750261.63847  21061440.488    21061447.739
       240.000         209.000
  24864898.567     1959352.75149   1548699.97745  24864897.720    24864906.986
       207.000         139.000
  20599827.567   -25994974.85549 -20240293.56448  20599827.376    20599833.550
       244.000         214.000
  21744521.984   -16970479.92749 -13207751.15547  21744521.261    21744528.071
       235.000         192.000
  24254646.298    -5292982.98849  -3706267.80545  24254645.348    24254655.197
       213.000         150.000
  23559242.129   -10129438.74549  -7719136.52345  23559241.756    23559249.436
       214.000         155.000
 03  1 13  1 52 30.0000000  0 10G26G 5G30G17G23G24G 6G10G15G29
  23581253.416    -5194556.50049  -4031162.63245  23581253.598    23581261.581
       210.000         148.000
  23783715.834    -8309083.78049  -6457392.31045  23783715.406    23783725.348
       209.000         152.000
  21432012.876   -20962691.50749 -16315176.36447  21432013.496    21432019.946
       237.000         198.000
  22213111.403   -15908948.33949 -12379666.44947  22213111.143    22213118.528
       232.000         191.000
  21051357.501   -17724161.08249 -13791551.56647  21051356.939    21051364.084
       241.000         209.000
  24879476.278     2035959.26249   1608393.42345  24879477.346    24879483.638
       206.000         138.000
  20592817.078   -26031815.01149 -20269000.14148  20592816.880    20592823.193
       244.000         214.000
  21758400.293   -16897548.87549 -13150921.74247  21758399.613    21758406.438
       234.000         192.000
  24239472.301    -5372722.13049  -3768402.07045  24239471.443    24239480.995
       213.000         149.000
  23547463.112   -10191336.96349  -7767368.75545  23547462.521    23547470.393
       215.000         157.000
 03  1 13  1 53  0.0000000  0  9G26G 5G30G17G23G 6G10G15G29
  23564396.503    -5283139.59449  -4100188.23145  23564395.159    23564404.163
       212.000         150.000
  23803866.271    -8203192.66149  -6374879.81345  23803866.046    23803876.055
       211.000         151.000
  21445965.029   -20889372.49449 -16258044.67547  21445965.837    21445972.240
       238.000         198.000
  22203342.409   -15960284.61749 -12419668.68547  22203342.166    22203349.609
       232.000         191.000
  21041364.585   -17776673.95349 -13832470.61947  21041364.227    21041371.428
       242.000         209.000
  20585866.307   -26068341.42849 -20297462.24948  20585866.281    20585872.451
       244.000         214.000
  21772358.054   -16824200.17749 -13093766.88747  21772357.231    21772364.214
       234.000         192.000
  24224320.994    -5452342.07249  -3830443.46845  24224319.812    24224329.625
       209.000         148.000
  23535736.231   -10252962.09249  -7815388.21045  23535735.599    23535743.427
       214.000         157.000
 03  1 13  1 53 30.0000000  0  9G26G 5G30G17G23G 6G10G15G29
  23547566.878    -5371578.95649  -4169101.82145  23547566.849    23547576.780
       214.000         151.000
  23824026.257    -8097251.61449  -6292328.40645  23824025.980    23824035.166
       214.000         153.000
  21459994.175   -20815648.88649 -16200597.70447  21459994.985    21460001.305
       238.000         198.000
  22193607.924   -16011439.34549 -12459529.44447  22193607.575    22193615.400
       233.000         191.000
  21031462.631   -17828708.69749 -13873017.10147  21031462.172    21031469.399
       242.000         210.000
  20578975.692   -26104551.71149 -20325678.01448  20578975.792    20578981.720
       244.000         214.000
  21786394.901   -16750435.94549 -13036288.25047  21786394.173    21786400.895
       234.000         191.000
  24209192.487    -5531841.76749  -3892391.18345  24209191.475    24209200.890
       208.000         147.000
  23524061.915   -10314310.55049  -7863192.06045  23524061.651    23524069.106
       215.000         157.000
 03  1 13  1 54  0.0000000  0  9G26G 5G30G17G23G 6G10G15G29
  23530765.166    -5459871.37149  -4237900.94845  23530764.501    23530774.594
       213.000         150.000
  23844195.177    -7991263.34449  -6209740.19045  23844194.308    23844204.372
       215.000         153.000
  21474099.764   -20741523.59749 -16142837.73747  21474100.220    21474106.991
       237.000         198.000
  22183908.009   -16062412.32749 -12499248.57847  22183907.700    22183915.050
       232.000         191.000
  21021651.854   -17880264.36749 -13913190.28247  21021651.404    21021658.742
       242.000         210.000
  20572145.545   -26140444.13449 -20353646.09648  20572145.410    20572151.664
       244.000         214.000
  21800510.218   -16676258.94149 -12978487.96547  21800509.571    21800516.828
       234.000         191.000
  24194086.886    -5611221.33949  -3954245.30645  24194086.432    24194095.339
       205.000         145.000
  23512440.687   -10375379.63249  -7910778.23845  23512440.796    23512447.687
       215.000         157.000
 03  1 13  1 54 30.0000000  0  9G26G 5G30G17G23G 6G10G15G29
  23513992.295    -5548013.11849  -4306582.65145  23513992.582    23514000.904
       212.000         153.000
  23864372.723    -7885230.47549  -6127117.20945  23864372.948    23864381.683
       217.000         153.000
  21488281.326   -20666999.15449 -16084766.74247  21488281.962    21488288.441
       237.000         198.000
  22174242.664   -16113203.77049 -12538826.25747  22174242.451    22174250.041
       234.000         191.000
  21011932.468   -17931339.84849 -13952989.29047  21011931.892    21011939.109
       242.000         210.000
  20565376.254   -26176016.89549 -20381365.09148  20565376.186    20565382.387
       244.000         215.000
  21814703.680   -16601671.69349 -12920368.02147  21814703.035    21814710.326
       233.000         191.000
  24179004.190    -5690480.62849  -4016005.69845  24179003.514    24179013.987
       206.000         144.000
  23500873.180   -10436166.50149  -7958144.49245  23500873.244    23500880.533
       216.000         158.000
 03  1 13  1 55  0.0000000  0  9G26G 5G30G17G23G 6G10G15G29
  23497248.612    -5636000.96849  -4375144.41045  23497248.423    23497256.577
       212.000         151.000
  23884558.044    -7779155.96549  -6044461.78145  23884557.825    23884567.385
       216.000         154.000
  21502538.282   -20592078.51549 -16026387.02047  21502538.622    21502545.268
       236.000         197.000
  22164611.792   -16163814.29749 -12578262.96547  22164611.529    22164618.908
       234.000         192.000
  21002304.642   -17981934.22749 -13992413.41847  21002304.177    21002311.112
       242.000         210.000
  20558668.073   -26211268.48549 -20408833.82348  20558667.910    20558674.204
       244.000         215.000
  21828974.704   -16526677.12549 -12861930.67747  21828973.756    21828980.827
       234.000         191.000
  24163944.357    -5769619.33649  -4077672.13445  24163943.470    24163954.019
       202.000         143.000
  23489359.901   -10496668.48549  -8005288.77145  23489360.044    23489366.861
       215.000         157.000
 03  1 13  1 55 30.0000000  0  9G26G 5G30G17G23G 6G10G15G29
  23480534.935    -5723831.36249  -4443583.52945  23480536.403    23480544.114
       216.000         153.000
  23904750.824    -7673042.53749  -5961776.02945  23904750.556    23904760.010
       219.000         155.000
  21516870.055   -20516764.33149 -15967700.64847  21516870.530    21516877.359
       235.000         196.000
  22155015.240   -16214244.43049 -12617559.09747  22155014.513    22155022.272
       233.000         192.000
  20992768.544   -18032046.44749 -14031461.83747  20992768.019    20992775.231
       242.000         210.000
  20552021.356   -26246197.03949 -20436050.84748  20552021.332    20552027.450
       244.000         215.000
  21843322.673   -16451278.02249 -12803178.12047  21843322.123    21843329.432
       233.000         190.000
  24148907.631    -5848637.54649  -4139244.68145  24148906.540    24148917.161
       203.000         144.000
  23477901.425   -10556882.63549  -8052208.77145  23477900.628    23477908.678
       214.000         158.000
 03  1 13  1 56  0.0000000  0  9G26G 5G30G17G23G 6G10G15G29
  23463851.840    -5811501.11949  -4511897.44345  23463853.132    23463859.730
       215.000         155.000
  23924950.496    -7566892.79349  -5879061.97845  23924950.002    23924959.499
       216.000         155.000
  21531276.215   -20441059.51649 -15908709.88647  21531276.607    21531283.184
       235.000         196.000
  22145452.900   -16264494.36949 -12656714.81847  22145452.182    22145459.748
       233.000         192.000
  20983324.388   -18081675.63749 -14070133.87147  20983323.987    20983330.798
       242.000         210.000
  20545436.365   -26280801.23849 -20463015.12048  20545436.121    20545442.332
       244.000         215.000
  21857747.017   -16375477.50249 -12744112.75947  21857746.457    21857753.479
       233.000         190.000
  24133893.834    -5927535.32849  -4200723.39945  24133893.683    24133902.816
       207.000         146.000
  23466498.152   -10616806.44249  -8098902.52845  23466497.422    23466505.319
       216.000         158.000
 03  1 13  1 56 30.0000000  0  9G26G 5G30G17G23G 6G10G15G29
  23447200.054    -5899006.37949  -4580083.22345  23447199.751    23447208.437
       212.000         154.000
  23945156.638    -7460709.18649  -5796321.54645  23945156.133    23945166.376
       217.000         156.000
  21545756.175   -20364966.66749 -15849416.75947  21545756.733    21545763.186
       236.000         195.000
  22135924.868   -16314564.11949 -12695730.13247  22135924.358    22135931.767
       233.000         191.000
  20973972.421   -18130820.47849 -14108428.48847  20973971.931    20973979.246
       242.000         210.000
  20538913.462   -26315079.01449 -20489725.03648  20538913.296    20538919.536
       244.000         215.000
  21872247.255   -16299278.12149 -12684736.61347  21872246.639    21872253.602
       233.000         190.000
  24118902.981    -6006312.34649  -4262107.99745  24118902.561    24118912.100
       208.000         149.000
  23455150.777   -10676436.98649  -8145367.77545  23455150.907    23455158.386
       217.000         159.000
 03  1 13  1 57  0.0000000  0  9G26G 5G30G17G23G 6G10G15G29
  23430580.055    -5986344.07049  -4648138.37945  23430580.157    23430589.168
       214.000         155.000
  23965368.686    -7354494.61849  -5713556.99045  23965368.261    23965377.651
       214.000         156.000
  21560309.459   -20288488.69349 -15789823.53647  21560309.918    21560316.682
       236.000         196.000
  22126431.012   -16364454.47549 -12734605.65747  22126430.261    22126437.702
       233.000         192.000
  20964712.677   -18179480.32449 -14146345.18447  20964712.122    20964719.435
       242.000         211.000
  20532452.952   -26349029.07149 -20516179.59248  20532452.919    20532458.986
       244.000         215.000
  21886822.827   -16222682.89049 -12625052.00247  21886822.128    21886828.814
       233.000         189.000
  24103935.127    -6084968.94749  -4323398.77745  24103934.284    24103943.773
       211.000         151.000
  23443859.749   -10735771.64149  -8191602.46645  23443859.854    23443867.509
       216.000         160.000
 03  1 13  1 57 30.0000000  0  9G26G 5G30G17G23G 6G10G15G29
  23413992.617    -6073510.50349  -4716060.10145  23413990.722    23413999.781
       210.000         152.000
  23985586.071    -7248251.54349  -5630770.24245  23985585.755    23985594.827
       211.000         155.000
  21574935.509   -20211628.29649 -15729932.31547  21574935.863    21574942.394
       236.000         196.000
  22116971.170   -16414165.84049 -12773341.70647  22116970.490    22116977.898
       233.000         192.000
  20955545.468   -18227653.90549 -14183882.97047  20955545.008    20955552.104
       242.000         211.000
  20526055.196   -26382649.36649 -20542377.18548  20526054.958    20526061.097
       243.000         215.000
  21901473.274   -16145693.98949 -12565060.63747  21901472.836    21901479.445
       232.000         189.000
  24088990.249    -6163504.69849  -4384595.37145  24088989.300    24088999.120
       210.000         153.000
  23432625.477   -10794807.47849  -8237604.31445  23432625.821    23432632.461
       217.000         160.000
 03  1 13  1 58  0.0000000  0 10G26G 5G30G17G23G 6G10G15G29G18
  23397438.531    -6160501.85549  -4783845.42045  23397438.550    23397446.622
       215.000         153.000
  24005808.420    -7141982.44249  -5547963.20445  24005808.405    24005818.441
       209.000         154.000
  21589633.849   -20134388.12249 -15669745.16247  21589634.207    21589640.972
       236.000         197.000
  22107545.458   -16463697.89149 -12811938.02747  22107544.835    22107552.364
       232.000         192.000
  20946471.041   -18275340.04449 -14221040.92847  20946470.590    20946477.724
       242.000         211.000
  20519720.549   -26415937.96149 -20568316.31148  20519720.403    20519726.656
       244.000         215.000
  21916198.122   -16068314.22349 -12504764.69547  21916197.142    21916204.297
       232.000         189.000
  24074068.340    -6241919.36149  -4445697.62345  24074068.539    24074076.942
       212.000         154.000
  23421448.816   -10853541.56949  -8283371.03645  23421448.808    23421456.230
       217.000         160.000
                   -680978.18449   -518872.21944                  24411131.952
       204.000         100.000
 03  1 13  1 58 30.0000000  0 10G26G 5G30G17G23G 6G10G15G29G18
  23380918.400    -6247314.83149  -4851491.69345  23380918.397    23380926.487
       213.000         153.000
  24026035.167    -7035690.08449  -5465138.06045  24026034.472    24026044.735
       209.000         153.000
  21604403.924   -20056770.79449 -15609264.12747  21604404.322    21604410.875
       236.000         197.000
  22098153.841   -16513050.83149 -12850394.78547  22098153.507    22098160.464
       232.000         192.000
  20937489.493   -18322538.01249 -14257818.50547  20937488.928    20937496.153
       242.000         211.000
  20513449.300   -26448893.38749 -20593995.82848  20513449.135    20513455.460
       244.000         215.000
  21930996.780   -15990546.56049 -12444166.50647  21930995.708    21931002.955
       231.000         188.000
  24059169.548    -6320213.01949  -4506705.58645  24059168.974    24059178.636
       212.000         155.000
  23410330.046   -10911971.30249  -8328900.59945  23410329.506    23410336.171
       216.000         160.000
  24390389.478     -789917.01649   -603759.48944  24390389.275    24390397.756
       206.000         129.000
 03  1 13  1 59  0.0000000  0 10G26G 5G30G17G23G 6G10G15G29G18
  23364432.967    -6333946.43649  -4918996.71245  23364432.750    23364442.833
       212.000         155.000
  24046265.889    -6929377.53749  -5382297.17945  24046265.457    24046275.291
       209.000         153.000
  21619245.112   -19978779.83949 -15548491.95747  21619245.428    21619252.175
       236.000         197.000
  22088796.106   -16562225.83049 -12888712.89947  22088795.665    22088802.885
       233.000         193.000
  20928600.975   -18369247.30949 -14294215.29447  20928600.531    20928607.576
       242.000         211.000
  20507241.669   -26481514.53549 -20619414.86548  20507241.632    20507247.762
       244.000         215.000
  21945868.681   -15912394.29949 -12383268.62947  21945868.262    21945874.727
       233.000         188.000
  24044293.734    -6398386.09649  -4567619.58545  24044293.212    24044303.285
       210.000         156.000
  23399269.458   -10970094.35749  -8374191.20345  23399269.323    23399276.954
       215.000         159.000
  24369678.367     -898755.87249   -688568.75645  24369678.653    24369688.087
       208.000         135.000
 03  1 13  1 59 30.0000000  0 10G26G 5G30G17G23G 6G10G15G29G18
  23347982.552    -6420393.10149  -4986357.57345  23347982.178    23347989.678
       214.000         155.000
  24066499.909    -6823047.32249  -5299442.52845  24066499.289    24066509.078
       211.000         153.000
  21634156.857   -19900417.89149 -15487430.69947  21634157.494    21634163.998
       236.000         197.000
  22079472.178   -16611223.13949 -12926892.54747  22079472.030    22079479.159
       232.000         193.000
  20919805.626   -18415466.86549 -14330230.46947  20919805.430    20919812.329
       242.000         211.000
  20501098.047   -26513799.40349 -20644571.87048  20501098.015    20501104.043
       244.000         215.000
  21960813.242   -15833860.29949 -12322073.29247  21960812.556    21960819.556
       232.000         188.000
  24029440.825    -6476438.17949  -4628439.30145  24029440.295    24029449.600
       211.000         155.000
  23388267.666   -11027907.97649  -8419240.66745  23388267.629    23388275.297
       214.000         159.000
  24348986.493    -1007492.54049   -773298.40245  24348986.168    24348996.373
       207.000         137.000
 03  1 13  2  0  0.0000000  0 10G26G 5G30G17G23G 6G10G15G29G18
  23331568.127    -6506650.97849  -5053571.33545  23331567.492    23331575.777
       210.000         154.000
  24086736.792    -6716701.90249  -5216576.02345  24086736.959    24086745.752
       210.000         153.000
  21649138.797   -19821687.32249 -15426082.20747  21649139.503    21649145.991
       235.000         196.000
  22070182.131   -16660042.50149 -12964933.53747  22070181.881    22070188.940
       233.000         194.000
  20911103.700   -18461195.67049 -14365863.24247  20911103.294    20911110.171
       243.000         211.000
  20495018.823   -26545745.88749 -20669465.20248  20495018.884    20495024.891
       244.000         215.000
  21975830.010   -15754946.76649 -12260582.22147  21975829.400    21975836.090
       232.000         188.000
  24014611.021    -6554369.01949  -4689164.55045  24014610.641    24014620.117
       210.000         156.000
  23377325.484   -11085408.96749  -8464046.54645  23377325.684    23377333.270
       216.000         159.000
  24328314.541    -1116124.49249   -857946.47845  24328314.159    24328323.237
       206.000         139.000
 03  1 13  2  0 30.0000000  0 10G26G 5G30G17G23G 6G10G15G29G18
  23315190.389    -6592716.10049  -5120634.91045  23315190.879    23315197.503
       215.000         157.000
  24106976.166    -6610343.39849  -5133699.31945  24106975.678    24106984.848
       209.000         153.000
  21664190.363   -19742590.72249 -15364448.49147  21664190.853    21664197.660
       235.000         195.000
  22060925.910   -16708684.12149 -13002836.03247  22060925.429    22060932.322
       234.000         194.000
  20902495.398   -18506432.29249 -14401112.49647  20902494.964    20902501.918
       243.000         211.000
  20489004.387   -26577351.84849 -20694093.18748  20489004.297    20489010.456
       244.000         215.000
  21990918.453   -15675656.07949 -12198797.25946  21990917.954    21990924.138
       232.000         187.000
  23999804.362    -6632178.04649  -4749794.88145  23999803.742    23999813.421
       214.000         156.000
  23366443.426   -11142594.37849  -8508606.51545  23366443.038    23366450.346
       216.000         159.000
  24307662.904    -1224649.15949   -942510.94645  24307662.565    24307672.103
       209.000         141.000
 03  1 13  2  1  0.0000000  0 10G26G 5G30G17G23G 6G10G15G29G18
  23298849.785    -6678585.47349  -5187545.90645  23298849.822    23298858.275
       215.000         155.000
  24127217.500    -6503974.75949  -5050814.71745  24127217.305    24127227.011
       213.000         153.000
  21679310.975   -19663131.32549 -15302532.08047  21679311.425    21679317.783
       234.000         194.000
  22051703.387   -16757148.51849 -13040600.43347  22051702.884    22051709.994
       234.000         194.000
  20893980.900   -18551176.17149 -14435977.79547  20893980.528    20893987.402
       245.000         212.000
  20483054.962   -26608616.02349 -20718454.84348  20483054.796    20483061.019
       244.000         215.000
  22006078.169   -15595991.26849 -12136720.76646  22006077.530    22006084.478
       231.000         187.000
  23985020.943    -6709865.76049  -4810330.69145  23985020.526    23985030.299
       210.000         156.000
  23355621.903   -11199461.66549  -8552918.58045  23355621.789    23355628.735
       216.000         160.000
  24287031.956    -1333064.88949  -1026990.52345  24287031.388    24287039.533
       209.000         142.000
 03  1 13  2  1 30.0000000  0 10G26G 5G30G17G23G 6G10G15G29G18
  23282547.541    -6764254.63649  -5254300.95545  23282547.078    23282554.808
       211.000         158.000
  24147460.385    -6397597.71949  -4967923.57045  24147459.741    24147469.281
       213.000         153.000
  21694500.238   -19583311.05949 -15240334.47247  21694500.530    21694506.826
       234.000         193.000
  22042514.680   -16805435.20549 -13078226.35847  22042514.095    22042521.633
       233.000         194.000
  20885560.432   -18595425.76849 -14470457.94047  20885559.898    20885566.880
       244.000         212.000
  20477171.052   -26639535.92649 -20742548.24048  20477171.009    20477176.894
       243.000         215.000
  22021308.585   -15515954.74649 -12074354.63846  22021307.796    22021315.051
       231.000         187.000
  23970260.604    -6787431.21649  -4870771.23345  23970259.585    23970269.517
       215.000         157.000
  23344861.567   -11256007.39049  -8596980.08845  23344861.459    23344868.497
       217.000         160.000
  24266422.270    -1441368.88549  -1111383.05445  24266422.215    24266430.976
       211.000         144.000
 03  1 13  2  2  0.0000000  0 10G26G 5G30G17G23G 6G10G15G29G18
  23266283.711    -6849720.09549  -5320897.23645  23266284.596    23266292.507
       216.000         157.000
  24167704.378    -6291214.77249  -4885027.82245  24167704.606    24167713.948
       213.000         152.000
  21709757.669   -19503132.71349 -15177857.83647  21709758.107    21709764.541
       234.000         192.000
  22033359.754   -16853544.12549 -13115713.76147  22033359.213    22033366.409
       234.000         194.000
  20877234.143   -18639180.24249 -14504552.27447  20877233.612    20877240.585
       244.000         212.000
  20471352.966   -26670109.85349 -20766372.04648  20471352.757    20471358.821
       244.000         215.000
  22036609.305   -15435549.00349 -12011700.79646  22036609.023    22036615.462
       231.000         186.000
  23955523.666    -6864874.38649  -4931116.49445  23955523.046    23955531.918
       216.000         157.000
  23334162.870   -11312228.98649  -8640789.03145  23334162.256    23334169.459
       215.000         160.000
  24245834.184    -1549558.78049  -1195686.67545  24245833.699    24245843.284
       211.000         146.000
 03  1 13  2  2 30.0000000  0 10G26G 5G30G17G23G 6G10G15G29G18
  23250059.450    -6934979.09549  -5387332.66045  23250058.419    23250066.454
       213.000         157.000
  24187948.896    -6184829.31149  -4802130.10045  24187948.572    24187958.544
       213.000         151.000
  21725082.518   -19422599.80049 -15115104.91247  21725082.868    21725089.616
       233.000         191.000
  22024238.491   -16901476.35649 -13153063.48047  22024237.877    22024245.266
       233.000         194.000
  20869002.122   -18682439.42149 -14538260.66047  20869001.641    20869008.642
       244.000         211.000
  20465600.950   -26700336.84749 -20789925.51148  20465600.969    20465606.928
       244.000         215.000
  22051979.599   -15354777.75549 -11948762.14246  22051979.412    22051985.692
       231.000         186.000
  23940809.886    -6942195.67949  -4991366.77945  23940808.753    23940818.678
       215.000         158.000
  23323526.305   -11368124.09549  -8684343.56945  23323526.159    23323532.213
       216.000         159.000
  24225268.241    -1657633.18749  -1279900.31045  24225267.936    24225276.992
       211.000         148.000
 03  1 13  2  3  0.0000000  0 10G26G 5G30G17G23G 6G10G15G29G18
  23233875.081    -7020027.83449  -5453604.28045  23233875.802    23233883.212
       214.000         157.000
  24208193.435    -6078443.67349  -4719232.22645  24208193.257    24208202.770
       214.000         150.000
  21740474.368   -19341714.97649 -15052077.77447  21740474.932    21740481.524
       233.000         190.000
  22015150.812   -16949232.45349 -13190275.95947  22015150.448    22015157.522
       234.000         195.000
  20860864.565   -18725202.29749 -14571582.31947  20860864.134    20860871.056
       244.000         211.000
  20459915.339   -26730214.87549 -20813207.05648  20459915.345    20459921.286
       244.000         215.000
  22067418.930   -15273643.37749 -11885540.53846  22067418.004    22067424.926
       229.000         185.000
  23926119.330    -7019394.76049  -5051521.83045  23926119.012    23926128.266
       216.000         158.000
  23312952.327   -11423690.16449  -8727641.69145  23312951.729    23312959.298
       217.000         159.000
  24204724.673    -1765589.92249  -1364022.24745  24204724.028    24204733.092
       212.000         149.000
 03  1 13  2  3 30.0000000  0 10G26G 5G30G17G23G 6G10G15G29G18
  23217731.241    -7104862.69849  -5519709.17645  23217732.188    23217739.047
       216.000         156.000
  24228437.499    -5972060.49349  -4636336.27445  24228436.113    24228446.652
       213.000         149.000
  21755932.686   -19260480.94949 -14988778.53347  21755933.281    21755939.907
       233.000         190.000
  22006096.642   -16996812.35249 -13227351.13947  22006096.297    22006104.114
       234.000         195.000
  20852821.646   -18767468.00149 -14604516.57747  20852821.182    20852828.226
       244.000         212.000
  20454296.491   -26759742.18949 -20836215.31748  20454296.365    20454302.462
       244.000         215.000
  22082926.848   -15192148.73449 -11822038.21046  22082925.879    22082933.221
       230.000         185.000
  23911451.974    -7096471.65249  -5111581.64845  23911451.337    23911459.988
       216.000         158.000
  23302441.553   -11478924.16749  -8770681.07645  23302440.946    23302448.118
       217.000         160.000
  24184203.943    -1873426.47449  -1448050.54545  24184203.744    24184211.964
       214.000         150.000
 03  1 13  2  4  0.0000000  0 10G26G 5G30G17G23G 6G10G15G29G18
  23201629.067    -7189480.27849  -5585644.83545  23201628.927    23201637.204
       216.000         158.000
  24248680.595    -5865682.25649  -4553444.18345  24248679.868    24248689.443
       209.000         146.000
  21771456.895   -19178900.68449 -14925209.49147  21771457.014    21771463.989
       233.000         191.000
  21997075.918   -17044216.31649 -13264289.22347  21997075.122    21997082.433
       233.000         195.000
  20844873.435   -18809236.00149 -14637063.01247  20844873.115    20844879.891
       245.000         212.000
  20448744.629   -26788917.25649 -20858949.10148  20448744.569    20448750.528
       244.000         215.000
  22098502.776   -15110296.60349 -11758257.31146  22098501.865    22098509.126
       230.000         185.000
  23896807.947    -7173426.22849  -5171546.15345  23896807.494    23896816.377
       213.000         157.000
  23291994.507   -11533823.60349  -8813459.75345  23291993.898    23292001.063
       216.000         162.000
  24163706.512    -1981140.75949  -1531983.57045  24163705.585    24163714.707
       214.000         151.000
 03  1 13  2  4 30.0000000  0 10G26G 5G30G17G23G 6G10G15G29G18
  23185568.664    -7273876.87849  -5651408.27945  23185569.194    23185576.220
       216.000         157.000
  24268922.361    -5759311.27549  -4470557.74245  24268922.724    24268932.048
       210.000         144.000
  21787046.493   -19096976.92449 -14861372.79347  21787046.552    21787053.622
       233.000         191.000
  21988088.616   -17091444.54549 -13301090.37247  21988088.033    21988095.382
       234.000         195.000
  20837020.088   -18850505.47849 -14669220.98948  20837019.661    20837026.461
       245.000         213.000
  20443260.188   -26817738.27449 -20881407.00348  20443260.136    20443266.024
       244.000         215.000
  22114146.168   -15028089.66549 -11694199.93946  22114145.516    22114152.787
       231.000         184.000
  23882187.173    -7250258.30549  -5231415.18845  23882186.826    23882195.686
       216.000         157.000
  23281611.492   -11588385.66549  -8855975.54145  23281610.916    23281618.845
       217.000         162.000
  24143232.716    -2088730.50449  -1615819.54945  24143232.338    24143240.614
       215.000         152.000
 03  1 13  2  5  0.0000000  0 10G26G 5G30G17G23G 6G10G15G29G18
  23169551.097    -7358049.18249  -5716996.95245  23169551.044    23169559.229
       215.000         157.000
  24289162.182    -5652950.48749  -4387679.22645  24289163.182    24289172.108
       208.000         141.000
  21802700.812   -19014712.98649 -14797271.01347  21802700.994    21802707.843
       234.000         192.000
  21979134.655   -17138497.78449 -13337755.16647  21979134.402    21979140.882
       235.000         195.000
  20829261.726   -18891275.89449 -14700990.08747  20829261.123    20829267.986
       245.000         212.000
  20437843.389   -26846203.69149 -20903587.81648  20437843.305    20437849.214
       244.000         215.000
  22129856.589   -14945530.88349 -11629868.40946  22129855.960    22129862.929
       231.000         184.000
  23867589.663    -7326968.23249  -5291189.02145  23867588.882    23867598.092
       217.000         156.000
  23271293.155   -11642607.95049  -8898226.56645  23271292.719    23271300.407
       218.000         162.000
  24122782.955    -2196194.01549  -1699557.16145  24122782.385    24122791.114
       215.000         153.000
 03  1 13  2  5 30.0000000  0 10G26G 5G30G17G23G 6G10G15G29G18
  23153576.912    -7441993.75449  -5782408.19645  23153577.202    23153583.466
       216.000         158.000
  24309399.542    -5546602.63049  -4304810.81145  24309399.053    24309409.165
       207.000         140.000
  21818419.351   -18932111.52949 -14732906.24047  21818420.222    21818426.223
       234.000         192.000
  21970213.926   -17185376.45349 -13374283.93547  21970213.208    21970220.577
       235.000         196.000
  20821598.394   -18931546.49749 -14732369.72048  20821597.978    20821604.635
       245.000         213.000
  20432494.510   -26874311.93749 -20925490.31148  20432494.289    20432500.508
       244.000         215.000
  22145633.394   -14862623.32349 -11565265.10746  22145632.717    22145639.665
       231.000         184.000
  23853015.448    -7403555.95749  -5350867.65745  23853013.932    23853023.743
       215.000         156.000
  23261040.213   -11696487.96249  -8940210.90245  23261040.507    23261046.788
       216.000         162.000
  24102357.569    -2303529.20149  -1783194.77745  24102357.105    24102365.649
       215.000         154.000
 03  1 13  2  6  0.0000000  0 10G26G 5G30G17G23G 6G10G15G29G18
  23137646.629    -7525707.14249  -5847639.28345  23137646.201    23137654.369
       215.000         157.000
  24329633.964    -5440270.15049  -4221954.36545  24329633.815    24329644.473
       205.000         139.000
  21834201.494   -18849175.75249 -14668280.94947  21834201.567    21834208.421
       233.000         191.000
  21961326.336   -17232080.61649 -13410676.72847  21961325.801    21961332.863
       234.000         195.000
  20814030.276   -18971316.93349 -14763359.61248  20814029.777    20814036.634
       245.000         213.000
  20427213.880   -26902061.53249 -20947113.34148  20427213.684    20427219.965
       244.000         215.000
  22161475.995   -14779369.80749 -11500392.22246  22161475.670    22161482.830
       230.000         184.000
  23838464.424    -7480021.53149  -5410451.09245  23838463.715    23838472.635
       215.000         155.000
  23250852.841   -11750023.11649  -8981926.50245  23250852.240    23250859.138
       216.000         162.000
  24081957.019    -2410734.04849  -1866730.82045  24081956.079    24081965.871
       217.000         154.000
 03  1 13  2  6 30.0000000  0 10G26G 5G30G17G23G 6G10G15G29G18
  23121761.086    -7609185.62249  -5912687.32445  23121761.338    23121769.217
       215.000         158.000
  24349865.085    -5333955.40949  -4139111.75245  24349865.399    24349874.433
       201.000         138.000
  21850046.828   -18765908.11149 -14603397.06947  21850047.067    21850054.013
       233.000         191.000
  21952472.003   -17278610.18449 -13446933.45947  21952471.340    21952478.615
       234.000         195.000
  20806557.551   -19010586.18749 -14793958.97448  20806557.210    20806564.028
       245.000         213.000
  20422001.883   -26929450.38749 -20968455.27348  20422001.792    20422007.834
       244.000         215.000
  22177383.976   -14695772.61349 -11435251.53346  22177383.167    22177390.201
       229.000         184.000
  23823936.761    -7556364.65749  -5469939.11845  23823936.282    23823945.195
       215.000         155.000
  23240731.533   -11803210.43649  -9023371.07445  23240730.767    23240737.989
       216.000         162.000
  24061581.703    -2517806.22549  -1950163.49145  24061580.954    24061589.916
       217.000         155.000
 03  1 13  2  7  0.0000000  0 10G26G 5G30G17G23G 6G10G15G29G18
  23105920.944    -7692425.75849  -5977549.64445  23105921.174    23105929.524
       218.000         159.000
  24370092.269    -5227661.19249  -4056285.15545  24370092.486    24370101.515
       202.000         139.000
  21865954.655   -18682311.77949 -14538257.06347  21865955.044    21865961.996
       232.000         190.000
  21943650.720   -17324965.87949 -13483054.71047  21943650.217    21943657.325
       234.000         196.000
  20799180.291   -19049353.68049 -14824167.35448  20799179.947    20799186.603
       245.000         213.000
  20416858.865   -26956476.98349 -20989514.92948  20416858.733    20416864.947
       243.000         215.000
  22193356.757   -14611834.82949 -11369845.45046  22193355.780    22193362.918
       228.000         183.000
  23809432.318    -7632585.42149  -5529331.80045  23809431.753    23809440.615
       214.000         155.000
  23230676.892   -11856047.54649  -9064542.75346  23230676.297    23230683.344
       218.000         163.000
  24041232.068    -2624743.80949  -2033491.26345  24041231.312    24041239.920
       216.000         156.000
 03  1 13  2  7 30.0000000  0 10G26G 5G30G17G23G 6G10G15G29G18
  23090126.901    -7775424.08149  -6042223.54145  23090126.878    23090134.036
       217.000         161.000
  24390314.992    -5121390.15249  -3973476.61145  24390313.607    24390324.222
       202.000         140.000
  21881924.506   -18598389.60449 -14472863.16047  21881924.779    21881931.507
       232.000         190.000
  21934862.523   -17371148.12549 -13519040.80847  21934862.251    21934869.212
       234.000         197.000
  20791898.588   -19087618.94349 -14853984.38448  20791898.198    20791904.905
       245.000         213.000
  20411785.074   -26983139.70349 -21010291.04348  20411785.105    20411791.060
       243.000         215.000
  22209393.835   -14527559.19149 -11304176.09546  22209393.177    22209399.576
       230.000         183.000
  23794951.168    -7708683.78149  -5588629.09545  23794949.829    23794959.436
       216.000         156.000
  23220689.323   -11908531.80449  -9105439.48846  23220689.491    23220696.260
       217.000         163.000
  24020908.387    -2731544.52349  -2116712.38145  24020908.111    24020916.309
       216.000         157.000
 03  1 13  2  8  0.0000000  0 10G26G 5G30G17G23G 6G10G15G29G18
  23074379.533    -7858176.65449  -6106705.95345  23074379.230    23074387.047
       216.000         161.000
  24410532.956    -5015144.13749  -3890687.57345  24410533.499    24410542.990
       204.000         142.000
  21897955.865   -18514144.10149 -14407217.30747  21897955.971    21897962.765
       232.000         189.000
  21926107.341   -17417156.55649 -13554891.45547  21926106.482    21926113.779
       234.000         197.000
  20784712.699   -19125381.01649 -14883409.32348  20784712.203    20784718.882
       245.000         213.000
  20406780.918   -27009436.56949 -21030782.07848  20406780.940    20406786.838
       244.000         215.000
  22225494.780   -14442948.29749 -11238245.52546  22225494.221    22225500.677
       229.000         183.000
  23780493.411    -7784659.15149  -5647830.56445  23780493.267    23780501.857
       217.000         156.000
  23210769.522   -11960660.16749  -9146058.89546  23210769.928    23210776.645
       218.000         164.000
  24000611.235    -2838205.86849  -2199824.88745  24000610.993    24000619.015
       216.000         157.000
 03  1 13  2  8 30.0000000  0 10G26G 5G30G17G23G 6G10G15G29G18
  23058679.359    -7940680.68949  -6170994.67545  23058679.668    23058686.206
       217.000         160.000
  24430745.468    -4908926.48549  -3807920.61745  24430744.877    24430754.655
       205.000         143.000
  21914048.112   -18429578.86049 -14341322.31747  21914048.410    21914055.632
       232.000         189.000
  21917385.063   -17462991.78549 -13590607.14847  21917384.500    21917391.629
       235.000         196.000
  20777622.518   -19162639.89149 -14912442.15548  20777621.992    20777628.948
       245.000         213.000
  20401846.642   -27035366.36849 -21050987.08848  20401846.625    20401852.417
       244.000         215.000
  22241658.854   -14358005.74449 -11172056.50246  22241658.400    22241664.957
       229.000         183.000
  23766059.010    -7860512.03549  -5706936.57045  23766058.950    23766067.648
       215.000         157.000
  23200917.807   -12012430.80549  -9186399.56346  23200918.269    23200925.259
       218.000         164.000
  23980340.921    -2944726.38449  -2282827.64345  23980340.286    23980349.045
       217.000         157.000
 03  1 13  2  9  0.0000000  0 10G26G 5G30G17G23G 6G10G15G29G18
  23043027.374    -8022932.11249  -6235086.59145  23043026.005    23043035.054
       215.000         159.000
  24450952.252    -4802739.32549  -3725177.42445  24450951.908    24450961.989
       207.000         144.000
  21930200.676   -18344696.43849 -14275180.17547  21930200.748    21930207.802
       232.000         189.000
  21908695.696   -17508654.45449 -13626188.38047  21908695.316    21908702.394
       234.000         197.000
  20770628.212   -19199394.88549 -14941082.35148  20770627.654    20770634.374
       245.000         213.000
  20396982.531   -27060927.18149 -21070904.57448  20396982.433    20396988.308
       244.000         215.000
  22257885.542   -14272733.80049 -11105610.81246  22257884.907    22257891.376
       230.000         182.000
  23751647.931    -7936242.09649  -5765946.88945  23751647.057    23751657.094
       213.000         158.000
  23191134.669   -12063840.77749  -9226459.17146  23191134.482    23191141.054
       217.000         165.000
  23960097.865    -3051103.72449  -2365718.82445  23960097.490    23960105.428
       216.000         157.000
 03  1 13  2  9 30.0000000  0 10G26G 5G30G17G23G 6G10G15G29G18
  23027424.071    -8104927.39349  -6298978.90045  23027422.887    23027431.775
       216.000         160.000
  24471152.796    -4696585.17849  -3642459.95445  24471151.984    24471161.891
       207.000         145.000
  21946413.092   -18259499.60149 -14208793.03147  21946413.764    21946420.015
       232.000         189.000
  21900039.161   -17554144.52749 -13661635.12347  21900038.389    21900045.590
       234.000         197.000
  20763729.968   -19235645.21949 -14969329.31248  20763729.489    20763736.242
       245.000         213.000
  20392188.978   -27086117.38749 -21090533.27448  20392188.901    20392194.752
       244.000         215.000
  22274174.332   -14187135.38549 -11038910.73246  22274173.950    22274180.433
       229.000         182.000
  23737260.324    -8011849.06149  -5824861.28145  23737259.447    23737268.527
       214.000         158.000
  23181420.703   -12114887.32049  -9266235.60946  23181420.546    23181427.244
       217.000         164.000
  23939882.360    -3157335.79549  -2448496.80945  23939882.124    23939890.056
       215.000         158.000
 03  1 13  2 10  0.0000000  0 10G26G 5G30G17G23G 6G10G15G29G18
  23011870.191    -8186663.14849  -6362668.96345  23011869.564    23011877.650
       216.000         160.000
  24491346.523    -4590466.48049  -3559770.09845  24491345.944    24491356.726
       206.000         145.000
  21962684.746   -18173991.47449 -14142163.32447  21962684.940    21962691.685
       231.000         189.000
  21891415.356   -17599462.65549 -13696947.88147  21891414.709    21891421.901
       234.000         197.000
  20756927.831   -19271390.43749 -14997182.67448  20756927.438    20756933.937
       245.000         213.000
  20387466.254   -27110935.46349 -21109872.00848  20387466.271    20387472.127
       244.000         215.000
  22290524.768   -14101213.23449 -10971958.38746  22290523.971    22290531.004
       229.000         182.000
  23722896.099    -8087333.08749  -5883679.85945  23722895.101    23722903.789
       217.000         157.000
  23171776.359   -12165568.00949  -9305726.95146  23171775.713    23171783.695
       219.000         164.000
  23919695.022    -3263420.32949  -2531159.81045  23919693.501    23919701.919
       215.000         157.000
 03  1 13  2 10 30.0000000  0 10G26G 5G30G17G23G 6G10G15G29G18
  22996366.348    -8268135.89149  -6426154.09545  22996365.467    22996373.371
       216.000         160.000
  24511532.913    -4484385.87149  -3477109.92745  24511533.369    24511541.986
       208.000         146.000
  21979015.065   -18088175.02849 -14075293.37047  21979015.354    21979022.765
       231.000         189.000
  21882824.313   -17644608.70149 -13732126.56047  21882823.736    21882831.057
       235.000         197.000
  20750221.909   -19306630.11549 -15024642.11048  20750221.471    20750228.104
       245.000         213.000
  20382814.617   -27135379.85249 -21128919.55548  20382814.691    20382820.385
       244.000         215.000
  22306936.205   -14014970.32449 -10904756.09746  22306935.600    22306942.318
       229.000         181.000
  23708555.200    -8162694.50949  -5942402.90245  23708554.349    23708563.339
       214.000         157.000
  23162202.388   -12215880.46149  -9344931.37946  23162202.501    23162208.901
       219.000         164.000
  23899536.104    -3369355.43049  -2613706.37845  23899535.066    23899542.662
       215.000         156.000
 03  1 13  2 11  0.0000000  0 10G26G 5G30G17G23G 6G10G15G29G18
  22980913.283    -8349341.60449  -6489431.16945  22980912.725    22980920.902
       215.000         160.000
  24531711.890    -4378345.21049  -3394480.87945  24531711.589    24531721.224
       208.000         146.000
  21995403.594   -18002052.78549 -14008185.13547  21995403.899    21995410.710
       232.000         188.000
  21874265.956   -17689582.85849 -13767171.29247  21874265.441    21874272.368
       235.000         197.000
  20743612.364   -19341363.29249 -15051706.87348  20743612.036    20743618.425
       245.000         213.000
  20378234.558   -27159448.23549 -21147674.11748  20378234.642    20378240.317
       244.000         215.000
  22323408.276   -13928408.86449 -10837305.59646  22323407.966    22323414.423
       228.000         181.000
  23694237.749    -8237932.58349  -6001029.83345  23694236.711    23694245.749
       217.000         158.000
  23152698.967   -12265821.48649  -9383846.37846  23152698.900    23152704.915
       219.000         165.000
  23879406.057    -3475138.26049  -2696134.29645  23879405.651    23879412.613
       217.000         156.000
 03  1 13  2 11 30.0000000  0 10G26G 5G30G17G23G 6G10G15G29G18
  22965511.413    -8430278.14149  -6552498.47345  22965511.547    22965518.842
       219.000         160.000
  24551882.475    -4272348.43949  -3311886.03545  24551882.795    24551891.661
       210.000         146.000
  22011849.512   -17915628.97549 -13940841.91147  22011849.823    22011856.741
       231.000         189.000
  21865740.011   -17734386.65049 -13802083.26647  21865739.524    21865746.775
       235.000         198.000
  20737099.005   -19375591.02049 -15078377.77148  20737098.625    20737105.255
       245.000         214.000
  20373726.061   -27183140.41749 -21166135.52648  20373725.913    20373731.822
       244.000         215.000
  22339940.174   -13841533.04949 -10769610.13346  22339939.692    22339946.151
       228.000         181.000
  23679943.533    -8313048.81449  -6059561.82145  23679942.487    23679951.371
       217.000         158.000
  23143266.348   -12315390.20049  -9422471.24946  23143265.751    23143272.135
       219.000         166.000
  23859305.193    -3580768.39249  -2778443.24045  23859304.087    23859312.350
       214.000         155.000
 03  1 13  2 12  0.0000000  0 10G26G 5G30G17G23G 6G10G15G29G18
  22950161.905    -8510940.56349  -6615352.20645  22950162.023    22950169.388
       219.000         161.000
  24572044.551    -4166396.62649  -3229326.21145  24572044.228    24572053.758
       207.000         147.000
  22028352.487   -17828905.20049 -13873264.94747  22028352.649    22028359.698
       231.000         188.000
  21857246.754   -17779018.68649 -13836861.41347  21857246.373    21857253.276
       235.000         198.000
  20730682.209   -19409311.35349 -15104653.30148  20730681.748    20730688.369
       245.000         214.000
  20369289.718   -27206453.40949 -21184301.46948  20369289.824    20369295.388
       244.000         215.000
  22356531.628   -13754344.18249 -10701670.72846  22356530.776    22356538.026
       229.000         180.000
  23665672.816    -8388041.70549  -6117997.70345  23665671.886    23665681.117
       218.000         159.000
  23133905.242   -12364582.54349  -9460802.85446  23133905.121    23133911.925
       217.000         166.000
  23839233.997    -3686242.32349  -2860630.48245  23839232.773    23839240.990
       213.000         154.000
 03  1 13  2 12 30.0000000  0 10G26G 5G30G17G23G 6G10G15G29G18
  22934865.077    -8591325.66549  -6677989.83545  22934864.933    22934871.934
       217.000         162.000
  24592197.417    -4060492.44949  -3146803.51845  24592197.206    24592207.416
       208.000         147.000
  22044911.958   -17741884.67749 -13805456.74847  22044912.675    22044919.832
       232.000         188.000
  21848786.092   -17823479.86549 -13871506.42547  21848785.511    21848792.497
       235.000         198.000
  20724361.979   -19442524.13949 -15130533.34448  20724361.583    20724368.169
       245.000         214.000
  20364925.802   -27229385.94149 -21202170.94448  20364925.655    20364931.425
       244.000         215.000
  22373182.012   -13666845.57949 -10633489.98646  22373181.549    22373188.392
       228.000         180.000
  23651425.566    -8462911.30049  -6176337.51045  23651424.789    23651434.043
       216.000         159.000
  23124616.071   -12413396.24149  -9498839.40646  23124616.021    23124622.459
       218.000         166.000
  23819192.802    -3791558.16149  -2942694.52445  23819191.917    23819199.074
       214.000         154.000
 03  1 13  2 13  0.0000000  0 10G26G 5G30G17G23G 6G10G15G29G18
  22919621.596    -8671430.20249  -6740408.84945  22919621.476    22919628.312
       215.000         161.000
  24612340.689    -3954638.76449  -3064320.17845  24612340.201    24612350.913
       208.000         148.000
  22061527.290   -17654570.57249 -13737419.78346  22061527.712    22061534.775
       233.000         187.000
  21840357.703   -17867770.73949 -13906018.73047  21840357.055    21840363.803
       235.000         197.000
  20718138.338   -19475229.26049 -15156017.79748  20718137.772    20718144.535
       245.000         214.000
  20360634.518   -27251936.64349 -21219742.89448  20360634.426    20360640.129
       244.000         215.000
  22389890.841   -13579040.05949 -10565070.08646  22389890.541    22389897.088
       228.000         180.000
  23637201.673    -8537658.00149  -6234581.55645  23637200.597    23637209.583
       215.000         158.000
  23115399.534   -12461829.11049  -9536579.20846  23115398.902    23115406.287
       219.000         167.000
  23799182.173    -3896713.88849  -3024633.82245  23799181.460    23799188.900
       213.000         153.000
 03  1 13  2 13 30.0000000  0 10G26G 5G30G17G23G 6G10G15G29G18
  22904432.209    -8751250.37949  -6802606.25845  22904432.042    22904439.520
       217.000         161.000
  24632473.994    -3848837.80349  -2981877.92145  24632473.244    24632483.306
       209.000         147.000
  22078197.955   -17566965.69049 -13669156.24346  22078198.181    22078204.900
       233.000         187.000
  21831961.791   -17911891.04849 -13940398.13247  21831961.248    21831968.346
       235.000         197.000
  20712011.430   -19507426.10249 -15181106.19048  20712011.093    20712017.549
       246.000         214.000
  20356416.261   -27274103.57449 -21237015.80748  20356416.316    20356422.209
       244.000         215.000
  22406657.597   -13490930.46949 -10496413.24646  22406656.794    22406663.315
       228.000         180.000
  23623001.153    -8612281.42349  -6292729.54845  23623000.237    23623008.117
       215.000         157.000
  23106255.954   -12509878.57549  -9574020.23946  23106255.292    23106262.707
       219.000         167.000
  23779202.303    -4001707.54949  -3106446.84445  23779201.311    23779209.239
       212.000         152.000
 03  1 13  2 14  0.0000000  0 10G26G 5G30G17G23G 6G10G15G29G18
  22889297.445    -8830783.14449  -6864579.72445  22889297.529    22889305.490
       216.000         162.000
  24652596.699    -3743092.29149  -2899478.87445  24652596.153    24652606.736
       207.000         149.000
  22094923.311   -17479073.35049 -13600668.70746  22094923.573    22094930.495
       233.000         186.000
  21823598.260   -17955841.60049 -13974645.25647  21823597.938    21823604.676
       236.000         198.000
  20705981.263   -19539114.70749 -15205798.55648  20705980.918    20705987.365
       245.000         214.000
  20352271.280   -27295885.61649 -21253988.79948  20352271.116    20352277.111
       244.000         215.000
  22423481.514   -13402519.89249 -10427521.87146  22423481.297    22423487.713
       228.000         180.000
  23608824.031    -8686781.70349  -6350781.56345  23608822.782    23608831.422
       214.000         156.000
  23097185.735   -12557542.42149  -9611160.82546  23097185.371    23097192.361
       218.000         167.000
  23759253.707    -4106537.18649  -3188132.06945  23759253.661    23759260.317
       212.000         151.000
 03  1 13  2 14 30.0000000  0 10G26G 5G30G17G23G 6G10G15G29G18
  22874218.254    -8910024.39049  -6926326.01945  22874219.078    22874226.491
       219.000         161.000
  24672708.477    -3637404.16649  -2817124.54445  24672708.269    24672718.406
       208.000         149.000
  22111702.929   -17390895.86749 -13531958.98146  22111703.616    22111710.163
       233.000         185.000
  21815266.996   -17999622.51649 -14008760.19847  21815266.465    21815273.413
       236.000         199.000
  20700047.946   -19570294.32649 -15230094.30748  20700047.455    20700054.118
       246.000         214.000
  20348199.896   -27317280.62649 -21270660.21448  20348199.784    20348205.705
       244.000         215.000
  22440362.288   -13313810.68249 -10358397.79146  22440361.561    22440369.000
       226.000         180.000
  23594670.444    -8761158.33749  -6408737.27245  23594669.790    23594679.089
       218.000         156.000
  23088189.365   -12604817.72849  -9647998.62246  23088188.809    23088196.711
       219.000         166.000
  23739336.777    -4211200.48049  -3269687.68045  23739335.540    23739343.590
       211.000         151.000
 03  1 13  2 15  0.0000000  0 10G26G 5G30G17G23G 6G10G15G29G18
  22859195.144    -8988970.76149  -6987842.53545  22859194.979    22859201.878
       220.000         162.000
  24692808.951    -3531775.94949  -2734816.88845  24692808.634    24692818.968
       211.000         149.000
  22128536.201   -17302436.48149 -13463029.58046  22128536.903    22128543.389
       232.000         184.000
  21806967.970   -18043233.89349 -14042743.02947  21806967.610    21806974.512
       236.000         198.000
  20694211.512   -19600964.80849 -15253993.33148  20694211.156    20694217.703
       246.000         214.000
  20344202.448   -27338287.17049 -21287028.92448  20344202.472    20344208.389
       244.000         215.000
  22457299.303   -13224805.72449 -10289043.26146  22457298.516    22457305.677
       226.000         179.000
  23580540.381    -8835411.57549  -6466596.82445  23580539.792    23580547.102
       217.000         157.000
  23079267.487   -12651702.22549  -9684531.90746  23079267.106    23079274.407
       217.000         166.000
  23719451.701    -4315695.81749  -3351112.40445  23719450.486    23719458.858
       212.000         150.000
 03  1 13  2 15 30.0000000  0 10G26G 5G30G17G23G 6G10G15G29G18
  22844228.832    -9067619.02449  -7049126.80645  22844228.200    22844235.820
       218.000         162.000
  24712897.451    -3426210.36549  -2652558.04345  24712897.337    24712907.545
       207.000         149.000
  22145422.479   -17213698.51049 -13393883.10946  22145423.372    22145429.286
       231.000         183.000
  21798701.115   -18086676.26449 -14076594.17547  21798701.013    21798707.454
       236.000         198.000
  20688471.987   -19631126.08749 -15277495.57648  20688471.839    20688478.069
       246.000         214.000
  20340279.218   -27358903.79149 -21303093.80148  20340279.238    20340285.066
       244.000         215.000
  22474292.097   -13135507.88749 -10219460.51846  22474291.412    22474298.721
       227.000         179.000
  23566433.835    -8909541.71949  -6524360.47345  23566433.238    23566443.006
       215.000         158.000
  23070420.368   -12698193.61349  -9720758.86846  23070420.680    23070427.076
       220.000         167.000
  23699599.183    -4420020.70949  -3432404.33745  23699598.200    23699606.304
       209.000         150.000
 03  1 13  2 16  0.0000000  0 10G26G 5G30G17G23G 6G10G15G29G18
  22829319.854    -9145966.18349  -7110176.41546  22829319.761    22829326.377
       221.000         164.000
  24732973.512    -3320710.25649  -2570350.22045  24732973.239    24732982.643
       208.000         148.000
  22162361.152   -17124685.13949 -13324522.04246  22162361.257    22162368.574
       229.000         183.000
  21790466.405   -18129950.07949 -14110313.97547  21790466.284    21790472.741
       236.000         199.000
  20682829.335   -19660778.22249 -15300601.08548  20682829.055    20682835.394
       245.000         214.000
  20336430.394   -27379129.42049 -21318854.00648  20336430.202    20336436.024
       244.000         215.000
  22491340.026   -13045920.45749 -10149652.11146  22491339.829    22491346.639
       227.000         178.000
  23552350.618    -8983549.28349  -6582028.61745  23552350.157    23552358.535
       217.000         159.000
  23061648.569   -12744289.94349  -9756677.99646  23061648.573    23061654.732
       219.000         167.000
  23679779.422    -4524173.23449  -3513561.96045  23679779.760    23679786.274
       212.000         150.000
 03  1 13  2 16 30.0000000  0 10G26G 5G30G17G23G 6G10G15G29G18
  22814468.777    -9224008.46649  -7170988.47846  22814468.432    22814475.904
       218.000         163.000
  24753036.671    -3215277.82249  -2488195.12745  24753036.220    24753046.519
       207.000         148.000
  22179351.683   -17035399.24249 -13254948.62246  22179352.114    22179358.805
       230.000         183.000
  21782263.601   -18173055.77149 -14143902.77247  21782263.153    21782269.754
       234.000         198.000
  20677283.648   -19689920.88349 -15323309.60548  20677283.315    20677289.576
       245.000         214.000
  20332656.293   -27398962.27749 -21334308.15748  20332656.295    20332662.019
       243.000         215.000
  22508442.530   -12956046.05149 -10079620.08946  22508441.820    22508448.683
       226.000         178.000
  23538290.752    -9057433.85049  -6639600.92045  23538290.161    23538298.632
       214.000         160.000
  23052952.388   -12789988.69249  -9792287.32946  23052952.433    23052959.597
       219.000         169.000
  23659992.968    -4628151.34249  -3594583.67545  23659992.378    23659999.645
       212.000         150.000
 03  1 13  2 17  0.0000000  0 10G26G 5G30G17G23G 6G10G15G29G18
  22799676.610    -9301741.54949  -7231559.60046  22799675.833    22799683.262
       216.000         163.000
  24773086.615    -3109914.72749  -2406094.06345  24773086.699    24773096.681
       205.000         147.000
  22196393.626   -16945843.05749 -13185164.59246  22196394.086    22196400.807
       230.000         183.000
  21774092.817   -18215992.90749 -14177360.22747  21774092.340    21774099.206
       236.000         198.000
  20671835.076   -19718553.02949 -15345620.32448  20671834.557    20671841.103
       246.000         214.000
  20328957.388   -27418400.02649 -21349454.43448  20328957.456    20328963.195
       244.000         215.000
  22525599.228   -12865886.91449 -10009366.19746  22525598.822    22525605.978
       226.000         178.000
  23524254.468    -9131194.53349  -6697076.69245  23524253.128    23524262.641
       216.000         161.000
  23044332.399   -12835286.59049  -9827584.30346  23044331.841    23044339.181
       218.000         169.000
  23640240.041    -4731952.43149  -3675467.46145  23640239.713    23640246.923
       213.000         151.000
 03  1 13  2 17 30.0000000  0 10G26G 5G30G17G23G 6G10G15G29G18
  22784943.740    -9379162.73549  -7291887.67346  22784943.912    22784950.576
       218.000         163.000
  24793122.700    -3004624.22349  -2324049.57145  24793122.848    24793132.303
       207.000         145.000
  22213486.323   -16856020.32649 -13115172.85946  22213487.143    22213493.437
       230.000         184.000
  21765953.998   -18258762.33549 -14210686.99147  21765953.724    21765960.592
       236.000         199.000
  20666483.567   -19746675.16049 -15367533.62148  20666483.141    20666489.607
       245.000         214.000
  20325333.824   -27437442.03249 -21364292.33448  20325333.714    20325339.574
       244.000         215.000
  22542809.534   -12775446.52849  -9938893.15446  22542809.608    22542815.355
       227.000         178.000
  23510241.597    -9204832.06949  -6754456.48745  23510241.578    23510249.307
       216.000         162.000
  23035788.940   -12880182.13749  -9862567.76046  23035788.266    23035794.860
       218.000         169.000
  23620521.198    -4835575.21849  -3756212.29945  23620519.694    23620527.758
       214.000         152.000
 03  1 13  2 18  0.0000000  0  9G26G30G17G23G 6G10G15G29G18
  22770271.133    -9456267.22649  -7351969.00446  22770271.619    22770278.178
       220.000         163.000
  22230629.474   -16765932.60649 -13044974.64146  22230630.355    22230636.327
       230.000         185.000
  21757847.326   -18301363.03849 -14243882.29047  21757846.976    21757853.535
       235.000         199.000
  20661229.391   -19774285.78549 -15389048.34048  20661228.979    20661235.580
       245.000         214.000
  20321786.103   -27456085.34849 -21378819.56548  20321785.970    20321791.843
       244.000         215.000
  22560073.143   -12684725.89649  -9868201.72846  22560072.857    22560079.592
       227.000         178.000
  23496252.479    -9278345.12649  -6811739.29646  23496251.853    23496260.872
       217.000         163.000
  23027322.672   -12924671.50949  -9897234.71046  23027322.726    23027329.368
       218.000         168.000
  23600836.859    -4939016.27649  -3836815.54245  23600836.431    23600843.820
       216.000         153.000
 03  1 13  2 18 30.0000000  0  9G26G30G17G23G 6G10G15G29G18
  22755659.372    -9533051.99549  -7411801.14846  22755659.135    22755666.369
       220.000         163.000
  22247822.363   -16675583.45649 -12974572.71246  22247822.973    22247829.684
       231.000         185.000
  21749772.684   -18343795.41749 -14276946.42147  21749772.096    21749779.247
       236.000         199.000
  20656072.479   -19801385.27049 -15410164.77948  20656072.129    20656078.599
       246.000         214.000
  20318314.488   -27474328.73449 -21393035.16648  20318314.374    20318320.159
       244.000         215.000
  22577389.400   -12593728.47349  -9797294.62446  22577388.989    22577395.128
       227.000         177.000
  23482287.016    -9351733.97949  -6868925.32646  23482286.681    23482294.327
       219.000         164.000
  23018934.037   -12968752.99149  -9931583.81946  23018934.143    23018940.117
       219.000         169.000
  23581187.477    -5042273.97049  -3917275.90045  23581187.164    23581194.427
       216.000         154.000
 03  1 13  2 19  0.0000000  0  9G26G30G17G23G 6G10G15G29G18
  22741108.830    -9609515.11849  -7471382.70945  22741107.959    22741114.755
       216.000         162.000
  22265064.113   -16584977.44649 -12903970.62846  22265064.547    22265070.868
       230.000         185.000
  21741729.580   -18386061.90749 -14309881.29647  21741729.444    21741736.330
       236.000         199.000
  20651012.596   -19827975.12649 -15430884.10548  20651012.262    20651018.691
       245.000         215.000
  20314918.936   -27492172.44549 -21406939.32948  20314918.894    20314924.759
       243.000         215.000
  22594757.466   -12502458.62449  -9726175.24746  22594757.555    22594763.239
       226.000         177.000
  23468344.779    -9425000.52549  -6926016.04246  23468344.473    23468352.975
       219.000         165.000
  23010623.359   -13012425.59149  -9965614.33846  23010623.357    23010629.729
       219.000         169.000
  23561572.979    -5145347.97849  -3997593.12145  23561573.032    23561579.709
       215.000         155.000
 03  1 13  2 19 30.0000000  0  9G26G30G17G23G 6G10G15G29G18
  22726620.233    -9685652.93449  -7530710.78046  22726620.338    22726627.956
       220.000         165.000
  22282354.250   -16494117.21749 -12833170.44946  22282354.627    22282361.160
       231.000         185.000
  21733718.146   -18428162.27149 -14342686.71647  21733717.880    21733724.415
       237.000         200.000
  20646049.752   -19854054.82749 -15451205.90448  20646049.347    20646055.752
       245.000         214.000
  20311599.737   -27509614.72649 -21420530.69348  20311599.802    20311605.488
       243.000         215.000
  22612176.884   -12410918.99849  -9654845.64746  22612175.976    22612182.933
       225.000         177.000
  23454425.972    -9498144.33249  -6983011.12346  23454425.049    23454433.392
       218.000         164.000
  23002391.014   -13055686.91649  -9999324.38246  23002391.116    23002397.925
       220.000         170.000
  23541993.924    -5248236.02749  -4077765.43745  23541993.707    23542001.017
       217.000         156.000
 03  1 13  2 20  0.0000000  0  9G26G30G17G23G 6G10G15G29G18
  22712194.184    -9761461.71149  -7589782.45846  22712194.205    22712201.584
       221.000         166.000
  22299692.247   -16403005.64249 -12762174.41446  22299692.764    22299700.017
       231.000         185.000
  21725738.334   -18470096.56949 -14375362.73847  21725737.855    21725744.182
       236.000         200.000
  20641184.050   -19879624.14549 -15471130.00248  20641183.476    20641190.097
       245.000         214.000
  20308357.304   -27526653.74549 -21433807.82348  20308357.157    20308362.981
       243.000         215.000
  22629647.114   -12319112.13649  -9583307.80946  22629647.221    22629653.099
       226.000         176.000
  23440530.547    -9571165.04949  -7039910.27946  23440529.759    23440537.697
       216.000         163.000
  22994237.394   -13098534.47049 -10032712.00246  22994237.511    22994243.908
       220.000         170.000
  23522450.679    -5350935.61349  -4157790.90645  23522450.027    23522456.874
       216.000         157.000
 03  1 13  2 20 30.0000000  0  9G26G30G17G23G 6G10G15G29G18
  22697831.474    -9836937.84249  -7648594.91746  22697830.849    22697838.720
       220.000         166.000
  22317077.494   -16311645.43249 -12690984.63746  22317077.699    22317084.244
       230.000         184.000
  21717790.046   -18511864.87449 -14407909.41547  21717789.457    21717796.237
       236.000         199.000
  20636415.467   -19904682.85349 -15490656.22348  20636415.127    20636421.273
       245.000         214.000
  20305191.885   -27543287.85749 -21446769.44548  20305191.708    20305197.495
       243.000         215.000
  22647167.634   -12227040.78649  -9511563.89146  22647166.823    22647174.125
       225.000         176.000
  23426658.511    -9644062.52749  -7096713.39446  23426657.163    23426666.342
       217.000         163.000
  22986163.021   -13140965.69949 -10065775.21946  22986162.871    22986169.596
       220.000         171.000
  23502943.774    -5453444.68949  -4237667.92545  23502943.011    23502950.558
       219.000         157.000
 03  1 13  2 21  0.0000000  0  9G26G30G17G23G 6G10G15G29G18
  22683532.761    -9912077.68649  -7707145.33746  22683532.367    22683540.245
       219.000         166.000
  22334509.546   -16220039.55749 -12619603.43546  22334510.300    22334516.423
       230.000         183.000
  21709873.317   -18553467.14349 -14440326.71247  21709872.778    21709879.275
       236.000         199.000
  20631744.162   -19929230.52549 -15509784.23548  20631743.881    20631750.114
       245.000         214.000
  20302103.883   -27559515.32649 -21459414.19748  20302103.936    20302109.693
       243.000         215.000
  22664738.110   -12134707.33349  -9439615.72646  22664736.579    22664744.575
       225.000         175.000
  23412809.876    -9716836.64349  -7153420.35446  23412808.850    23412817.115
       218.000         163.000
  22978168.380   -13182978.16849 -10098512.12846  22978167.945    22978175.398
       219.000         171.000
  23483473.480    -5555760.97149  -4317394.72045  23483472.390    23483479.992
       218.000         157.000
 03  1 13  2 21 30.0000000  0  9G26G30G17G23G 6G10G15G29G18
  22669298.666    -9986877.92049  -7765431.14846  22669298.701    22669304.428
       220.000         165.000
  22351987.702   -16128191.04949 -12548033.16346  22351987.811    22351994.800
       229.000         182.000
  21701988.105   -18594903.82549 -14472614.98047  21701987.667    21701994.463
       237.000         200.000
  20627170.141   -19953267.16149 -15528514.03548  20627169.768    20627176.105
       246.000         214.000
  20299093.554   -27575334.71649 -21471740.96648  20299093.390    20299099.183
       243.000         215.000
  22682357.909   -12042114.71449  -9367465.62446  22682356.791    22682363.629
       225.000         175.000
  23398984.811    -9789487.21849  -7210031.05346  23398983.711    23398992.756
       218.000         164.000
  22970253.682   -13224569.79349 -10130921.09846  22970253.994    22970259.125
       221.000         172.000
  23464040.273    -5657882.54049  -4396969.77745  23464039.274    23464046.994
       217.000         157.000
 03  1 13  2 22  0.0000000  0  9G26G30G17G23G 6G10G15G29G18
  22655130.039   -10061334.50249  -7823449.16146  22655129.970    22655136.884
       222.000         167.000
  22369511.552   -16036102.49449 -12476275.85946  22369511.999    22369518.916
       227.000         181.000
  21694134.437   -18636175.05649 -14504774.32747  21694134.123    21694140.728
       237.000         201.000
  20622693.386   -19976792.46549 -15546845.40248  20622692.967    20622699.198
       245.000         214.000
  20296161.179   -27590744.26949 -21483748.38548  20296160.970    20296166.809
       243.000         215.000
  22700026.560   -11949265.26549  -9295115.38146  22700025.659    22700032.309
       224.000         174.000
  23385183.357    -9862014.03049  -7266545.31346  23385182.315    23385191.033
       218.000         165.000
  22962419.548   -13265737.98449 -10163000.13346  22962419.188    22962426.472
       220.000         172.000
  23444644.537    -5759807.18449  -4476391.39945  23444643.691    23444650.899
       218.000         158.000
 03  1 13  2 22 30.0000000  0  9G26G30G17G23G 6G10G15G29G18
  22641027.158   -10135445.08649  -7881197.58746  22641027.883    22641035.109
       220.000         166.000
  22387080.362   -15943777.70749 -12404334.47146  22387081.066    22387087.509
       227.000         181.000
  21686312.041   -18677281.88049 -14536805.56247  21686311.429    21686318.118
       237.000         201.000
  20618313.776   -19999807.14149 -15564778.87148  20618313.389    20618319.572
       245.000         214.000
  20293306.967   -27605743.22249 -21495435.85448  20293306.916    20293312.572
       243.000         215.000
  22717743.446   -11856162.45049  -9222567.73046  22717742.734    22717749.100
       224.000         174.000
  23371405.308    -9934417.74549  -7322963.64146  23371404.633    23371412.810
       219.000         166.000
  22954666.315   -13306481.07049 -10194747.91046  22954666.015    22954672.367
       221.000         171.000
  23425286.551    -5861533.29349  -4555658.30945  23425285.552    23425292.785
       217.000         158.000
 03  1 13  2 23  0.0000000  0  9G26G30G17G23G 6G10G15G29G18
  22626990.970   -10209205.37649  -7938673.02646  22626991.420    22626997.829
       222.000         167.000
  22404693.717   -15851218.98049 -12332210.78746  22404693.873    22404700.951
       227.000         181.000
  21678521.092   -18718223.34049 -14568707.94247  21678520.423    21678527.317
       237.000         201.000
  20614031.464   -20022310.60649 -15582313.99548  20614031.033    20614037.336
       245.000         214.000
  20290531.318   -27620329.29649 -21506801.59648  20290531.287    20290536.906
       244.000         215.000
  22735508.141   -11762808.29349  -9149824.20846  22735507.356    22735514.547
       224.000         174.000
  23357650.824   -10006697.55349  -7379285.43146  23357650.665    23357658.200
       218.000         167.000
  22946994.343   -13346796.24349 -10226162.24846  22946993.877    22947000.852
       221.000         171.000
  23405966.780    -5963058.40549  -4634768.60145  23405966.297    23405973.259
       218.000         158.000
 03  1 13  2 23 30.0000000  0  9G26G30G17G23G 6G10G15G29G18
  22613021.970   -10282612.20049  -7995873.03846  22613022.320    22613029.157
       222.000         168.000
  22422350.921   -15758429.57249 -12259907.35446  22422351.769    22422357.840
       227.000         181.000
  21670761.480   -18759000.15849 -14600482.03247  21670761.164    21670767.296
       237.000         201.000
  20609846.397   -20044303.18149 -15599451.02248  20609845.961    20609852.281
       245.000         214.000
  20287834.414   -27634501.47449 -21517844.82648  20287834.175    20287839.852
       244.000         215.000
  22753320.067   -11669205.86949  -9076887.23846  22753319.225    22753325.558
       225.000         173.000
  23343919.816   -10078853.96449  -7435511.05846  23343918.521    23343927.133
       218.000         166.000
  22939404.266   -13386681.52249 -10257241.61346  22939404.391    22939410.486
       220.000         171.000
  23386685.576    -6064380.76349  -4713720.91845  23386684.965    23386691.873
       219.000         158.000
 03  1 13  2 24  0.0000000  0  9G26G30G17G23G 6G10G15G29G18
  22599120.928   -10355662.42149  -8052795.21046  22599121.574    22599127.439
       222.000         168.000
  22440051.465   -15665412.76249 -12187426.72746  22440052.145    22440058.826
       227.000         181.000
  21663033.099   -18799612.83849 -14632128.22547  21663032.485    21663039.218
       237.000         201.000
  20605758.475   -20065785.09849 -15616190.13048  20605757.991    20605764.432
       245.000         214.000
  20285216.515   -27648258.43249 -21528564.50548  20285216.387    20285222.033
       243.000         215.000
  22771178.689   -11575358.03149  -9003759.03946  22771178.611    22771184.277
       223.000         173.000
  23330212.282   -10150886.89549  -7491640.48546  23330211.830    23330219.924
       219.000         165.000
  22931896.418   -13426135.18349 -10287984.64846  22931896.329    22931902.344
       221.000         171.000
  23367443.352    -6165498.68049  -4792513.93345  23367443.116    23367449.997
       218.000         159.000
 03  1 13  2 24 30.0000000  0  9G26G30G17G23G 6G10G15G29G18
  22585288.532   -10428352.01649  -8109436.34846  22585288.640    22585293.952
       224.000         168.000
  22457794.783   -15572170.98549 -12114770.80746  22457795.152    22457801.461
       227.000         182.000
  21655335.981   -18840061.03049 -14663646.24047  21655335.403    21655341.810
       237.000         201.000
  20601767.833   -20086755.93049 -15632530.99548  20601767.393    20601773.690
       245.000         214.000
  20282678.003   -27661598.26149 -21538959.15648  20282677.954    20282683.730
       244.000         215.000
  22789083.476   -11481267.16849  -8930441.46846  22789083.086    22789089.519
       223.000         172.000
  23316528.334   -10222795.78149  -7547673.22646  23316527.294    23316535.506
       220.000         164.000
  22924471.343   -13465154.21049 -10318389.01146  22924471.549    22924477.437
       222.000         172.000
  23348240.568    -6266409.29549  -4871145.41345  23348240.420    23348246.539
       219.000         159.000
 03  1 13  2 25  0.0000000  0  9G26G30G17G23G 6G10G15G29G18
  22571525.280   -10500678.33149  -8165794.42146  22571526.218    22571531.869
       222.000         169.000
  22475580.197   -15478707.97149 -12041942.48646  22475580.429    22475587.192
       227.000         182.000
  21647669.954   -18880346.15249 -14695037.19447  21647669.440    21647676.091
       237.000         201.000
  20597874.304   -20107216.39749 -15648474.17048  20597874.078    20597880.104
       246.000         215.000
  20280219.010   -27674520.21849 -21549028.19248  20280218.907    20280224.854
       243.000         215.000
  22807033.899   -11386936.76849  -8856937.24146  22807033.369    22807040.209
       222.000         172.000
  23302867.885   -10294581.40649  -7603609.93846  23302866.861    23302875.631
       215.000         163.000
  22917129.218   -13503737.46749 -10348453.82046  22917128.972    22917134.930
       221.000         172.000
  23329077.379    -6367111.55549  -4949614.54145  23329076.816    23329083.366
       219.000         159.000
 03  1 13  2 25 30.0000000  0  9G26G30G17G23G 6G10G15G29G18
  22557831.630   -10572638.23549  -8221866.98446  22557831.968    22557837.811
       224.000         168.000
  22493407.077   -15385026.91749 -11968944.27246  22493407.348    22493414.100
       227.000         181.000
  21640034.991   -18920467.98249 -14726300.91147  21640034.656    21640040.803
       237.000         201.000
  20594077.818   -20127166.85049 -15664019.93048  20594077.237    20594083.719
       246.000         215.000
  20277839.776   -27687022.96949 -21558770.57048  20277839.604    20277845.413
       243.000         215.000
  22825029.403   -11292369.32949  -8783248.30946  22825028.412    22825035.500
       222.000         171.000
  23289230.773   -10366244.01049  -7659450.78845  23289229.962    23289238.019
       217.000         162.000
  22909870.389   -13541882.80649 -10378177.39346  22909870.367    22909876.263
       220.000         172.000
  23309954.195    -6467603.46349  -5027919.76445  23309953.745    23309959.452
       219.000         159.000
 03  1 13  2 26  0.0000000  0  9G26G30G17G23G 6G10G15G29G18
  22544208.490   -10644227.61849  -8277650.80746  22544208.829    22544215.708
       220.000         169.000
  22511275.014   -15291130.15749 -11895777.96146  22511275.308    22511282.006
       226.000         180.000
  21632431.085   -18960426.45649 -14757437.33147  21632430.420    21632437.248
       237.000         201.000
  20590378.493   -20146606.81349 -15679167.90648  20590378.008    20590384.484
       245.000         215.000
  20275540.706   -27699104.53049 -21568184.75248  20275540.555    20275546.480
       243.000         215.000
  22843069.567   -11197567.07249  -8709376.40446  22843068.992    22843076.389
       222.000         171.000
  23275617.180   -10437783.13649  -7715195.42546  23275616.626    23275624.753
       214.000         164.000
  22902695.389   -13579587.33149 -10407557.47946  22902695.494    22902701.202
       222.000         172.000
  23290871.647    -6567882.70249  -5106059.28145  23290872.075    23290877.297
       217.000         159.000
 03  1 13  2 26 30.0000000  0  9G26G30G17G23G 6G10G15G29G18
  22530656.436   -10715443.28649  -8333143.43746  22530656.711    22530662.759
       223.000         168.000
  22529183.448   -15197020.80049 -11822446.00846  22529184.070    22529191.407
       226.000         179.000
  21624858.267   -19000221.81149 -14788446.65447  21624857.962    21624864.320
       238.000         202.000
  20586776.254   -20165536.50149 -15693918.26948  20586775.942    20586782.091
       245.000         214.000
  20273322.015   -27710763.62749 -21577269.74448  20273322.091    20273327.732
       243.000         215.000
  22861153.881   -11102533.04449  -8635323.89846  22861153.493    22861159.518
       223.000         170.000
  23262027.128   -10509198.72049  -7770843.78146  23262026.944    23262034.249
       219.000         167.000
  22895604.799   -13616849.23749 -10436592.66646  22895604.743    22895610.950
       221.000         172.000
  23271829.831    -6667947.33849  -5184031.57345  23271829.288    23271835.929
       219.000         159.000
 03  1 13  2 27  0.0000000  0  9G26G30G17G23G 6G10G15G29G18
  22517176.226   -10786281.95049  -8388342.29246  22517176.813    22517182.501
       225.000         169.000
  22547131.665   -15102701.93249 -11748950.80146  22547132.585    22547138.844
       225.000         178.000
  21617316.447   -19039854.49849 -14819329.21847  21617316.143    21617322.507
       238.000         202.000
  20583271.068   -20183956.23049 -15708271.25848  20583270.588    20583276.870
       245.000         214.000
  20271184.000   -27721999.03149 -21586024.58148  20271184.001    20271189.802
       244.000         215.000
  22879281.881   -11007270.12849  -8561093.04246  22879280.893    22879287.127
       221.000         170.000
  23248460.670   -10580490.76549  -7826395.90646  23248460.316    23248468.201
       220.000         168.000
  22888598.748   -13653666.53949 -10465281.41146  22888598.383    22888604.416
       221.000         171.000
  23252829.251    -6767795.29449  -5261835.02245  23252828.202    23252835.365
       217.000         159.000
 03  1 13  2 27 30.0000000  0  9G26G30G17G23G 6G10G15G29G18
  22503768.399   -10856740.77649  -8443245.19646  22503769.075    22503775.008
       224.000         171.000
  22565119.126   -15008177.34249 -11675295.29046  22565119.113    22565126.285
       224.000         176.000
  21609805.313   -19079325.47949 -14850085.77747  21609804.843    21609811.374
       237.000         202.000
  20579862.752   -20201866.90449 -15722227.58748  20579862.248    20579868.412
       245.000         214.000
  20269126.785   -27732809.89949 -21594448.61248  20269126.736    20269132.510
       243.000         215.000
  22897452.888   -10911781.22349  -8486686.09346  22897452.813    22897458.907
       222.000         169.000
  23234917.597   -10651659.92749  -7881852.27446  23234916.892    23234924.688
       218.000         169.000
  22881677.552   -13690037.68349 -10493622.49146  22881677.524    22881683.831
       221.000         172.000
  23233870.183    -6867425.32149  -5339468.66245  23233869.327    23233876.163
       219.000         159.000
 03  1 13  2 28  0.0000000  0  9G26G30G17G23G 6G10G15G29G18
  22490433.542   -10926815.84349  -8497849.04546  22490433.677    22490439.794
       223.000         171.000
  22583145.278   -14913449.19449 -11601481.14546  22583145.754    22583151.668
       224.000         174.000
  21602325.083   -19118633.84049 -14880715.61147  21602324.572    21602330.986
       238.000         202.000
  20576551.426   -20219267.93849 -15735786.78948  20576551.070    20576557.130
       245.000         214.000
  20267150.704   -27743194.17349 -21602540.22948  20267150.564    20267156.236
       243.000         215.000
  22915666.448   -10816068.68649  -8412104.87646  22915666.824    22915672.325
       220.000         168.000
  23221397.948   -10722705.47849  -7937212.32146  23221396.911    23221405.170
       217.000         167.000
  22874841.569   -13725959.98749 -10521613.82246  22874841.327    22874847.603
       221.000         172.000
  23214953.054    -6966834.84949  -5416930.48345  23214952.273    23214959.323
       218.000         160.000
 03  1 13  2 28 30.0000000  0  9G26G30G17G23G 6G10G15G29G18
  22477172.318   -10996503.58349  -8552151.10246  22477172.717    22477178.583
       224.000         171.000
  22601209.642   -14818520.47749 -11527510.71746  22601210.228    22601217.480
       224.000         174.000
  21594875.734   -19157780.35349 -14911219.34247  21594875.509    21594881.645
       238.000         202.000
  20573337.017   -20236159.51249 -15748949.01448  20573336.516    20573342.857
       245.000         214.000
  20265256.079   -27753150.31949 -21610298.24648  20265255.995    20265261.876
       243.000         215.000
  22933921.977   -10720135.20549  -8337351.50046  22933921.367    22933928.296
       221.000         168.000
  23207901.849   -10793627.25449  -7992475.92546  23207901.214    23207909.141
       218.000         164.000
  22868091.468   -13761431.45549 -10549253.85746  22868090.990    22868097.519
       221.000         172.000
  23196078.250    -7066021.64149  -5494218.74845  23196077.550    23196084.705
       216.000         160.000
 03  1 13  2 29  0.0000000  0  9G26G30G17G23G 6G10G15G29G18
  22463985.303   -11065801.33949  -8606149.27646  22463985.087    22463992.012
       223.000         170.000
  22619311.444   -14723394.80949 -11453386.83446  22619311.576    22619317.925
       225.000         173.000
  21587457.142   -19196765.15549 -14941597.06247  21587456.365    21587463.075
       238.000         202.000
  20570219.375   -20252542.53249 -15761714.95948  20570218.974    20570225.174
       243.000         214.000
  20263443.072   -27762677.70449 -21617722.16148  20263442.970    20263448.677
       243.000         215.000
  22952218.923   -10623983.99949  -8262428.47846  22952217.730    22952225.147
       219.000         168.000
  23194429.177   -10864425.93349  -8047643.60846  23194428.421    23194436.425
       220.000         163.000
  22861427.422   -13796450.49149 -10576541.34446  22861427.233    22861433.476
       221.000         172.000
  23177246.166    -7164984.61549  -5571332.62045  23177245.727    23177252.522
       219.000         160.000
 03  1 13  2 29 30.0000000  0  9G26G30G17G23G 6G10G15G29G18
  22450873.211   -11134705.05249  -8659840.39146  22450872.734    22450879.414
       223.000         170.000
  22637450.317   -14628074.36549 -11379111.16246  22637450.999    22637457.815
       225.000         173.000
  21580069.247   -19235588.35949 -14971848.85947  21580068.699    21580075.376
       238.000         202.000
  20567198.618   -20268416.52649 -15774084.25948  20567198.295    20567204.354
       244.000         214.000
  20261712.005   -27771774.33249 -21624810.42048  20261711.969    20261717.654
       244.000         215.000
  22970556.930   -10527616.90149  -8187337.21546  22970556.395    22970562.482
       221.000         167.000
  23180980.219   -10935100.56449  -8102714.65746  23180979.852    23180986.966
       220.000         165.000
  22854850.051   -13831014.32349 -10603474.11946  22854849.967    22854856.838
       221.000         172.000
  23158457.165    -7263720.92349  -5648269.85745  23158456.324    23158462.737
       216.000         161.000
 03  1 13  2 30  0.0000000  0  9G26G30G17G23G 6G10G15G29G18
  22437836.656   -11203212.29249  -8713222.57946  22437836.829    22437842.100
       224.000         170.000
  22655625.478   -14532563.26749 -11304686.93546  22655625.857    22655632.773
       227.000         174.000
  21572712.018   -19274250.63949 -15001975.26347  21572711.373    21572717.848
       238.000         202.000
  20564274.510   -20283782.64649 -15786057.81748  20564274.149    20564280.219
       244.000         214.000
  20260063.031   -27780439.73649 -21631562.66348  20260063.110    20260068.614
       244.000         215.000
  22988935.443   -10431037.43949  -8112080.47946  22988935.681    22988941.088
       221.000         167.000
  23167554.692   -11005652.01249  -8157689.71346  23167553.886    23167561.354
       220.000         167.000
  22848359.463   -13865122.15949 -10630051.57746  22848359.550    22848365.111
       221.000         172.000
  23139711.479    -7362229.57849  -5725029.71545  23139710.332    23139717.104
       218.000         162.000
 03  1 13  2 30 30.0000000  0  9G26G30G17G23G 6G10G15G29G18
  22424876.312   -11271319.09749  -8766292.73346  22424877.310    22424881.744
       225.000         170.000
  22673836.559   -14436863.65149 -11230115.79746  22673836.899    22673843.394
       228.000         175.000
  21565385.501   -19312751.66549 -15031976.01647  21565385.284    21565391.121
       238.000         202.000
  20561447.152   -20298640.39249 -15797635.23848  20561446.777    20561452.723
       244.000         214.000
  20258496.492   -27788671.93149 -21637977.33848  20258496.485    20258502.051
       244.000         215.000
  23007353.916   -10334247.83449  -8036659.98546  23007353.371    23007359.408
       221.000         167.000
  23154152.675   -11076079.72549  -8212568.34646  23154151.544    23154160.116
       220.000         168.000
  22841956.109   -13898771.04849 -10656271.40346  22841955.353    22841962.127
       221.000         172.000
  23121009.666    -7460507.86649  -5801610.07446  23121009.608    23121015.858
       220.000         163.000
 03  1 13  2 31  0.0000000  0  9G26G30G17G23G 6G10G15G29G18
  22411992.667   -11339022.87249  -8819048.84446  22411993.130    22411999.602
       224.000         170.000
  22692082.760   -14340979.36749 -11155400.76846  22692082.538    22692090.320
       227.000         176.000
  21558089.395   -19351092.57149 -15061851.99647  21558089.115    21558095.335
       238.000         202.000
  20558716.294   -20312991.09649 -15808817.56448  20558715.967    20558721.848
       243.000         214.000
  20257012.498   -27796470.32149 -21644053.98048  20257012.422    20257018.030
       243.000         215.000
  23025811.698   -10237251.56049  -7961078.46646  23025811.173    23025818.358
       222.000         167.000
  23140774.017   -11146384.40649  -8267351.10046  23140772.886    23140781.294
       220.000         168.000
  22835640.469   -13931959.90349 -10682132.77646  22835640.675    22835646.332
       222.000         172.000
  23102351.849    -7558554.81349  -5878010.17446  23102351.275    23102357.748
       221.000         165.000
 03  1 13  2 31 30.0000000  0  9G26G30G17G23G 6G10G15G29G18
  22399186.325   -11406320.00749  -8871488.09446  22399186.206    22399192.999
       223.000         171.000
  22710363.602   -14244912.92849 -11080543.80746  22710364.032    22710371.351
       228.000         177.000
  21550823.953   -19389272.58649 -15091602.61447  21550823.405    21550829.923
       238.000         203.000
  20556081.929   -20326834.55049 -15819604.62948  20556081.631    20556087.772
       243.000         214.000
  20255611.377   -27803833.19949 -21649791.26748  20255611.372    20255616.950
       244.000         215.000
  23044308.478   -10140050.44549  -7885337.31746  23044307.888    23044314.676
       221.000         167.000
  23127418.855   -11216565.62349  -8322037.66546  23127417.762    23127426.393
       219.000         168.000
  22829412.747   -13964686.28749 -10707633.77746  22829412.816    22829418.945
       221.000         172.000
  23083738.577    -7656367.87649  -5954228.02446  23083737.881    23083744.487
       223.000         167.000
 03  1 13  2 32  0.0000000  0  9G26G30G17G23G 6G10G15G29G18
  22386458.101   -11473206.77049  -8923607.55846  22386458.337    22386464.634
       224.000         171.000
  22728678.619   -14148666.99249 -11005546.97646  22728679.043    22728686.102
       227.000         178.000
  21543589.006   -19427292.34549 -15121228.35347  21543588.724    21543595.004
       238.000         203.000
  20553544.092   -20340170.83949 -15829996.50048  20553543.708    20553549.786
       244.000         214.000
  20254293.426   -27810758.91449 -21655187.89848  20254293.424    20254298.965
       243.000         215.000
  23062843.742   -10042647.16049  -7809438.64346  23062843.785    23062849.224
       220.000         167.000
  23114087.284   -11286622.88949  -8376627.63146  23114086.381    23114094.247
       220.000         168.000
  22823273.470   -13996948.06549 -10732772.75446  22823273.007    22823278.920
       221.000         172.000
  23065170.261    -7753944.66749  -6030261.77546  23065169.605    23065175.912
       224.000         168.000
 03  1 13  2 32 30.0000000  0  9G26G30G17G23G 6G10G15G29G18
  22373808.453   -11539680.80949  -8975405.43946  22373808.625    22373814.436
       225.000         171.000
  22747027.073   -14052245.41049 -10930413.28146  22747027.840    22747034.053
       226.000         178.000
  21536384.415   -19465152.59349 -15150729.79947  21536384.112    21536390.295
       238.000         203.000
  20551102.512   -20353001.09649 -15839994.05448  20551102.018    20551108.054
       243.000         214.000
  20253058.733   -27817247.19149 -21660243.67148  20253058.669    20253064.201
       243.000         215.000
  23081416.753    -9945044.91849  -7733384.93246  23081416.168    23081422.222
       221.000         166.000
  23100779.117   -11356557.33649  -8431121.89646  23100778.354    23100786.407
       219.000         168.000
  22817222.764   -14028744.42549 -10757549.05846  22817223.285    22817227.965
       223.000         172.000
  23046647.045    -7851284.42849  -6106110.83446  23046646.419    23046652.750
       224.000         170.000
 03  1 13  2 33  0.0000000  0  9G26G30G17G23G 6G10G15G29G18
  22361238.048   -11605738.34749  -9026878.76646  22361238.657    22361244.881
       226.000         171.000
  22765408.433   -13955650.88549 -10855144.82846  22765409.555    22765415.112
       225.000         178.000
  21529210.307   -19502852.81249 -15180106.54747  21529209.688    21529216.134
       238.000         203.000
  20548757.267   -20365325.33249 -15849597.31448  20548756.802    20548762.949
       243.000         214.000
  20251907.642   -27823296.15749 -21664957.13048  20251907.556    20251913.181
       243.000         215.000
  23100027.260    -9847246.02049  -7657177.97146  23100026.355    23100033.815
       221.000         165.000
  23087494.468   -11426368.17449  -8485519.85646  23087493.891    23087501.855
       220.000         168.000
  22811261.262   -14060072.58749 -10781960.55646  22811260.953    22811266.849
       222.000         172.000
  23028169.402    -7948384.66049  -6181773.24346  23028169.250    23028175.043
       226.000         171.000
 03  1 13  2 33 30.0000000  0  9G26G30G17G23G 6G10G15G29G18
  22348747.478   -11671376.48149  -9078025.28546  22348747.354    22348754.077
       225.000         171.000
  22783822.120   -13858886.49549 -10779744.01746  22783822.628    22783829.193
       223.000         177.000
  21522066.380   -19540393.94349 -15209359.33047  21522065.844    21522072.357
       238.000         203.000
  20546508.132   -20377144.32849 -15858806.88048  20546507.759    20546513.742
       243.000         214.000
  20250840.335   -27828904.73349 -21669327.42648  20250840.205    20250845.910
       243.000         215.000
  23118674.543    -9749253.50149  -7580820.16546  23118674.195    23118680.425
       219.000         165.000
  23074233.317   -11496055.54249  -8539821.59346  23074232.361    23074240.180
       221.000         169.000
  22805389.079   -14090931.17149 -10806006.13746  22805388.888    22805394.441
       223.000         172.000
  23009737.622    -8045244.05549  -6257248.00546  23009737.170    23009743.325
       226.000         172.000
 03  1 13  2 34  0.0000000  0  9G26G30G17G23G 6G10G15G29G18
  22336337.406   -11736591.61549  -9128842.19546  22336337.655    22336343.901
       225.000         171.000
  22802267.551   -13761955.04849 -10704213.04746  22802268.018    22802274.327
       222.000         175.000
  21514952.940   -19577775.22249 -15238487.55147  21514952.398    21514958.960
       238.000         203.000
  20544355.162   -20388458.15649 -15867622.80948  20544354.739    20544360.682
       243.000         214.000
  20249857.151   -27834071.18549 -21673353.20548  20249857.066    20249862.704
       243.000         215.000
  23137358.268    -9651069.63849  -7504313.22146  23137356.901    23137364.024
       218.000         164.000
  23060995.727   -11565619.25249  -8594026.97846  23060995.595    23061002.961
       222.000         170.000
  22799606.581   -14121317.98149 -10829684.11046  22799606.071    22799612.650
       222.000         172.000
  22991352.171    -8141859.99349  -6332533.05046  22991351.049    22991357.181
       226.000         173.000
